Date StartTime U_cm/s V_cm/s W_cm/s Ustd_cm/s Vstd_cm/s Wstd_cm/s Uvar_(cm/s)^2 Vvar_(cm/s)^2 Wvar_(cm/s)^2 KE_(m/s)^2 TurbulentKE_(m/s)^2 HorizWindSpeed_cm/s FrictionSpeec_cm/s DragCoef SpeedOfSound_m/s SonicTemperature_C Pressure_mb 
04/11/2014  00:00:00      -55.436        1.662       -4.248       23.926       15.017        7.485      572.453      225.523       56.023        0.197        0.043       55.461        7.937        0.020      340.900       15.240      861.192
04/11/2014  00:01:00      -36.556        8.791       -2.806       13.477       10.022        9.402      181.632      100.432       88.400        0.090        0.019       37.598        6.727        0.032      340.851       15.155      861.196
04/11/2014  00:02:00      -55.789      -11.227       -6.674       14.223       15.688        7.477      202.282      246.118       55.903        0.189        0.025       56.907        6.397        0.013      340.896       15.233      861.197
04/11/2014  00:03:00      -58.425      -11.455       -8.985       17.908       10.878       10.194      320.699      118.334      103.914        0.208        0.027       59.537        5.196        0.008      340.714       14.925      861.207
04/11/2014  00:04:00      -52.580      -22.586       -5.055       13.101       11.954        8.650      171.629      142.905       74.819        0.184        0.019       57.226        4.754        0.007      340.653       14.823      861.213
04/11/2014  00:05:00      -21.016       -8.426        2.703       29.032       21.477       14.766      842.836      461.254      218.023        0.102        0.076       22.643       10.532        0.216      340.488       14.545      861.234
04/11/2014  00:06:00      -19.131       -5.646       -5.478       24.043       13.415        6.611      578.046      179.961       43.701        0.061        0.040       19.947        3.533        0.031      340.579       14.697      861.237
04/11/2014  00:07:00      -83.207      -30.560      -10.782       14.158       15.002       10.322      200.439      225.068      106.534        0.425        0.027       88.642        4.008        0.002      340.505       14.573      861.235
04/11/2014  00:08:00      -75.724      -15.341       -9.813       18.605       16.749       10.552      346.138      280.531      111.335        0.340        0.037       77.263        7.637        0.010      340.397       14.390      861.238
04/11/2014  00:09:00      -19.391       -6.063       -3.319       24.130       14.813       10.689      582.262      219.440      114.257        0.067        0.046       20.316       10.268        0.255      340.385       14.370      861.245
04/11/2014  00:10:00      -43.408       -3.061       -5.391       28.522       19.993       13.179      813.506      399.730      173.691        0.165        0.069       43.516       10.019        0.053      340.490       14.547      861.262
04/11/2014  00:11:00      -36.873       14.342       -8.776       31.545       18.694       13.458      995.099      349.467      181.121        0.158        0.076       39.564       13.425        0.115      340.335       14.284      861.273
04/11/2014  00:12:00      -52.959       10.205       -6.468       31.313       18.134       10.223      980.532      328.853      104.518        0.218        0.071       53.933       10.514        0.038      340.483       14.534      861.272
04/11/2014  00:13:00      -49.433       12.067       -1.492       21.312       17.361       13.005      454.200      301.398      169.123        0.176        0.046       50.884       12.748        0.063      340.583       14.704      861.273
04/11/2014  00:14:00      -61.260       -6.563       -8.169       26.122       21.270       11.583      682.351      452.409      134.177        0.257        0.063       61.610        9.173        0.022      340.725       14.943      861.276
04/11/2014  00:15:00      -53.612       -2.135       -7.775       19.620       19.212       13.715      384.963      369.101      188.113        0.194        0.047       53.654       12.029        0.050      340.602       14.736      861.267
04/11/2014  00:16:00      -50.088       -4.706       -2.559       24.079       24.245       12.607      579.779      587.840      158.942        0.193        0.066       50.309       11.841        0.055      340.678       14.865      861.259
04/11/2014  00:17:00      -53.130        6.957       -9.540       23.030       26.060       15.087      530.385      679.142      227.616        0.220        0.072       53.583       13.815        0.066      340.599       14.731      861.260
04/11/2014  00:18:00      -65.477        7.702       -7.586       24.841       18.936       13.076      617.074      358.568      170.974        0.278        0.057       65.928       13.229        0.040      340.533       14.620      861.273
04/11/2014  00:19:00      -95.259        1.964      -10.520       32.932       25.453       19.170     1084.499      647.846      367.487        0.564        0.105       95.279       17.211        0.033      340.199       14.055      861.282
04/11/2014  00:20:00      -74.824       -1.263       -2.638       46.382       24.735       19.673     2151.281      611.805      387.047        0.438        0.158       74.835       22.638        0.092      340.077       13.848      861.289
04/11/2014  00:21:00      -20.790       -8.398       -2.800       20.321       15.043       12.246      412.932      226.300      149.968        0.065        0.039       22.422       12.883        0.330      340.250       14.139      861.305
04/11/2014  00:22:00      -36.717       -7.957       -9.176       33.807       16.282       11.472     1142.883      265.114      131.611        0.152        0.077       37.569       11.689        0.097      340.482       14.533      861.330
04/11/2014  00:23:00      -20.121       12.378        0.318       32.050       34.207       19.050     1027.178     1170.087      362.906        0.156        0.128       23.624       14.211        0.362      340.552       14.652      861.336
04/11/2014  00:24:00       24.471       22.759        6.622       24.065       25.110       20.430      579.117      630.530      417.390        0.139        0.081       33.419       14.649        0.192      340.569       14.681      861.335
04/11/2014  00:25:00       27.343       59.316       -1.139       39.172       23.960       19.956     1534.471      574.102      398.224        0.339        0.125       65.314       23.643        0.131      340.711       14.921      861.332
04/11/2014  00:26:00       12.355       40.546       -2.372       16.990       22.698       19.574      288.645      515.199      383.141        0.149        0.059       42.387        6.620        0.024      340.732       14.956      861.339
04/11/2014  00:27:00        4.531        4.216       10.996        9.248        7.097        9.487       85.520       50.373       90.011        0.019        0.011        6.189        6.758        1.192      340.458       14.492      861.341
04/11/2014  00:28:00      -34.183        4.606       -0.583       22.070       23.152       15.445      487.100      536.024      238.533        0.123        0.063       34.492        9.740        0.080      340.543       14.636      861.339
04/11/2014  00:29:00      -57.513      -16.444       -5.074       36.093       19.759       11.482     1302.721      390.418      131.832        0.271        0.091       59.818       16.285        0.074      340.465       14.504      861.334
04/11/2014  00:30:00      -61.817      -18.763       -8.118       14.378       12.520       11.195      206.736      156.755      125.331        0.236        0.024       64.602        7.553        0.014      340.523       14.604      861.318
04/11/2014  00:31:00      -47.120      -23.941       -5.781       19.330       12.117       10.730      373.648      146.822      115.137        0.173        0.032       52.853        6.952        0.017      340.466       14.507      861.305
04/11/2014  00:32:00       -6.477      -13.099       -4.476        7.445       11.236        9.960       55.429      126.253       99.204        0.026        0.014       14.613        8.150        0.311      340.643       14.805      861.313
04/11/2014  00:33:00      -58.116      -26.539       -0.128       29.296       14.166       12.673      858.251      200.681      160.598        0.265        0.061       63.888       14.834        0.054      340.469       14.511      861.329
04/11/2014  00:34:00     -102.678      -37.910       -8.838        9.287        8.813        5.410       86.240       77.669       29.272        0.613        0.010      109.452        2.933        0.001      340.340       14.292      861.326
04/11/2014  00:35:00      -82.193      -26.538       -8.718       13.592       15.756        9.627      184.749      248.242       92.675        0.403        0.026       86.371        5.378        0.004      340.514       14.589      861.317
04/11/2014  00:36:00      -77.987      -22.938       -8.097       19.081       22.950       13.204      364.078      526.715      174.343        0.387        0.053       81.290       11.455        0.020      340.563       14.669      861.315
04/11/2014  00:37:00      -81.198      -29.367       -9.303       18.359        9.007        7.401      337.062       81.119       54.774        0.401        0.024       86.345        9.044        0.011      340.438       14.459      861.311
04/11/2014  00:38:00      -40.921      -27.715       -6.107       17.569       15.982       12.036      308.682      255.411      144.876        0.159        0.035       49.423        8.471        0.029      340.300       14.223      861.303
04/11/2014  00:39:00      -28.652      -16.694        0.571       11.180        9.801        8.799      124.994       96.059       77.428        0.070        0.015       33.161        7.916        0.057      340.343       14.298      861.305
04/11/2014  00:40:00      -52.584      -25.064       -3.775       11.212       11.181        7.029      125.718      125.005       49.402        0.185        0.015       58.252        6.308        0.012      340.441       14.464      861.304
04/11/2014  00:41:00      -91.029      -35.863       -8.599       10.496        9.037        8.088      110.167       81.676       65.409        0.495        0.013       97.839        4.415        0.002      340.405       14.401      861.310
04/11/2014  00:42:00     -102.001      -43.319      -10.262       10.272        9.979        8.565      105.521       99.589       73.354        0.633        0.014      110.818        3.654        0.001      340.299       14.221      861.317
04/11/2014  00:43:00      -98.771      -31.610       -6.980       18.094       17.262        9.565      327.376      297.985       91.487        0.576        0.036      103.706        7.619        0.005      340.240       14.123      861.313
04/11/2014  00:44:00     -112.620      -18.701      -15.864       19.375       13.819        9.606      375.407      190.961       92.272        0.697        0.033      114.162        6.745        0.003      340.237       14.118      861.315
04/11/2014  00:45:00      -86.418      -27.934       -4.866       24.768       12.598       11.617      613.473      158.722      134.962        0.459        0.045       90.820       10.054        0.012      340.257       14.153      861.310
04/11/2014  00:46:00      -77.060      -19.010       -6.470       18.769       15.803       10.683      352.272      249.726      114.133        0.353        0.036       79.370        9.989        0.016      340.274       14.182      861.305
04/11/2014  00:47:00      -88.402      -19.054       -7.696       13.628       15.787       11.774      185.724      249.225      138.628        0.441        0.029       90.432        4.891        0.003      340.240       14.124      861.299
04/11/2014  00:48:00      -84.671      -20.696       -8.200       11.812       10.938       10.901      139.532      119.633      118.829        0.402        0.019       87.163        4.742        0.003      340.243       14.130      861.300
04/11/2014  00:49:00     -117.426      -17.539      -14.222       33.306       19.119       11.732     1109.266      365.529      137.630        0.796        0.081      118.728        9.875        0.007      340.175       14.016      861.302
04/11/2014  00:50:00     -128.210       -4.547      -22.406       22.101       19.837       16.745      488.446      393.497      280.407        0.906        0.058      128.290       10.045        0.006      340.196       14.050      861.310
04/11/2014  00:51:00      -82.646      -12.119       -7.107       24.920       14.327       13.783      621.018      205.261      189.961        0.402        0.051       83.530       14.020        0.028      340.024       13.759      861.302
04/11/2014  00:52:00      -67.326      -18.399       -8.878       23.069       13.570       10.395      532.168      184.138      108.055        0.289        0.041       69.795        6.778        0.009      340.147       13.968      861.284
04/11/2014  00:53:00      -77.947      -28.107       -6.268       25.143       16.177       11.861      632.164      261.695      140.677        0.397        0.052       82.860        4.349        0.003      340.153       13.976      861.266
04/11/2014  00:54:00     -150.703      -66.626      -16.603       25.901       23.781       15.851      670.876      565.552      251.269        1.446        0.074      164.774        9.801        0.004      339.888       13.531      861.255
04/11/2014  00:55:00     -120.387      -12.362      -10.151       46.227       23.659       19.921     2136.931      559.768      396.839        0.892        0.155      121.020       23.335        0.037      339.801       13.383      861.247
04/11/2014  00:56:00      -46.143      -35.787        0.188       30.495       20.544       16.222      929.924      422.043      263.142        0.251        0.081       58.395       14.447        0.061      339.877       13.511      861.235
04/11/2014  00:57:00      -68.839      -41.215       -6.681       26.603       21.686       21.925      707.729      470.291      480.724        0.407        0.083       80.234       13.597        0.029      339.954       13.642      861.230
04/11/2014  00:58:00      -51.715      -41.901        1.996       34.796       22.759       16.129     1210.752      517.955      260.157        0.321        0.099       66.560       14.835        0.050      339.884       13.523      861.230
04/11/2014  00:59:00     -111.509      -33.892      -13.825       32.183       18.523       11.393     1035.767      343.119      129.801        0.764        0.075      116.545        9.371        0.006      339.940       13.619      861.232
04/11/2014  01:00:00     -109.022       -3.027      -13.898       19.751       13.547       11.803      390.096      183.523      139.302        0.640        0.036      109.064        9.060        0.007      339.761       13.316      861.232
04/11/2014  01:01:00      -57.007      -20.911       -1.098       27.917       18.059       12.623      779.367      326.135      159.344        0.248        0.063       60.722       14.350        0.056      339.999       13.717      861.220
04/11/2014  01:02:00      -71.247      -19.518      -10.053       30.229       28.016       11.433      913.764      784.898      130.705        0.369        0.091       73.872        6.170        0.007      340.188       14.035      861.220
04/11/2014  01:03:00      -73.777      -18.008       -5.713       32.211       25.632       12.813     1037.527      657.000      164.165        0.383        0.093       75.943        8.433        0.012      340.071       13.837      861.221
04/11/2014  01:04:00      -78.418      -17.971       -1.925       38.943       20.617       17.000     1516.540      425.063      288.989        0.435        0.112       80.451       20.963        0.068      340.169       14.003      861.221
04/11/2014  01:05:00      -75.070      -17.095        0.655       32.114       24.926       16.272     1031.303      621.283      264.789        0.392        0.096       76.992       17.329        0.051      340.060       13.821      861.227
04/11/2014  01:06:00      -99.360       32.560       -9.751       44.605       25.854       19.668     1989.563      668.437      386.827        0.704        0.152      104.559       16.450        0.025      340.201       14.057      861.234
04/11/2014  01:07:00     -111.090       22.282      -13.578       34.321       35.325       23.243     1177.965     1247.851      540.217        0.799        0.148      113.303       19.936        0.031      340.119       13.920      861.221
04/11/2014  01:08:00      -77.868       -3.810       -8.792       50.608       25.032       23.145     2561.158      626.625      535.687        0.494        0.186       77.962       16.082        0.043      340.002       13.720      861.214
04/11/2014  01:09:00      -89.207      -26.399      -10.748       34.741       27.577       17.117     1206.911      760.489      292.994        0.551        0.113       93.031       12.237        0.017      339.974       13.676      861.213
04/11/2014  01:10:00      -83.610      -31.152       -1.903       31.046       22.211       15.795      963.884      493.342      249.477        0.484        0.085       89.225        5.705        0.004      339.891       13.537      861.210
04/11/2014  01:11:00      -89.625      -16.770       -1.196       40.912       22.022       18.488     1673.756      484.958      341.810        0.541        0.125       91.180       22.987        0.064      339.771       13.333      861.210
04/11/2014  01:12:00     -108.347      -22.928      -16.927       32.215       22.174       16.671     1037.801      491.697      277.926        0.718        0.090      110.746       18.160        0.027      339.677       13.174      861.213
04/11/2014  01:13:00     -100.185      -44.374      -15.453       12.774       13.157       10.566      163.185      173.103      111.640        0.635        0.022      109.572        5.906        0.003      339.672       13.167      861.208
04/11/2014  01:14:00      -90.206      -53.007      -10.689       25.427       14.160       10.276      646.540      200.497      105.588        0.601        0.048      104.627        7.538        0.005      339.908       13.565      861.208
04/11/2014  01:15:00      -40.005      -36.359        1.320       34.996       19.583       17.796     1224.701      383.499      316.683        0.242        0.096       54.059       18.785        0.121      339.885       13.524      861.196
04/11/2014  01:16:00      -18.852      -29.736        9.328       30.959       18.311       13.995      958.456      335.296      195.862        0.141        0.074       35.208       12.631        0.129      339.894       13.541      861.190
04/11/2014  01:17:00      -26.004      -34.514        8.839       43.334       29.499       18.356     1877.851      870.220      336.951        0.251        0.154       43.214       24.000        0.308      339.884       13.522      861.197
04/11/2014  01:18:00      -44.875      -42.889        4.162       40.034       29.298       19.955     1602.699      858.398      398.185        0.336        0.143       62.075       17.910        0.083      339.857       13.479      861.198
04/11/2014  01:19:00      -40.589      -90.290        2.626       54.802       49.457       25.054     3003.233     2446.005      627.707        0.794        0.304       98.993       27.688        0.078      339.817       13.410      861.206
04/11/2014  01:20:00      -65.099     -136.359       -4.023       59.854       51.878       30.808     3582.559     2691.290      949.108        1.503        0.361      151.102       28.533        0.036      339.828       13.427      861.211
04/11/2014  01:21:00      -68.330      -90.123       -2.353       43.824       44.170       33.141     1920.570     1951.031     1098.339        0.888        0.248      113.098       26.725        0.056      339.848       13.463      861.213
04/11/2014  01:22:00     -111.770      -84.274        1.119       42.453       32.005       20.930     1802.267     1024.352      438.047        1.143        0.163      139.981       15.090        0.012      339.826       13.425      861.217
04/11/2014  01:23:00      -83.028      -64.166        7.343       43.552       41.646       30.001     1896.735     1734.382      900.060        0.780        0.227      104.933       24.961        0.057      339.787       13.360      861.220
04/11/2014  01:24:00      -98.137      -91.354       -7.396       41.899       28.829       19.992     1755.530      831.125      399.698        1.051        0.149      134.076       15.160        0.013      339.759       13.313      861.217
04/11/2014  01:25:00      -95.434      -35.264       -8.784       19.254       24.704       14.111      370.713      610.291      199.120        0.580        0.059      101.741       10.739        0.011      339.634       13.101      861.211
04/11/2014  01:26:00      -76.607      -25.711        0.161       41.749       35.774       18.862     1743.008     1279.747      355.774        0.495        0.169       80.806       22.403        0.077      339.569       12.991      861.206
04/11/2014  01:27:00      -87.513      -25.423       -1.784       30.550       21.863       12.632      933.305      477.978      159.556        0.494        0.079       91.131        8.010        0.008      339.605       13.051      861.206
04/11/2014  01:28:00      -50.653      -41.425        6.880       39.755       30.275       19.146     1580.431      916.558      366.580        0.360        0.143       65.435       16.745        0.065      339.626       13.088      861.189
04/11/2014  01:29:00      -82.952      -54.361       -7.097       39.977       20.568       25.341     1598.125      423.031      642.162        0.627        0.133       99.177       22.657        0.052      339.643       13.115      861.183
04/11/2014  01:30:00      -88.406      -77.726       -2.015       54.905       45.592       22.834     3014.608     2078.623      521.391        0.974        0.281      117.716       24.116        0.042      339.598       13.040      861.181
04/11/2014  01:31:00      -52.889      -74.039        8.738       41.590       37.236       22.270     1729.765     1386.508      495.954        0.598        0.181       90.989       21.844        0.058      339.570       12.993      861.180
04/11/2014  01:32:00     -104.915      -34.787       -5.657       24.910       20.835       11.620      620.486      434.098      135.029        0.672        0.059      110.532        5.153        0.002      339.538       12.939      861.186
04/11/2014  01:33:00     -101.619      -18.845       -4.024       25.625       25.743       14.586      656.617      662.719      212.750        0.611        0.077      103.351       12.270        0.014      339.439       12.773      861.182
04/11/2014  01:34:00     -120.967      -25.412      -13.770       16.715       33.962       17.737      279.406     1153.397      314.601        0.861        0.087      123.607        9.384        0.006      339.505       12.882      861.178
04/11/2014  01:35:00      -73.200      -37.744        9.096       49.893       28.273       22.675     2489.347      799.366      514.156        0.533        0.190       82.358       21.899        0.071      339.493       12.863      861.173
04/11/2014  01:36:00     -112.515      -76.698       -5.028       30.542       38.227       19.990      932.824     1461.317      399.620        1.068        0.140      136.170       11.627        0.007      339.447       12.786      861.160
04/11/2014  01:37:00     -128.659      -36.324       -2.776       38.053       30.718       22.098     1448.053      943.614      488.315        1.038        0.144      133.688       21.858        0.027      339.369       12.657      861.157
04/11/2014  01:38:00     -111.461      -54.828        0.998       43.272       35.165       23.903     1872.427     1236.610      571.362        0.955        0.184      124.216       24.711        0.040      339.521       12.911      861.148
04/11/2014  01:39:00      -95.870      -46.988       -3.878       31.967       33.755       17.620     1021.887     1139.384      310.448        0.694        0.124      106.766       17.592        0.027      339.499       12.876      861.132
04/11/2014  01:40:00      -67.743      -49.451        2.230       30.361       22.404       18.661      921.784      501.954      348.227        0.441        0.089       83.872       15.217        0.033      339.458       12.805      861.113
04/11/2014  01:41:00     -100.737      -24.046       -7.302       23.959       17.633       14.472      574.031      310.918      209.441        0.594        0.055      103.567       12.001        0.013      339.439       12.772      861.107
04/11/2014  01:42:00     -124.913       -0.313       -8.955       26.420       17.514       15.469      698.039      306.737      239.301        0.846        0.062      124.913       14.799        0.014      339.292       12.525      861.100
04/11/2014  01:43:00     -114.839       -9.644      -13.523       28.473       20.707       16.384      810.686      428.768      268.448        0.749        0.075      115.243       14.886        0.017      339.314       12.562      861.095
04/11/2014  01:44:00      -71.069      -15.169       -1.365       39.015       35.378       21.604     1522.205     1251.635      466.752        0.426        0.162       72.670       19.430        0.071      339.408       12.720      861.076
04/11/2014  01:45:00     -124.183      -29.820       -3.951       32.048       31.095       20.020     1027.072      966.882      400.787        0.936        0.120      127.713       19.553        0.023      339.246       12.447      861.058
04/11/2014  01:46:00     -133.696      -43.009      -10.634       25.791       20.154       14.806      665.176      406.170      219.216        1.056        0.065      140.444        9.542        0.005      339.167       12.314      861.053
04/11/2014  01:47:00     -109.988      -50.038       -0.080       34.664       27.071       20.043     1201.619      732.865      401.727        0.847        0.117      120.835       17.285        0.020      339.149       12.285      861.040
04/11/2014  01:48:00      -81.681      -49.220        8.022       56.291       37.468       26.239     3168.692     1403.858      688.499        0.721        0.263       95.365       21.996        0.053      339.217       12.399      861.021
04/11/2014  01:49:00     -148.103      -61.481        6.184       59.667       38.705       25.874     3560.199     1498.078      669.463        1.574        0.286      160.357       29.079        0.033      339.359       12.637      860.999
04/11/2014  01:50:00     -161.645      -59.439        1.240       77.649       45.349       29.543     6029.391     2056.502      872.780        1.931        0.448      172.226       23.226        0.018      339.450       12.791      860.988
04/11/2014  01:51:00     -135.158      -50.707        4.316       66.627       44.633       30.663     4439.129     1992.078      940.241        1.411        0.369      144.357       32.791        0.052      339.347       12.616      860.988
04/11/2014  01:52:00     -131.596      -16.048       -1.050       49.325       49.249       32.197     2432.911     2425.506     1036.629        1.173        0.295      132.571       27.205        0.042      339.286       12.515      860.984
04/11/2014  01:53:00     -115.032       -4.128       -1.769       56.960       34.187       28.065     3244.432     1168.780      787.644        0.923        0.260      115.106       29.470        0.066      339.013       12.057      860.983
04/11/2014  01:54:00     -113.392       -0.990       -7.865       48.657       43.542       24.385     2367.485     1895.918      594.629        0.889        0.243      113.396       23.545        0.043      339.056       12.127      860.985
04/11/2014  01:55:00     -133.227      -23.746       -3.401       44.628       38.797       22.006     1991.688     1505.211      484.256        1.115        0.199      135.326       19.281        0.020      339.067       12.146      860.982
04/11/2014  01:56:00     -114.913      -48.371        4.155       45.638       38.167       25.882     2082.799     1456.740      669.868        0.988        0.210      124.679       24.841        0.040      339.020       12.068      860.962
04/11/2014  01:57:00     -125.699      -37.951       -5.567       36.010       31.033       20.239     1296.752      963.026      409.622        0.997        0.133      131.303       19.262        0.022      339.039       12.098      860.951
04/11/2014  01:58:00     -127.220        5.386       -7.561       50.962       36.410       26.175     2597.089     1325.676      685.122        1.044        0.230      127.334       26.584        0.044      338.989       12.016      860.948
04/11/2014  01:59:00     -148.322      -23.131       -6.627       44.547       33.819       23.023     1984.478     1143.712      530.069        1.312        0.183      150.115       21.962        0.021      339.033       12.090      860.949
04/11/2014  02:00:00     -118.166      -55.287      -11.681       37.145       33.941       18.388     1379.782     1151.969      338.108        1.001        0.143      130.460       15.223        0.014      338.916       11.892      860.943
04/11/2014  02:01:00      -82.258      -24.079       -3.660       56.836       35.812       26.383     3230.274     1282.517      696.041        0.628        0.260       85.710       29.869        0.121      338.900       11.866      860.944
04/11/2014  02:02:00      -88.496      -10.901       -3.383       49.702       34.853       24.727     2470.330     1214.720      611.404        0.613        0.215       89.165       26.290        0.087      338.989       12.015      860.954
04/11/2014  02:03:00     -137.867       25.483       -8.645       40.629       35.703       24.785     1650.730     1274.719      614.315        1.163        0.177      140.203       11.648        0.007      338.989       12.015      860.953
04/11/2014  02:04:00     -114.353       14.791       -4.124       67.037       35.655       22.503     4494.016     1271.251      506.379        0.979        0.314      115.306       24.877        0.047      339.073       12.157      860.956
04/11/2014  02:05:00      -75.756      -20.225       -1.458       49.752       35.857       23.843     2475.286     1285.745      568.467        0.524        0.216       78.409       23.447        0.089      339.002       12.038      860.956
04/11/2014  02:06:00     -107.296      -14.204       -8.298       35.042       29.732       18.461     1227.958      884.003      340.810        0.712        0.123      108.232       19.860        0.034      339.006       12.044      860.943
04/11/2014  02:07:00      -82.917      -44.510      -10.144       19.905       22.929       16.684      396.220      525.738      278.345        0.508        0.060       94.108        8.000        0.007      338.784       11.673      860.931
04/11/2014  02:08:00      -66.245      -42.142       -2.268       49.418       34.017       18.112     2442.127     1157.183      328.030        0.505        0.196       78.513       18.664        0.057      338.638       11.426      860.935
04/11/2014  02:09:00       10.464      -35.235       15.945       19.612       15.572       14.895      384.626      242.495      221.860        0.123        0.042       36.756       12.193        0.110      338.688       11.510      860.952
04/11/2014  02:10:00       -6.756      -32.448       -2.043       18.124       21.206       13.693      328.480      449.695      187.485        0.103        0.048       33.144       11.406        0.118      338.788       11.678      860.945
04/11/2014  02:11:00      -43.832      -31.147       -1.154       38.750       12.982       13.001     1501.580      168.527      169.037        0.237        0.092       53.771       17.802        0.110      338.834       11.754      860.935
04/11/2014  02:12:00      -97.336      -26.123       -5.741       24.323       23.574       14.197      591.588      555.755      201.542        0.577        0.067      100.780       13.643        0.018      338.701       11.531      860.952
04/11/2014  02:13:00      -46.099       -9.561       -0.591       38.288       30.247       17.900     1465.953      914.871      320.398        0.246        0.135       47.080        9.456        0.040      338.843       11.771      860.943
04/11/2014  02:14:00      -85.885      -49.191       -9.172       12.984       12.355        8.836      168.579      152.654       78.070        0.514        0.020       98.975        7.559        0.006      338.831       11.749      860.924
04/11/2014  02:15:00     -113.140      -37.123      -18.156       10.858       17.437        8.411      117.890      304.060       70.751        0.750        0.025      119.074        6.542        0.003      338.787       11.677      860.907
04/11/2014  02:16:00     -140.754      -15.584      -22.566       13.872       14.805       14.764      192.432      219.181      217.967        1.060        0.031      141.614        8.919        0.004      338.776       11.659      860.916
04/11/2014  02:17:00      -89.019      -10.382      -12.119       62.011       15.154       20.733     3845.412      229.650      429.838        0.634        0.225       89.623       28.748        0.103      338.703       11.536      860.917
04/11/2014  02:18:00      -48.864      -22.995        5.075       39.584       27.587       19.800     1566.859      761.067      392.059        0.283        0.136       54.004       24.260        0.202      338.826       11.740      860.912
04/11/2014  02:19:00      -62.271      -27.413       -8.022       32.639       22.316       12.030     1065.280      497.990      144.729        0.320        0.085       68.038       10.102        0.022      338.843       11.769      860.916
04/11/2014  02:20:00      -83.187      -24.202      -11.229       22.949       18.344       11.742      526.650      336.492      137.883        0.432        0.050       86.637       11.059        0.016      338.887       11.843      860.928
04/11/2014  02:21:00      -90.315      -33.405      -11.918       24.486       21.446       16.269      599.585      459.944      264.684        0.537        0.066       96.294       14.061        0.021      338.642       11.434      860.942
04/11/2014  02:22:00      -72.348      -20.535       -3.066       30.401       26.304       19.995      924.220      691.885      399.802        0.384        0.101       75.206       19.226        0.065      338.639       11.426      860.954
04/11/2014  02:23:00     -104.678      -22.391       -8.007       26.807       19.441       16.001      718.636      377.956      256.017        0.644        0.068      107.046       11.958        0.012      338.736       11.590      860.955
04/11/2014  02:24:00     -130.450      -33.437      -10.464       24.563       22.158       11.773      603.344      490.996      138.599        0.974        0.062      134.667        9.408        0.005      338.672       11.483      860.960
04/11/2014  02:25:00     -141.629      -37.342      -12.043       19.090       22.439       16.044      364.445      503.504      257.402        1.136        0.056      146.469       11.391        0.006      338.648       11.442      860.975
04/11/2014  02:26:00     -140.429      -28.604      -20.093       19.557       16.814       10.087      382.488      282.716      101.757        1.085        0.038      143.313        7.100        0.002      338.650       11.446      860.980
04/11/2014  02:27:00     -142.910      -49.182      -10.811       20.875       20.483       14.617      435.765      419.568      213.645        1.201        0.053      151.136       10.893        0.005      338.646       11.439      860.982
04/11/2014  02:28:00     -165.065      -43.431       -6.511       31.466       21.217       19.540      990.129      450.143      381.804        1.550        0.091      170.683       15.833        0.009      338.497       11.189      860.978
04/11/2014  02:29:00     -148.471      -33.595       -8.889       36.685       29.174       20.661     1345.816      851.139      426.890        1.294        0.131      152.224       19.588        0.017      338.416       11.053      860.979
04/11/2014  02:30:00     -136.223      -43.264       -0.587       39.813       30.898       17.316     1585.062      954.694      299.846        1.163        0.142      142.928       13.984        0.010      338.472       11.146      860.984
04/11/2014  02:31:00     -120.078      -35.318        4.672       55.534       31.637       24.556     3084.062     1000.916      602.987        1.019        0.234      125.164       28.416        0.052      338.554       11.283      860.973
04/11/2014  02:32:00     -138.683      -44.860       -8.044       30.357       35.327       17.546      921.542     1248.016      307.857        1.189        0.124      145.758       12.945        0.008      338.596       11.354      860.961
04/11/2014  02:33:00     -160.025      -47.365       -6.617       40.293       32.229       23.050     1623.508     1038.691      531.287        1.554        0.160      166.887       23.541        0.020      338.456       11.119      860.959
04/11/2014  02:34:00     -162.964      -25.218      -14.718       18.407       18.213       14.097      338.818      331.722      198.715        1.414        0.043      164.903        8.909        0.003      338.334       10.915      860.966
04/11/2014  02:35:00     -125.187      -27.273       -6.625       36.327       23.327       20.119     1319.662      544.142      404.775        0.936        0.113      128.124       21.242        0.027      338.494       11.185      860.954
04/11/2014  02:36:00     -119.249      -25.489       -1.892       31.283       23.270       15.279      978.630      541.502      233.441        0.831        0.088      121.943       14.493        0.014      338.663       11.467      860.932
04/11/2014  02:37:00     -115.508      -19.516       -8.018       34.762       22.527       18.440     1208.389      507.472      340.029        0.792        0.103      117.145       20.264        0.030      338.575       11.320      860.928
04/11/2014  02:38:00     -127.441      -17.761      -10.698       28.481       23.483       19.993      811.143      551.465      399.721        0.922        0.088      128.673       18.483        0.021      338.532       11.246      860.923
04/11/2014  02:39:00     -118.824      -25.749       -4.550       40.280       25.132       18.892     1622.509      631.626      356.903        0.871        0.131      121.582       19.424        0.026      338.544       11.268      860.902
04/11/2014  02:40:00     -105.923      -33.994        2.806       31.889       24.847       18.556     1016.879      617.385      344.340        0.718        0.099      111.244       17.705        0.025      338.547       11.272      860.893
04/11/2014  02:41:00      -98.502      -12.352       -0.662       42.265       22.461       13.213     1786.293      504.497      174.580        0.616        0.123       99.274       17.989        0.033      338.475       11.153      860.897
04/11/2014  02:42:00     -111.329      -27.289      -12.122       20.069       20.904       18.118      402.769      436.983      328.268        0.723        0.058      114.624       12.987        0.013      338.590       11.345      860.895
04/11/2014  02:43:00     -119.460      -31.185      -14.250       19.259       20.247       11.953      370.927      409.925      142.868        0.818        0.046      123.463        9.548        0.006      338.588       11.341      860.885
04/11/2014  02:44:00      -89.718      -20.329       -5.834       32.803       35.353       19.076     1076.033     1249.800      363.893        0.559        0.134       91.993       14.633        0.025      338.608       11.374      860.878
04/11/2014  02:45:00      -25.575      -11.436        6.793       29.632       32.392       17.624      878.056     1049.260      310.619        0.153        0.112       28.016        7.883        0.079      338.536       11.254      860.882
04/11/2014  02:46:00      -43.089      -44.054       -2.501       34.385       23.641       21.288     1182.338      558.908      453.195        0.300        0.110       61.623       18.510        0.090      338.364       10.966      860.884
04/11/2014  02:47:00      -51.499       -0.724      -15.345       12.541       11.873        7.313      157.266      140.963       53.481        0.162        0.018       51.504        4.817        0.009      338.451       11.112      860.869
04/11/2014  02:48:00      -70.853      -31.678       -9.317       22.905       20.180        8.535      524.623      407.238       72.852        0.356        0.050       77.612       11.757        0.023      338.684       11.502      860.856
04/11/2014  02:49:00     -106.473      -39.957       -9.570       14.944       15.548       11.121      223.320      241.725      123.685        0.681        0.029      113.723        8.652        0.006      338.548       11.273      860.868
04/11/2014  02:50:00     -116.499      -25.608      -20.657       40.074       32.611       22.055     1605.949     1063.483      486.421        0.890        0.158      119.280       20.370        0.029      338.455       11.116      860.873
04/11/2014  02:51:00     -150.629      -12.099      -10.195       63.764       39.164       28.679     4065.796     1533.825      822.480        1.468        0.321      151.114       32.399        0.046      338.467       11.137      860.876
04/11/2014  02:52:00     -110.477        1.647        1.460       43.257       35.612       29.821     1871.211     1268.228      889.308        0.812        0.201      110.489       24.856        0.051      338.491       11.180      860.879
04/11/2014  02:53:00     -126.566      -11.522      -14.992       40.166       38.558       27.005     1613.328     1486.696      729.249        1.010        0.191      127.089       20.461        0.026      338.362       10.961      860.893
04/11/2014  02:54:00     -128.512       -1.047       -3.136       80.931       32.340       26.873     6549.866     1045.860      722.168        1.242        0.416      128.516       35.613        0.077      338.037       10.416      860.896
04/11/2014  02:55:00      -89.927      -61.567        0.722       52.169       31.615       21.883     2721.595      999.488      478.848        0.804        0.210      108.984       24.787        0.052      338.117       10.550      860.892
04/11/2014  02:56:00      -49.297      -58.358        5.968       56.858       34.979       22.390     3232.806     1223.564      501.303        0.541        0.248       76.393       31.091        0.166      338.321       10.892      860.881
04/11/2014  02:57:00     -135.617      -99.336        1.160       36.181       38.260       21.173     1309.042     1463.825      448.284        1.574        0.161      168.106       19.255        0.013      338.377       10.987      860.878
04/11/2014  02:58:00     -149.361      -50.011       -2.407       34.746       31.708       26.498     1207.264     1005.383      702.154        1.386        0.146      157.511       22.270        0.020      338.342       10.928      860.876
04/11/2014  02:59:00     -104.045      -60.665        6.915       43.931       40.994       24.242     1929.914     1680.544      587.658        0.937        0.210      120.439       24.493        0.041      338.367       10.970      860.867
04/11/2014  03:00:00     -110.341      -62.032        5.894       43.120       29.770       27.749     1859.310      886.266      770.034        0.979        0.176      126.583       26.129        0.043      338.385       11.001      860.855
04/11/2014  03:01:00      -50.805      -41.576       11.657       38.902       30.231       20.599     1513.327      913.894      424.313        0.365        0.143       65.648       16.990        0.067      338.450       11.110      860.839
04/11/2014  03:02:00      -46.634      -41.150        9.789       39.848       24.193       23.051     1587.876      585.296      531.336        0.333        0.135       62.193       21.911        0.124      338.514       11.217      860.836
04/11/2014  03:03:00      -51.992      -63.564        6.094       49.307       48.295       27.042     2431.142     2332.431      731.251        0.614        0.275       82.119       31.004        0.143      338.544       11.268      860.818
04/11/2014  03:04:00     -100.647      -73.222        1.657       53.275       33.845       24.774     2838.190     1145.483      613.730        1.004        0.230      124.464       23.171        0.035      338.526       11.238      860.809
04/11/2014  03:05:00      -94.888      -60.997        9.965       47.467       37.439       27.221     2253.137     1401.700      740.991        0.861        0.220      112.802       20.202        0.032      338.574       11.319      860.804
04/11/2014  03:06:00     -100.124      -60.414        0.162       44.582       31.803       19.440     1987.592     1011.429      377.911        0.853        0.169      116.939       18.430        0.025      338.551       11.277      860.812
04/11/2014  03:07:00      -92.096      -61.591       -3.224       56.163       29.172       19.366     3154.302      851.017      375.061        0.833        0.219      110.793       22.477        0.041      338.508       11.208      860.824
04/11/2014  03:08:00      -92.905      -82.533       -5.382       27.239       40.956       16.231      741.963     1677.392      263.461        0.908        0.134      124.270       12.028        0.009      338.433       11.082      860.818
04/11/2014  03:09:00      -56.572      -64.691        3.889       42.021       38.668       24.540     1765.762     1495.188      602.210        0.563        0.193       85.938       27.217        0.100      338.403       11.030      860.810
04/11/2014  03:10:00      -55.810      -52.496        3.721       45.378       30.643       19.517     2059.193      938.987      380.925        0.463        0.169       76.620       21.271        0.077      338.437       11.088      860.814
04/11/2014  03:11:00      -71.759      -49.222        4.247       49.523       36.079       21.150     2452.507     1301.672      447.338        0.589        0.210       87.018       26.685        0.094      338.537       11.256      860.820
04/11/2014  03:12:00      -30.529      -41.415        3.055       36.973       27.968       16.655     1366.994      782.233      277.386        0.254        0.121       51.451       18.018        0.123      338.520       11.227      860.824
04/11/2014  03:13:00      -66.244      -56.874       -5.955       33.644       39.824       24.804     1131.919     1585.988      615.227        0.550        0.167       87.310       15.157        0.030      338.532       11.248      860.834
04/11/2014  03:14:00      -71.619      -40.190        8.427       27.955       38.330       26.559      781.460     1469.167      705.407        0.489        0.148       82.124       24.584        0.090      338.460       11.126      860.842
04/11/2014  03:15:00      -67.113      -23.321       -4.277       43.708       30.838       17.014     1910.426      950.988      289.484        0.411        0.158       71.049       11.660        0.027      338.435       11.085      860.846
04/11/2014  03:16:00      -48.862        0.100        2.697       31.368       31.036       18.584      983.938      963.250      345.355        0.234        0.115       48.862       16.472        0.114      338.414       11.049      860.842
04/11/2014  03:17:00      -71.774      -27.626       -5.126       26.428       29.078       12.593      698.440      845.541      158.589        0.382        0.085       76.907        9.463        0.015      338.391       11.010      860.837
04/11/2014  03:18:00      -95.002      -26.556       -5.540       24.294       17.830       10.082      590.203      317.923      101.641        0.539        0.050       98.644        6.550        0.004      338.192       10.676      860.832
04/11/2014  03:19:00      -74.087      -57.476       -3.925       34.198       26.483       11.638     1169.529      701.327      135.438        0.541        0.100       93.768       14.439        0.024      338.189       10.672      860.833
04/11/2014  03:20:00      -70.419      -62.424       -2.054       35.413       31.028       19.797     1254.100      962.754      391.938        0.573        0.130       94.104       18.694        0.039      338.176       10.649      860.837
04/11/2014  03:21:00      -48.108      -61.908       -7.129       27.384       22.222       16.759      749.881      493.809      280.848        0.386        0.076       78.403       12.124        0.024      338.292       10.844      860.830
04/11/2014  03:22:00      -27.999      -58.212       -8.978       24.071       31.842       15.979      579.413     1013.883      255.315        0.305        0.092       64.596       17.498        0.073      338.304       10.864      860.825
04/11/2014  03:23:00      -46.461      -66.795       -9.441       24.226       20.435       11.875      586.908      417.575      141.026        0.393        0.057       81.364       10.546        0.017      338.376       10.985      860.811
04/11/2014  03:24:00      -41.874      -31.958        3.035       41.615       23.657       20.149     1731.789      559.671      405.993        0.274        0.135       52.676       24.736        0.221      338.353       10.948      860.813
04/11/2014  03:25:00      -55.702      -33.173        1.486       37.238       21.490       13.226     1386.688      461.816      174.924        0.311        0.101       64.832        9.364        0.021      338.262       10.793      860.816
04/11/2014  03:26:00      -23.582      -49.578        6.865       25.579       25.426       20.118      654.296      646.463      404.740        0.238        0.085       54.901       20.532        0.140      338.224       10.730      860.812
04/11/2014  03:27:00      -37.145      -52.343        5.181       26.905       20.767       16.999      723.872      431.264      288.977        0.279        0.072       64.183       13.105        0.042      338.251       10.775      860.803
04/11/2014  03:28:00      -47.192      -37.048        5.956       42.137       19.950       15.975     1775.549      398.022      255.211        0.303        0.121       59.997       13.966        0.054      338.164       10.629      860.792
04/11/2014  03:29:00      -54.016      -40.301        3.893       38.456       19.785       18.716     1478.827      391.445      350.275        0.339        0.111       67.393       18.147        0.073      338.072       10.476      860.784
04/11/2014  03:30:00      -72.812      -30.773       -2.403       31.231       20.308       14.671      975.352      412.396      215.239        0.393        0.080       79.048       15.903        0.040      338.019       10.386      860.780
04/11/2014  03:31:00      -87.675      -41.511       -3.033       17.772       17.699       16.171      315.847      313.260      261.511        0.515        0.045       97.006       11.201        0.013      337.983       10.326      860.765
04/11/2014  03:32:00      -82.490      -39.984        7.588       42.198       25.403       20.057     1780.654      645.313      402.281        0.564        0.141       91.670       23.241        0.064      338.029       10.403      860.752
04/11/2014  03:33:00      -90.426      -33.533       -7.943       29.804       35.107       15.424      888.258     1232.478      237.887        0.586        0.118       96.444       18.270        0.036      337.972       10.308      860.745
04/11/2014  03:34:00      -83.203      -48.042       -5.053       37.462       25.155       18.763     1403.406      632.755      352.035        0.582        0.119       96.077       20.278        0.045      338.027       10.397      860.742
04/11/2014  03:35:00      -36.816      -36.891       11.187       33.173       30.896       21.418     1100.452      954.587      458.722        0.268        0.126       52.119       20.604        0.156      338.100       10.522      860.730
04/11/2014  03:36:00      -81.862      -66.261       -6.078       30.959       22.867       20.161      958.435      522.911      406.457        0.651        0.094      105.318       16.453        0.024      338.130       10.573      860.718
04/11/2014  03:37:00      -44.914      -46.062        7.846       44.052       33.128       22.680     1940.606     1097.440      514.398        0.388        0.178       64.335       21.103        0.108      338.090       10.504      860.718
04/11/2014  03:38:00      -28.777      -41.755       13.445       34.903       29.598       21.529     1218.204      876.040      463.487        0.265        0.128       50.711       22.462        0.196      338.017       10.384      860.715
04/11/2014  03:39:00      -80.626      -77.309       -5.596       23.875       26.438       17.349      570.007      698.980      300.984        0.704        0.078      111.701       14.337        0.016      338.102       10.527      860.726
04/11/2014  03:40:00      -22.860      -31.628       10.557       45.994       23.832       17.557     2115.478      567.941      308.245        0.231        0.150       39.025       18.391        0.222      338.130       10.574      860.737
04/11/2014  03:41:00      -21.817      -41.833        6.628       29.643       33.572       16.116      878.713     1127.099      259.722        0.227        0.113       47.180       16.474        0.122      338.130       10.572      860.745
04/11/2014  03:42:00      -38.521      -27.917        9.136       31.768       27.705       19.084     1009.179      767.579      364.208        0.224        0.107       47.573       19.624        0.170      338.042       10.425      860.742
04/11/2014  03:43:00      -99.742      -48.904       -3.644       41.068       28.392       15.860     1686.576      806.084      251.540        0.755        0.137      111.086       14.983        0.018      337.981       10.323      860.748
04/11/2014  03:44:00     -123.018      -45.414        3.571       38.617       27.182       17.541     1491.244      738.856      307.691        0.987        0.127      131.133       17.191        0.017      337.940       10.253      860.752
04/11/2014  03:45:00      -87.655      -51.176        5.887       55.715       34.983       26.282     3104.166     1223.818      690.732        0.768        0.251      101.501       28.599        0.079      337.978       10.318      860.756
04/11/2014  03:46:00      -82.955      -53.391        1.162       47.442       31.403       22.538     2250.722      986.172      507.951        0.674        0.187       98.652       23.656        0.057      337.984       10.328      860.749
04/11/2014  03:47:00     -113.483      -68.305       -0.058       36.045       27.589       21.606     1299.214      761.167      466.825        1.004        0.126      132.454       21.619        0.027      338.004       10.361      860.736
04/11/2014  03:48:00     -130.488      -47.601       -4.261       27.450       25.700       16.367      753.516      660.466      267.872        1.050        0.084      138.900       13.901        0.010      337.973       10.309      860.727
04/11/2014  03:49:00      -84.865      -40.909        5.159       43.947       35.054       23.880     1931.375     1228.816      570.231        0.632        0.187       94.210       24.756        0.069      337.922       10.222      860.722
04/11/2014  03:50:00      -81.831      -52.224       -0.585       44.454       28.523       19.102     1976.153      813.576      364.880        0.629        0.158       97.076       16.607        0.029      338.042       10.425      860.712
04/11/2014  03:51:00      -95.318      -64.287        2.300       51.271       34.828       20.663     2628.724     1212.958      426.972        0.875        0.213      114.971       24.027        0.044      337.985       10.328      860.696
04/11/2014  03:52:00     -105.043      -71.229        2.391       48.011       27.013       25.948     2305.096      729.702      673.314        0.991        0.185      126.915       23.845        0.035      337.918       10.217      860.685
04/11/2014  03:53:00      -69.454      -67.927        5.295       52.810       44.587       27.680     2788.898     1988.015      766.163        0.750        0.277       97.149       29.032        0.089      337.965       10.295      860.673
04/11/2014  03:54:00     -124.143      -80.473        5.887       66.144       36.024       33.708     4375.058     1297.727     1136.215        1.436        0.340      147.944       39.329        0.071      337.945       10.262      860.683
04/11/2014  03:55:00     -137.469      -98.332        5.942       54.884       43.562       38.532     3012.262     1897.617     1484.711        1.750        0.320      169.017       36.030        0.045      337.897       10.181      860.683
04/11/2014  03:56:00     -124.978      -94.697       -0.500       64.090       50.724       32.004     4107.499     2572.971     1024.272        1.614        0.385      156.802       30.496        0.038      337.936       10.245      860.679
04/11/2014  03:57:00     -124.957      -66.287       -0.211       56.113       35.108       24.644     3148.657     1232.569      607.338        1.250        0.249      141.451       23.050        0.027      337.899       10.184      860.672
04/11/2014  03:58:00     -125.011      -41.241       -0.944       51.114       52.038       24.740     2612.650     2707.929      612.052        1.163        0.297      131.638       20.410        0.024      337.912       10.205      860.673
04/11/2014  03:59:00     -115.962      -57.610        1.741       47.361       56.740       26.826     2243.102     3219.401      719.646        1.147        0.309      129.484       26.329        0.041      337.871       10.138      860.665
04/11/2014  04:00:00     -130.497      -72.613       -6.041       51.405       33.944       22.692     2642.437     1152.216      514.905        1.332        0.215      149.339       23.638        0.025      337.921       10.221      860.650
04/11/2014  04:01:00     -139.703      -81.638        0.882       55.108       39.090       24.482     3036.839     1528.007      599.385        1.567        0.258      161.808       27.516        0.029      337.895       10.176      860.642
04/11/2014  04:02:00     -144.973      -62.247       -6.078       40.614       44.031       26.343     1649.488     1938.685      693.931        1.460        0.214      157.771       20.987        0.018      337.909       10.201      860.633
04/11/2014  04:03:00     -112.750      -61.028       -4.632       48.804       36.651       21.204     2381.845     1343.324      449.589        1.032        0.209      128.207       19.466        0.023      337.976       10.315      860.635
04/11/2014  04:04:00     -136.788      -88.032       -5.606       36.389       34.508       21.286     1324.150     1190.806      453.109        1.473        0.148      162.667       19.465        0.014      337.934       10.244      860.633
04/11/2014  04:05:00     -107.136      -57.198       -1.021       50.693       39.214       21.037     2569.744     1537.720      442.554        0.965        0.228      121.448       26.181        0.046      337.938       10.250      860.631
04/11/2014  04:06:00     -104.379      -36.771       -4.616       33.743       20.432       20.756     1138.577      417.486      430.807        0.713        0.099      110.666       22.854        0.043      337.918       10.216      860.635
04/11/2014  04:07:00     -125.021      -41.802       -8.803       21.470       23.060       14.855      460.977      531.757      220.666        0.933        0.061      131.824        9.946        0.006      337.910       10.201      860.628
04/11/2014  04:08:00     -135.136      -57.873       -5.971       34.849       20.757       18.049     1214.431      430.852      325.752        1.181        0.099      147.006       16.973        0.013      337.834       10.075      860.621
04/11/2014  04:09:00     -127.718      -67.859       -6.578       19.230       20.610       14.604      369.807      424.759      213.281        1.098        0.050      144.626        8.056        0.003      337.766        9.962      860.605
04/11/2014  04:10:00     -108.002      -66.953       -4.422       27.765       26.512       22.876      770.888      702.874      523.299        0.908        0.100      127.072        8.621        0.005      337.707        9.862      860.606
04/11/2014  04:11:00     -128.931      -65.247      -13.363       20.168       24.926       14.962      406.742      621.315      223.866        1.116        0.063      144.501       11.552        0.006      337.676        9.810      860.605
04/11/2014  04:12:00     -109.637      -35.793      -11.013       23.369       19.991       13.433      546.122      399.658      180.445        0.727        0.056      115.331        9.988        0.007      337.699        9.850      860.594
04/11/2014  04:13:00      -83.522      -60.682        0.497       59.754       28.856       23.145     3570.574      832.686      535.678        0.780        0.247      103.239       26.144        0.064      337.742        9.921      860.599
04/11/2014  04:14:00      -51.446      -48.872        9.450       44.299       36.028       26.643     1962.401     1298.009      709.856        0.455        0.199       70.959       24.548        0.120      337.774        9.975      860.611
04/11/2014  04:15:00      -89.249      -77.406        2.960       52.471       40.338       28.745     2753.209     1627.169      826.285        0.959        0.260      118.140       32.725        0.077      337.875       10.144      860.615
04/11/2014  04:16:00      -97.581      -86.643        7.221       54.954       55.046       35.377     3019.890     3030.082     1251.523        1.219        0.365      130.495       37.632        0.083      337.893       10.174      860.606
04/11/2014  04:17:00     -136.719      -84.246        4.243       60.382       43.685       30.305     3645.948     1908.382      918.382        1.614        0.324      160.591       32.692        0.041      337.904       10.193      860.614
04/11/2014  04:18:00     -125.643      -79.827        3.287       65.464       40.720       29.510     4285.592     1658.100      870.866        1.449        0.341      148.857       32.144        0.047      337.911       10.204      860.614
04/11/2014  04:19:00     -115.514      -78.261        3.958       50.574       40.965       22.192     2557.739     1678.163      492.494        1.211        0.236      139.529       22.511        0.026      337.921       10.221      860.606
04/11/2014  04:20:00      -89.091      -64.303        2.848       54.167       30.625       23.268     2934.075      937.891      541.379        0.825        0.221      109.873       23.435        0.045      337.982       10.322      860.609
04/11/2014  04:21:00     -121.793      -68.451       -4.601       25.700       18.031       18.113      660.497      325.127      328.073        1.043        0.066      139.711       15.632        0.013      337.977       10.316      860.612
04/11/2014  04:22:00      -75.597      -65.914       -0.755       40.061       27.089       18.036     1604.906      733.829      325.310        0.636        0.133      100.297       11.885        0.014      337.978       10.319      860.609
04/11/2014  04:23:00      -79.122      -49.819        1.232       32.257       25.358       20.175     1040.545      643.005      407.050        0.542        0.105       93.500       14.531        0.024      338.005       10.362      860.613
04/11/2014  04:24:00      -39.866      -28.358        3.258       33.351       25.972       17.000     1112.265      674.570      288.994        0.224        0.104       48.923       19.046        0.152      338.031       10.406      860.611
04/11/2014  04:25:00      -88.450      -22.679       -2.241       27.045       23.013       16.432      731.456      529.616      270.004        0.494        0.077       91.311       14.454        0.025      337.954       10.276      860.619
04/11/2014  04:26:00      -98.713      -33.229        4.473       29.053       25.733       16.362      844.078      662.165      267.726        0.632        0.089      104.156       13.849        0.018      337.975       10.312      860.615
04/11/2014  04:27:00      -70.283      -27.373       -1.993       35.023       19.961       15.428     1226.578      398.425      238.017        0.378        0.093       75.426       17.349        0.053      337.890       10.170      860.617
04/11/2014  04:28:00      -98.523      -22.585       -9.193       14.345       17.994       13.944      205.775      323.781      194.421        0.551        0.036      101.078        9.662        0.009      337.878       10.150      860.619
04/11/2014  04:29:00      -79.060      -20.927       -9.312       18.771       12.262       12.992      352.346      150.348      168.788        0.372        0.034       81.783        6.733        0.007      337.899       10.184      860.608
04/11/2014  04:30:00      -70.419      -28.422       -4.541       13.268       11.457        8.481      176.037      131.259       71.933        0.308        0.019       75.939        4.464        0.003      337.915       10.212      860.610
04/11/2014  04:31:00      -75.793      -26.949       -9.985       11.176       15.052        8.805      124.897      226.568       77.527        0.350        0.021       80.442        3.105        0.001      337.846       10.096      860.614
04/11/2014  04:32:00      -70.098      -13.180      -12.557       18.166        9.853       10.471      330.011       97.075      109.645        0.289        0.027       71.326        6.781        0.009      337.833       10.075      860.618
04/11/2014  04:33:00      -63.133      -26.256      -11.820       11.169       14.053        8.984      124.737      197.481       80.712        0.261        0.020       68.375        4.098        0.004      337.833       10.074      860.616
04/11/2014  04:34:00      -41.445      -29.240        0.318       23.635       16.966       10.752      558.635      287.829      115.616        0.177        0.048       50.722       13.037        0.066      337.878       10.149      860.630
04/11/2014  04:35:00      -78.273      -35.842       -4.016       21.702       13.169       11.301      470.966      173.434      127.714        0.410        0.039       86.089        8.799        0.010      337.885       10.162      860.637
04/11/2014  04:36:00      -46.511      -33.780        0.265       39.451       21.149       15.715     1556.364      447.293      246.963        0.278        0.113       57.484       15.430        0.072      337.822       10.057      860.647
04/11/2014  04:37:00      -12.871      -28.615        4.561       18.994       18.353       14.783      360.773      336.842      218.530        0.096        0.046       31.377       13.149        0.176      337.876       10.146      860.659
04/11/2014  04:38:00      -14.162      -19.192        1.498       18.870       12.893       12.449      356.068      166.233      154.970        0.062        0.034       23.852        7.972        0.112      338.028       10.400      860.666
04/11/2014  04:39:00      -41.371       -9.862        1.300       18.789       10.807       11.244      353.018      116.792      126.427        0.120        0.030       42.530        9.985        0.055      338.037       10.416      860.676
04/11/2014  04:40:00      -51.523      -27.809       -0.890       21.602       20.284       12.434      466.658      411.427      154.611        0.223        0.052       58.548       13.557        0.054      338.006       10.365      860.682
04/11/2014  04:41:00      -18.779      -34.336        2.762       37.866       29.750       18.245     1433.799      885.087      332.892        0.209        0.133       39.136       16.973        0.188      337.943       10.258      860.678
04/11/2014  04:42:00      -22.830      -17.877        3.538       20.272       24.974       13.395      410.956      623.695      179.415        0.103        0.061       28.997       10.512        0.131      337.902       10.190      860.666
04/11/2014  04:43:00      -61.879      -31.065        0.643       23.715       25.655       14.470      562.401      658.167      209.385        0.311        0.071       69.239        6.275        0.008      337.991       10.340      860.657
04/11/2014  04:44:00      -54.767      -43.655       -2.439       26.792       23.676       12.566      717.822      560.535      157.892        0.317        0.072       70.037        9.492        0.018      338.015       10.380      860.661
04/11/2014  04:45:00      -32.035      -22.332        6.406       32.049       20.147       20.477     1027.170      405.911      419.318        0.171        0.093       39.051       20.021        0.263      337.889       10.169      860.654
04/11/2014  04:46:00      -58.172      -46.027        4.112       34.270       20.011       16.532     1174.417      400.456      273.292        0.368        0.092       74.179       16.701        0.051      337.860       10.119      860.645
04/11/2014  04:47:00      -74.593      -47.952       -4.093       19.206       21.230       13.140      368.878      450.694      172.669        0.444        0.050       88.677        8.085        0.008      337.897       10.181      860.635
04/11/2014  04:48:00      -50.064      -24.794       -0.541       19.725       24.439       18.164      389.066      597.253      329.922        0.222        0.066       55.867       14.139        0.064      337.905       10.194      860.625
04/11/2014  04:49:00      -49.836       -3.874       -1.784       10.544        9.946        9.675      111.179       98.913       93.601        0.140        0.015       49.986        4.782        0.009      337.986       10.333      860.629
04/11/2014  04:50:00      -62.878      -32.272       -0.417       17.647       20.079       12.904      311.431      403.156      166.515        0.294        0.044       70.676        6.254        0.008      337.919       10.218      860.621
04/11/2014  04:51:00      -53.595      -52.685        2.386       32.837       34.895       20.595     1078.278     1217.680      424.158        0.419        0.136       75.154       15.196        0.041      337.876       10.145      860.608
04/11/2014  04:52:00      -34.950      -40.369        1.400       40.549       28.530       19.041     1644.212      813.945      362.560        0.284        0.141       53.396       11.696        0.048      337.810       10.036      860.596
04/11/2014  04:53:00      -27.939      -32.340        1.039       28.983       29.910       19.371      840.011      894.592      375.238        0.197        0.105       42.737       13.122        0.094      337.832       10.071      860.585
04/11/2014  04:54:00      -63.853      -62.667        8.098       39.219       34.396       23.262     1538.169     1183.101      541.110        0.567        0.163       89.467       17.509        0.038      337.778        9.981      860.575
04/11/2014  04:55:00      -15.646      -58.331       17.092       64.787       45.950       32.116     4197.299     2111.438     1031.430        0.564        0.367       60.393       24.712        0.167      337.691        9.835      860.569
04/11/2014  04:56:00      -27.653      -51.075       14.757       57.272       44.388       31.965     3280.124     1970.310     1021.748        0.493        0.314       58.080       29.670        0.261      337.743        9.921      860.561
04/11/2014  04:57:00      -91.499      -59.517        9.251       76.398       39.706       31.936     5836.597     1576.554     1019.898        1.021        0.422      109.153       35.742        0.107      337.627        9.729      860.548
04/11/2014  04:58:00     -150.512     -120.394       -6.384       41.637       38.445       23.286     1733.657     1478.016      542.246        2.047        0.188      192.740       19.948        0.011      337.563        9.621      860.541
04/11/2014  04:59:00     -137.479      -92.779       -0.257       52.793       33.782       27.619     2787.078     1141.209      762.797        1.610        0.235      165.856       25.008        0.023      337.564        9.624      860.548
04/11/2014  05:00:00     -131.705     -112.165       -2.259       47.051       32.280       29.978     2213.783     1042.027      898.670        1.704        0.208      172.995       23.004        0.018      337.573        9.637      860.557
04/11/2014  05:01:00     -114.486     -101.932       -0.557       59.874       52.513       28.950     3584.917     2757.626      838.118        1.534        0.359      153.288       36.425        0.056      337.584        9.656      860.568
04/11/2014  05:02:00     -104.008      -90.029        1.722       55.741       43.787       29.057     3107.030     1917.340      844.333        1.240        0.293      137.561       29.249        0.045      337.557        9.610      860.577
04/11/2014  05:03:00     -124.262      -63.132        3.115       49.821       44.392       28.841     2482.109     1970.615      831.821        1.236        0.264      139.379       25.015        0.032      337.577        9.643      860.584
04/11/2014  05:04:00     -105.138      -88.482        7.126       59.978       42.303       25.601     3597.381     1789.504      655.419        1.249        0.302      137.415       22.973        0.028      337.545        9.590      860.594
04/11/2014  05:05:00     -122.208      -79.413       -3.090       59.603       40.269       24.839     3552.512     1621.623      616.965        1.352        0.290      145.744       25.176        0.030      337.476        9.477      860.597
04/11/2014  05:06:00     -116.805     -116.374       -4.304       43.677       27.734       26.960     1907.705      769.191      726.830        1.530        0.170      164.883       19.721        0.014      337.501        9.518      860.613
04/11/2014  05:07:00      -94.427      -92.052       -8.956       51.620       29.905       21.971     2664.617      894.297      482.718        1.076        0.202      131.871       23.808        0.033      337.531        9.568      860.624
04/11/2014  05:08:00      -53.578      -62.915        8.299       48.556       47.239       32.055     2357.655     2231.486     1027.524        0.626        0.281       82.637       29.721        0.129      337.482        9.485      860.626
04/11/2014  05:09:00      -94.692      -90.969       -3.355       45.478       34.102       26.840     2068.272     1162.928      720.377        1.060        0.198      131.308       29.124        0.049      337.380        9.316      860.619
04/11/2014  05:10:00     -127.926     -106.363       -4.788       23.067       36.694       22.434      532.082     1346.433      503.262        1.504        0.119      166.367       16.486        0.010      337.383        9.319      860.621
04/11/2014  05:11:00     -114.455     -113.259       -4.636       29.370       37.474       24.076      862.595     1404.310      579.635        1.440        0.142      161.021       16.392        0.010      337.322        9.218      860.624
04/11/2014  05:12:00     -127.278     -108.373      -14.353       52.817       37.849       20.901     2789.648     1432.534      436.868        1.640        0.233      167.165       18.011        0.012      337.267        9.126      860.615
04/11/2014  05:13:00     -142.866     -131.500      -11.196       39.537       39.168       20.936     1563.164     1534.141      438.322        2.068        0.177      194.173       14.956        0.006      337.175        8.970      860.609
04/11/2014  05:14:00     -135.649     -106.677       -7.319       52.393       45.743       27.246     2745.041     2092.455      742.339        1.771        0.279      172.571       25.185        0.021      337.148        8.928      860.615
04/11/2014  05:15:00     -150.018     -106.666      -10.183       31.833       47.062       26.025     1013.347     2214.804      677.291        1.895        0.195      184.073       24.263        0.017      337.201        9.014      860.613
04/11/2014  05:16:00     -148.770     -103.253      -16.410       42.537       28.329       27.806     1809.416      802.525      773.186        1.822        0.169      181.090       26.455        0.021      337.181        8.982      860.606
04/11/2014  05:17:00     -108.092      -97.134       -6.554       45.625       33.363       23.961     2081.619     1113.100      574.111        1.246        0.188      145.324       25.509        0.031      337.237        9.076      860.621
04/11/2014  05:18:00     -104.312     -100.804       -4.034       41.406       45.303       27.915     1714.448     2052.319      779.243        1.280        0.227      145.060       24.953        0.030      337.271        9.132      860.619
04/11/2014  05:19:00      -98.063      -59.159       -6.609       24.428       27.245       17.355      596.718      742.278      301.194        0.740        0.082      114.526       10.319        0.008      337.326        9.224      860.619
04/11/2014  05:20:00      -62.755      -58.466        3.337       40.980       24.791       20.443     1679.351      614.598      417.933        0.504        0.136       85.770       19.210        0.050      337.388        9.328      860.629
04/11/2014  05:21:00      -67.479      -60.486        1.322       32.211       23.657       23.196     1037.544      559.647      538.055        0.517        0.107       90.620       23.492        0.067      337.380        9.314      860.631
04/11/2014  05:22:00     -105.247      -91.221       -3.558       32.227       34.081       25.510     1038.590     1161.544      650.754        1.113        0.143      139.277       20.515        0.022      337.331        9.233      860.614
04/11/2014  05:23:00     -102.115     -128.986        1.432       49.483       36.353       28.201     2448.552     1321.563      795.311        1.582        0.228      164.514       25.597        0.024      337.282        9.150      860.631
04/11/2014  05:24:00     -112.969     -106.096       -6.362       41.499       47.437       23.762     1722.184     2250.239      564.634        1.430        0.227      154.979       20.439        0.017      337.259        9.114      860.637
04/11/2014  05:25:00     -152.575     -143.262      -15.922       45.455       43.919       30.179     2066.182     1928.887      910.786        2.448        0.245      209.292       23.974        0.013      337.199        9.009      860.644
04/11/2014  05:26:00     -152.894     -103.954        2.115       45.571       40.672       27.393     2076.700     1654.194      750.396        1.933        0.224      184.886       17.574        0.009      337.255        9.105      860.646
04/11/2014  05:27:00      -79.287      -91.142        5.075       47.954       34.951       28.524     2299.624     1221.604      813.623        0.948        0.217      120.803       31.290        0.067      337.273        9.137      860.640
04/11/2014  05:28:00      -80.131      -79.689        0.045       42.641       41.384       28.629     1818.216     1712.661      819.616        0.856        0.218      113.010       27.945        0.061      337.264        9.121      860.650
04/11/2014  05:29:00      -92.974     -109.122       -6.441       41.931       39.839       25.080     1758.249     1587.178      629.029        1.228        0.199      143.359       27.932        0.038      337.235        9.073      860.645
04/11/2014  05:30:00      -78.354      -78.452        1.095       40.541       36.264       25.209     1643.575     1315.109      635.486        0.794        0.180      110.879       23.126        0.044      337.252        9.103      860.645
04/11/2014  05:31:00      -78.728      -82.335       -7.027       36.603       30.732       18.586     1339.784      944.452      345.423        0.783        0.131      113.918       15.985        0.020      337.311        9.200      860.671
04/11/2014  05:32:00      -62.357      -68.103       -2.875       30.050       29.896       20.157      903.017      893.790      406.314        0.537        0.110       92.338       12.645        0.019      337.275        9.140      860.667
04/11/2014  05:33:00      -80.573      -71.174      -11.002       21.062       21.782       17.075      443.626      474.473      291.572        0.644        0.060      107.507       10.661        0.010      337.263        9.121      860.669
04/11/2014  05:34:00      -83.974      -63.903       -5.268       19.603       34.808        9.314      384.261     1211.565       86.753        0.642        0.084      105.523        5.631        0.003      337.220        9.048      860.692
04/11/2014  05:35:00      -59.467      -39.815        1.974       42.675       27.071       20.018     1821.166      732.844      400.707        0.404        0.148       71.565       23.629        0.109      337.181        8.981      860.694
04/11/2014  05:36:00      -73.657      -37.053       -3.653       35.915       38.159       17.047     1289.897     1456.080      290.598        0.492        0.152       82.452       13.806        0.028      337.103        8.849      860.722
04/11/2014  05:37:00      -62.026      -39.336        0.808       24.668       22.126       15.877      608.495      489.550      252.083        0.337        0.068       73.448       15.883        0.047      337.111        8.863      860.730
04/11/2014  05:38:00      -23.879      -19.994        7.077       28.507       15.246       11.601      812.627      232.440      134.592        0.110        0.059       31.145       11.065        0.126      337.176        8.973      860.739
04/11/2014  05:39:00      -60.141      -58.776        1.446       27.905       30.873       18.584      778.666      953.112      345.379        0.458        0.104       84.093       17.680        0.044      337.185        8.988      860.750
04/11/2014  05:40:00      -53.967      -93.111       -1.192       40.591       27.620       20.856     1647.602      762.886      434.990        0.721        0.142      107.620       19.037        0.031      337.264        9.119      860.753
04/11/2014  05:41:00      -59.949      -72.122        5.676       38.804       30.034       19.053     1505.760      902.065      363.008        0.580        0.139       93.784       20.713        0.049      337.235        9.073      860.753
04/11/2014  05:42:00      -59.398     -107.754       12.249       42.949       43.472       27.848     1844.588     1889.778      775.520        0.990        0.225      123.041       27.822        0.051      337.261        9.116      860.751
04/11/2014  05:43:00      -73.551      -84.448       -1.246       51.311       40.165       23.840     2632.771     1613.267      568.337        0.868        0.241      111.988       15.834        0.020      337.250        9.097      860.762
04/11/2014  05:44:00      -83.078      -70.516       11.398       81.199       43.316       36.597     6593.339     1876.312     1339.308        1.090        0.490      108.970       41.840        0.147      337.291        9.166      860.762
04/11/2014  05:45:00     -118.848     -103.726       -1.800       60.391       54.712       33.529     3647.082     2993.388     1124.173        1.632        0.388      157.747       36.855        0.055      337.241        9.082      860.759
04/11/2014  05:46:00      -89.458      -69.185        6.630       40.382       59.290       28.527     1630.679     3515.335      813.801        0.940        0.298      113.090       24.575        0.047      337.257        9.108      860.754
04/11/2014  05:47:00      -95.040     -103.795       -0.979       46.132       52.689       29.847     2128.137     2776.138      890.869        1.280        0.290      140.734       24.386        0.030      337.335        9.239      860.760
04/11/2014  05:48:00      -81.464      -70.374       -6.687       37.842       45.489       23.822     1431.996     2069.284      567.500        0.785        0.203      107.652       18.981        0.031      337.346        9.257      860.753
04/11/2014  05:49:00      -50.484      -45.426        9.425       60.203       35.328       24.631     3624.416     1248.088      606.708        0.509        0.274       67.913       29.838        0.193      337.309        9.197      860.739
04/11/2014  05:50:00      -82.147      -57.555       -0.098       43.075       27.053       22.879     1855.460      731.881      523.433        0.659        0.156      100.303       20.216        0.041      337.295        9.174      860.743
04/11/2014  05:51:00     -113.904      -84.353       -8.340       24.931       30.574       17.751      621.536      934.791      315.084        1.101        0.094      141.738       12.440        0.008      337.260        9.113      860.743
04/11/2014  05:52:00     -124.276      -54.071       -4.245       30.930       20.840       15.508      956.639      434.301      240.499        1.001        0.082      135.530       11.116        0.007      337.240        9.081      860.731
04/11/2014  05:53:00      -92.095      -33.711        0.450       35.262       26.256       19.280     1243.409      689.372      371.700        0.596        0.115       98.072       18.232        0.035      337.168        8.960      860.733
04/11/2014  05:54:00      -97.123      -29.600        1.915       45.900       35.325       25.462     2106.823     1247.888      648.295        0.716        0.200      101.534       25.945        0.065      337.081        8.814      860.741
04/11/2014  05:55:00      -66.381      -14.689        5.526       47.876       31.366       25.013     2292.152      983.804      625.635        0.428        0.195       67.987       24.132        0.126      337.003        8.684      860.741
04/11/2014  05:56:00      -64.717       -9.756        2.656       41.560       38.359       23.618     1727.233     1471.444      557.806        0.402        0.188       65.449       26.003        0.158      336.918        8.540      860.743
04/11/2014  05:57:00      -77.840      -16.288        3.447       35.949       32.751       23.086     1292.354     1072.623      532.980        0.462        0.145       79.526       21.716        0.075      336.875        8.471      860.746
04/11/2014  05:58:00      -84.872       -6.649       -0.836       50.822       28.071       29.808     2582.853      787.995      888.507        0.575        0.213       85.132       29.364        0.119      336.826        8.389      860.758
04/11/2014  05:59:00      -66.175      -15.171        8.915       53.267       43.687       24.989     2837.348     1908.546      624.468        0.503        0.269       67.892       28.188        0.172      336.800        8.346      860.765
04/11/2014  06:00:00      -89.848      -14.381        1.419       54.865       22.778       20.912     3010.219      518.834      437.319        0.612        0.198       90.992       26.587        0.085      336.837        8.406      860.759
04/11/2014  06:01:00     -103.860      -14.287       -2.785       31.092       28.591       24.355      966.742      817.450      593.186        0.669        0.119      104.838       19.357        0.034      336.870        8.461      860.756
04/11/2014  06:02:00     -106.191       -5.625       -4.421       34.626       27.082       18.915     1198.929      733.433      357.767        0.681        0.115      106.340       15.729        0.022      336.819        8.376      860.750
04/11/2014  06:03:00     -117.564      -19.730       -2.674       38.211       24.659       21.919     1460.099      608.088      480.458        0.838        0.127      119.208       21.040        0.031      336.824        8.386      860.740
04/11/2014  06:04:00      -80.764      -23.226        5.525       41.925       29.901       24.117     1757.698      894.085      581.609        0.516        0.162       84.037       20.453        0.059      336.860        8.444      860.727
04/11/2014  06:05:00     -117.434      -26.058        3.241       37.865       30.979       22.669     1433.764      959.675      513.900        0.869        0.145      120.290       19.407        0.026      336.894        8.501      860.717
04/11/2014  06:06:00     -149.526      -57.533        0.612       32.637       40.231       22.102     1065.202     1618.509      488.477        1.442        0.159      160.213       21.874        0.019      337.018        8.708      860.714
04/11/2014  06:07:00     -116.598      -33.001        1.825       52.793       32.778       23.087     2787.058     1074.399      533.031        0.954        0.220      121.179       27.005        0.050      337.085        8.820      860.710
04/11/2014  06:08:00      -90.446      -24.257        4.617       40.789       33.327       21.340     1663.751     1110.722      455.412        0.601        0.161       93.642       19.169        0.042      337.001        8.680      860.708
04/11/2014  06:09:00      -87.092      -27.044       -2.162       33.065       31.312       17.403     1093.308      980.430      302.869        0.535        0.119       91.194       13.363        0.021      337.029        8.727      860.706
04/11/2014  06:10:00     -101.498      -19.842        0.748       45.157       28.925       21.876     2039.192      836.655      478.550        0.702        0.168      103.420       22.943        0.049      337.024        8.716      860.710
04/11/2014  06:11:00     -103.686       -4.144       -8.484       32.625       22.673       20.331     1064.366      514.082      413.337        0.642        0.100      103.769       17.256        0.028      336.829        8.393      860.712
04/11/2014  06:12:00      -85.411      -19.903       -5.012       45.514       32.283       18.015     2071.523     1042.200      324.557        0.558        0.172       87.699       20.984        0.057      336.739        8.244      860.722
04/11/2014  06:13:00     -109.994      -12.721       -9.745       40.132       20.731       15.234     1610.599      429.785      232.085        0.731        0.114      110.727       15.795        0.020      336.735        8.238      860.733
04/11/2014  06:14:00     -126.071       -8.892      -11.647       29.681       25.422       12.423      880.971      646.301      154.331        0.889        0.084      126.384       11.455        0.008      336.734        8.237      860.738
04/11/2014  06:15:00     -130.991       11.283      -10.375       41.716       16.981       19.692     1740.197      288.370      387.777        0.990        0.121      131.476       23.495        0.032      336.640        8.079      860.733
04/11/2014  06:16:00     -154.551       20.678       -6.501       26.088       19.452       15.324      680.579      378.365      234.823        1.282        0.065      155.928       10.843        0.005      336.639        8.076      860.737
04/11/2014  06:17:00     -140.846       32.334      -13.944       21.138       23.274       13.141      446.801      541.678      172.674        1.112        0.058      144.510        9.262        0.004      336.699        8.178      860.757
04/11/2014  06:18:00     -131.871       -9.387       -1.451       39.414       34.028       26.519     1553.487     1157.887      703.256        1.045        0.171      132.205       23.716        0.032      336.765        8.286      860.758
04/11/2014  06:19:00     -119.493      -52.879        1.458       28.074       25.770       15.322      788.173      664.081      234.760        0.938        0.084      130.670       11.102        0.007      336.860        8.444      860.756
04/11/2014  06:20:00     -107.791      -82.239      -13.902       25.427       21.067       17.381      646.533      443.820      302.082        0.998        0.070      135.581       10.694        0.006      336.962        8.616      860.753
04/11/2014  06:21:00      -95.841      -58.013       -7.002       30.854       37.553       19.765      951.952     1410.235      390.667        0.768        0.138      112.031       12.732        0.013      336.937        8.572      860.768
04/11/2014  06:22:00     -100.667      -17.352        0.724       38.746       27.050       16.457     1501.243      731.700      270.849        0.647        0.125      102.152       19.623        0.037      336.922        8.547      860.763
04/11/2014  06:23:00      -99.582      -44.989        2.764       39.247       33.104       20.014     1540.348     1095.887      400.548        0.749        0.152      109.273       20.264        0.034      336.911        8.529      860.770
04/11/2014  06:24:00     -130.578      -59.218       -2.266       51.468       26.595       21.262     2648.998      707.279      452.060        1.218        0.190      143.378       25.492        0.032      336.989        8.660      860.786
04/11/2014  06:25:00      -96.107      -11.037       -3.255       43.660       30.172       19.175     1906.207      910.327      367.674        0.628        0.159       96.739       16.819        0.030      336.871        8.464      860.803
04/11/2014  06:26:00     -112.712      -41.697       -8.144       24.744       33.117       17.291      612.257     1096.753      298.991        0.826        0.100      120.178        7.032        0.003      336.964        8.618      860.801
04/11/2014  06:27:00     -112.682      -88.301      -11.024       32.860       28.325       19.543     1079.804      802.287      381.947        1.144        0.113      143.158       18.650        0.017      337.037        8.740      860.814
04/11/2014  06:28:00     -111.945      -79.801       -5.197       42.753       27.121       19.806     1827.787      735.567      392.282        1.094        0.148      137.477       21.852        0.025      337.059        8.776      860.827
04/11/2014  06:29:00     -108.966      -50.696       -4.806       48.076       31.117       20.127     2311.340      968.247      405.114        0.907        0.184      120.181       23.052        0.037      337.085        8.820      860.840
04/11/2014  06:30:00      -89.378      -45.050       -4.514       38.612       43.797       19.675     1490.892     1918.142      387.091        0.692        0.190      100.090       20.061        0.040      337.004        8.684      860.839
04/11/2014  06:31:00     -104.393      -91.311       -6.139       34.047       36.805       26.680     1159.193     1354.635      711.844        1.125        0.161      138.693       24.622        0.032      336.990        8.661      860.836
04/11/2014  06:32:00     -107.153     -103.616       -7.138       39.443       38.161       27.649     1555.733     1456.296      764.470        1.302        0.189      149.057       18.531        0.015      337.012        8.699      860.838
04/11/2014  06:33:00     -119.381      -78.816       -6.253       29.063       27.777       20.299      844.655      771.574      412.049        1.127        0.101      143.051       15.498        0.012      336.992        8.663      860.838
04/11/2014  06:34:00     -118.722      -57.553       -3.643       25.670       27.210       17.711      658.962      740.373      313.674        0.957        0.086      131.937       11.753        0.008      337.021        8.712      860.824
04/11/2014  06:35:00     -141.365      -40.235      -11.327       24.012       24.203       14.344      576.576      585.789      205.758        1.155        0.068      146.980        7.724        0.003      336.999        8.677      860.817
04/11/2014  06:36:00     -126.538      -53.447        4.163       33.749       36.899       20.678     1139.007     1361.525      427.586        1.091        0.146      137.363       16.733        0.015      336.993        8.665      860.823
04/11/2014  06:37:00      -91.618      -44.835       -4.430       46.572       31.273       24.216     2168.990      977.994      586.428        0.708        0.187      102.000       20.772        0.041      336.999        8.677      860.824
04/11/2014  06:38:00     -114.141      -12.553      -12.010       31.469       23.673       17.599      990.304      560.423      309.727        0.759        0.093      114.829       17.428        0.023      336.902        8.514      860.809
04/11/2014  06:39:00     -121.201      -37.965       -8.768       22.785       23.652       16.862      519.160      559.438      284.328        0.879        0.068      127.008       12.434        0.010      336.900        8.512      860.810
04/11/2014  06:40:00     -108.765      -27.913       -2.199       32.673       26.915       20.338     1067.525      724.411      413.615        0.741        0.110      112.289       19.895        0.031      336.808        8.359      860.808
04/11/2014  06:41:00     -111.876      -12.397       -5.785       36.541       29.187       22.946     1335.217      851.876      526.516        0.771        0.136      112.561       21.279        0.036      336.772        8.298      860.814
04/11/2014  06:42:00     -143.203      -15.480       -8.918       27.963       25.292       18.716      781.949      639.683      350.278        1.130        0.089      144.038       13.940        0.009      336.659        8.111      860.818
04/11/2014  06:43:00     -116.150       -5.878      -10.517       48.455       31.323       24.384     2347.925      981.156      594.563        0.878        0.196      116.299       28.337        0.059      336.684        8.153      860.810
04/11/2014  06:44:00     -140.698       10.171      -17.104       34.850       32.086       20.022     1214.511     1029.520      400.869        1.142        0.132      141.065       17.287        0.015      336.586        7.989      860.807
04/11/2014  06:45:00     -166.143       15.557      -14.592       33.511       33.986       23.097     1123.020     1155.045      533.478        1.543        0.141      166.870       15.775        0.009      336.552        7.931      860.807
04/11/2014  06:46:00     -139.466       12.893       -9.813       47.861       36.960       26.873     2290.723     1366.044      722.178        1.205        0.219      140.060       25.268        0.033      336.505        7.853      860.810
04/11/2014  06:47:00     -145.112        1.613       -9.351       36.284       34.244       23.710     1316.556     1172.628      562.170        1.210        0.153      145.121       18.998        0.017      336.604        8.017      860.815
04/11/2014  06:48:00     -119.985       12.389      -10.156       37.848       29.612       16.585     1432.437      876.843      275.062        0.862        0.129      120.623       10.339        0.007      336.587        7.991      860.823
04/11/2014  06:49:00     -101.450       -1.853       -8.231       29.416       31.442       16.414      865.325      988.570      269.422        0.624        0.106      101.467        9.024        0.008      336.665        8.120      860.821
04/11/2014  06:50:00     -109.085       -8.377      -16.548       31.257       21.826       18.244      977.009      476.386      332.855        0.701        0.089      109.406       15.731        0.021      336.564        7.951      860.816
04/11/2014  06:51:00      -89.687      -24.572      -15.621       44.431       42.970       18.118     1974.096     1846.439      328.277        0.652        0.207       92.992        8.728        0.009      336.624        8.054      860.816
04/11/2014  06:52:00     -107.036      -49.738       -9.300       34.413       38.934       18.826     1184.278     1515.839      354.431        0.854        0.153      118.028       17.004        0.021      336.649        8.093      860.813
04/11/2014  06:53:00      -68.032      -37.442      -11.089       22.455       23.392       14.235      504.238      547.186      202.636        0.370        0.063       77.655       12.794        0.027      336.635        8.070      860.802
04/11/2014  06:54:00      -72.311      -30.967       -5.817       28.552       25.058       18.144      815.245      627.885      329.205        0.400        0.089       78.663        7.904        0.010      336.684        8.152      860.789
04/11/2014  06:55:00      -86.715      -22.424       -9.130       17.092       26.806       10.818      292.139      718.535      117.030        0.462        0.056       89.567        7.963        0.008      336.733        8.234      860.779
04/11/2014  06:56:00      -94.424      -16.844       -8.972       29.775       24.484       15.558      886.569      599.488      242.050        0.550        0.086       95.915       15.094        0.025      336.760        8.279      860.781
04/11/2014  06:57:00     -104.781      -37.546       -7.148       31.820       27.533       14.814     1012.522      758.058      219.443        0.721        0.100      111.305       15.737        0.020      336.664        8.119      860.792
04/11/2014  06:58:00     -109.248      -16.982       -1.680       38.446       33.085       22.861     1478.127     1094.609      522.624        0.766        0.155      110.560       23.435        0.045      336.669        8.128      860.802
04/11/2014  06:59:00      -85.302        0.236        1.034       26.613       21.273       17.602      708.235      452.530      309.841        0.437        0.074       85.302       14.735        0.030      336.706        8.189      860.819
04/11/2014  07:00:00        9.708      -25.377       -7.302       16.213       25.668       13.190      262.861      658.845      173.971        0.094        0.055       27.170       10.650        0.154      336.927        8.556      860.838
04/11/2014  07:01:00      -35.719      -30.060       -3.757       19.810       13.147       11.316      392.453      172.841      128.048        0.144        0.035       46.685        6.684        0.021      336.891        8.495      860.860
04/11/2014  07:02:00      -41.872      -10.245       -8.729       12.266       21.859        5.687      150.446      477.826       32.341        0.130        0.033       43.108        7.752        0.032      336.896        8.504      860.883
04/11/2014  07:03:00      -30.833      -12.504       -7.072       10.997       12.362        6.253      120.932      152.809       39.099        0.073        0.016       33.272        5.017        0.023      337.005        8.685      860.895
04/11/2014  07:04:00      -42.127      -38.411       -4.527       12.473       12.861        6.756      155.564      165.414       45.642        0.182        0.018       57.009        4.797        0.007      337.214        9.038      860.902
04/11/2014  07:05:00      -40.728      -15.961       -1.200       11.309       16.461       10.668      127.883      270.977      113.805        0.121        0.026       43.743        9.578        0.048      337.288        9.162      860.909
04/11/2014  07:06:00      -44.800      -15.090       -6.675        9.760       11.151        9.956       95.257      124.343       99.115        0.130        0.016       47.274        8.033        0.029      337.256        9.107      860.907
04/11/2014  07:07:00      -49.954      -10.810       -2.016       14.926       11.587        9.512      222.789      134.266       90.469        0.153        0.022       51.110        8.180        0.026      337.182        8.984      860.905
04/11/2014  07:08:00      -42.691      -24.134        5.773       22.235       12.311       11.530      494.397      151.566      132.946        0.161        0.039       49.040       14.116        0.083      337.244        9.088      860.890
04/11/2014  07:09:00       -6.506       -6.465       15.284       31.399       11.952       13.957      985.887      142.844      194.802        0.082        0.066        9.172       17.094        3.474      337.305        9.189      860.893
04/11/2014  07:10:00       31.643       -7.114       -2.729       15.277       17.132       10.087      233.380      293.515      101.751        0.084        0.031       32.432       10.305        0.101      337.190        8.996      860.901
04/11/2014  07:11:00       -5.207       -7.839        8.696       21.576       14.040        8.954      465.504      197.119       80.176        0.045        0.037        9.411        4.365        0.215      337.314        9.204      860.903
04/11/2014  07:12:00      -37.463      -17.560        1.315       38.801       23.816       17.097     1505.500      567.218      292.310        0.204        0.118       41.374       18.133        0.192      337.199        9.014      860.905
04/11/2014  07:13:00      -26.397      -49.056        4.197       33.724       30.600       15.671     1137.325      936.368      245.565        0.272        0.116       55.707       18.852        0.115      337.245        9.090      860.897
04/11/2014  07:14:00      -34.515      -38.772        0.574       35.442       25.624       18.173     1256.109      656.578      330.262        0.247        0.112       51.909       19.495        0.141      337.258        9.112      860.890
04/11/2014  07:15:00      -69.178      -60.499       -0.444       26.923       19.848       15.631      724.867      393.949      244.341        0.490        0.068       91.900       12.835        0.020      337.215        9.040      860.892
04/11/2014  07:16:00      -77.147      -62.255       -7.728       17.648       20.617       10.967      311.436      425.067      120.277        0.537        0.043       99.133        7.814        0.006      337.208        9.028      860.901
04/11/2014  07:17:00      -55.376      -55.842       -6.236       15.893       15.604       12.586      252.578      243.499      158.401        0.344        0.033       78.644        8.805        0.013      337.305        9.191      860.910
04/11/2014  07:18:00      -45.783      -20.031       -0.085       18.427       18.537       11.885      339.555      343.609      141.263        0.166        0.041       49.973        8.956        0.032      337.304        9.189      860.911
04/11/2014  07:19:00      -21.781        4.317        5.961       14.314       15.373        9.590      204.884      236.332       91.961        0.053        0.027       22.205        7.909        0.127      337.334        9.238      860.930
04/11/2014  07:20:00      -29.523       13.591        5.439       13.505       11.817       10.487      182.374      139.652      109.986        0.076        0.022       32.501        7.647        0.055      337.309        9.198      860.942
04/11/2014  07:21:00      -38.140        9.461       -0.676        8.178        7.418        9.625       66.888       55.031       92.644        0.088        0.011       39.296        3.949        0.010      337.316        9.209      860.956
04/11/2014  07:22:00      -53.734       -8.009       -2.891       15.816       15.840       11.861      250.130      250.915      140.690        0.180        0.032       54.328       10.740        0.039      337.314        9.203      860.956
04/11/2014  07:23:00      -45.142      -13.145        1.419       26.151       16.129       13.987      683.901      260.154      195.634        0.168        0.057       47.017       12.739        0.073      337.357        9.275      860.967
04/11/2014  07:24:00      -44.233       -7.353        1.849       12.965       16.994       13.661      168.094      288.795      186.624        0.133        0.032       44.840       10.172        0.051      337.400        9.347      860.975
04/11/2014  07:25:00      -14.890       20.442        1.372        7.965       16.454        8.094       63.443      270.724       65.506        0.052        0.020       25.290        3.370        0.018      337.398        9.345      860.978
04/11/2014  07:26:00      -10.643       61.208       -2.285       11.968       20.362        8.928      143.242      414.603       79.708        0.225        0.032       62.127        3.993        0.004      337.345        9.258      860.986
04/11/2014  07:27:00       -7.052       80.347       -8.149       12.829       12.215       11.784      164.596      149.206      138.859        0.351        0.023       80.656        7.153        0.008      337.308        9.196      860.997
04/11/2014  07:28:00        8.352       72.114      -10.083        9.058        8.883        5.765       82.040       78.912       33.239        0.278        0.010       72.596        3.254        0.002      337.305        9.188      861.004
04/11/2014  07:29:00       28.452       42.639       -3.727       14.184       24.607       14.154      201.194      605.482      200.339        0.182        0.050       51.259       11.712        0.052      337.424        9.389      861.011
04/11/2014  07:30:00       36.788       44.630       -0.746       24.818       25.361       14.891      615.938      643.178      221.748        0.241        0.074       57.837       13.801        0.057      337.362        9.285      861.005
04/11/2014  07:31:00       42.334       17.441       -6.214       23.485       14.997       13.629      551.540      224.904      185.763        0.155        0.048       45.786       10.903        0.057      337.472        9.468      861.010
04/11/2014  07:32:00       21.263       27.589       -0.288       15.405       15.587       13.637      237.313      242.948      185.963        0.094        0.033       34.832        8.460        0.059      337.568        9.629      861.005
04/11/2014  07:33:00       26.892       40.434       12.449       16.912       13.084       13.054      286.031      171.203      170.395        0.157        0.031       48.560        6.104        0.016      337.627        9.728      861.003
04/11/2014  07:34:00       43.877       37.631        6.591       18.332       13.852       15.617      336.056      191.872      243.878        0.208        0.039       57.804        6.129        0.011      337.621        9.718      860.990
04/11/2014  07:35:00       35.730       35.979        0.279       16.640       18.238       16.941      276.901      332.620      286.981        0.173        0.045       50.706       11.097        0.048      337.697        9.847      860.982
04/11/2014  07:36:00       27.174       15.306        3.366       24.651       23.233       16.231      607.692      539.782      263.459        0.120        0.071       31.188        4.736        0.023      337.910       10.204      860.958
04/11/2014  07:37:00       36.656       44.721        2.495       23.017       28.669       16.475      529.787      821.930      271.439        0.249        0.081       57.824       12.801        0.049      337.752        9.938      860.949
04/11/2014  07:38:00        8.152       43.434       -3.195       18.278       20.469       19.318      334.092      418.989      373.177        0.154        0.056       44.193       16.489        0.139      337.924       10.227      860.944
04/11/2014  07:39:00        1.753       33.392        9.845       16.723       20.750       17.559      279.650      430.583      308.301        0.112        0.051       33.438       13.469        0.162      338.101       10.523      860.937
04/11/2014  07:40:00       23.726       30.393       -9.380       10.360       11.367        9.886      107.339      129.207       97.730        0.095        0.017       38.557        6.092        0.025      337.724        9.892      860.930
04/11/2014  07:41:00       21.716       23.915       12.481       17.389       13.859       20.036      302.362      192.069      401.438        0.105        0.045       32.303       13.222        0.168      337.945       10.262      860.929
04/11/2014  07:42:00       38.038       53.193       -4.280       22.116       16.756       16.525      489.100      280.753      273.066        0.267        0.052       65.394        8.827        0.018      337.877       10.148      860.922
04/11/2014  07:43:00       42.074       50.653       13.431       22.965       15.249       14.143      527.393      232.532      200.029        0.274        0.048       65.848        5.109        0.006      337.828       10.066      860.923
04/11/2014  07:44:00       52.917       40.335        5.793        9.665        7.626       12.719       93.405       58.151      161.762        0.239        0.016       66.536        5.320        0.006      337.704        9.860      860.912
04/11/2014  07:45:00       49.376       36.688       11.534       19.644       12.237       15.908      385.887      149.747      253.051        0.235        0.039       61.514       14.293        0.054      337.812       10.040      860.905
04/11/2014  07:46:00       48.411       39.067        4.490       11.295       12.053       18.129      127.566      145.266      328.648        0.225        0.030       62.208       11.902        0.037      337.798       10.014      860.891
04/11/2014  07:47:00       48.425       33.082       21.805       32.954       24.822       18.122     1085.957      616.108      328.391        0.297        0.102       58.646       19.527        0.111      337.948       10.267      860.872
04/11/2014  07:48:00       57.398       48.556       -1.959       14.284       22.529       16.341      204.041      507.568      267.016        0.332        0.049       75.181        5.025        0.004      337.825       10.062      860.863
04/11/2014  07:49:00       13.576       27.778       14.670       15.813       20.226       14.133      250.065      409.087      199.736        0.101        0.043       30.918        8.336        0.073      338.065       10.465      860.864
04/11/2014  07:50:00       22.667        5.915        5.183       13.451       20.330       12.713      180.917      413.294      161.615        0.067        0.038       23.426        9.966        0.181      338.142       10.592      860.861
04/11/2014  07:51:00       26.646       11.383       -1.123       14.279       19.312       11.707      203.893      372.944      137.057        0.078        0.036       28.976        9.248        0.102      338.001       10.356      860.858
04/11/2014  07:52:00       12.795      -11.545        7.340       13.720       16.932       15.545      188.239      286.683      241.635        0.053        0.036       17.234        5.424        0.099      338.219       10.720      860.855
04/11/2014  07:53:00       11.021        8.134       19.845       18.497       15.734       18.146      342.152      247.557      329.271        0.075        0.046       13.697       10.414        0.578      338.329       10.907      860.848
04/11/2014  07:54:00       23.357      -22.005       13.221       30.447       21.068       18.313      926.991      443.864      335.377        0.146        0.085       32.090       16.964        0.279      338.222       10.726      860.841
04/11/2014  07:55:00       15.223       -6.473        9.122       27.965       24.638       25.187      782.020      607.040      634.397        0.119        0.101       16.542       19.075        1.330      338.146       10.600      860.831
04/11/2014  07:56:00       14.244       26.839       34.515       27.034       31.915       21.192      730.854     1018.573      449.114        0.216        0.110       30.385       18.720        0.380      338.301       10.859      860.821
04/11/2014  07:57:00        0.807       28.859       56.564       18.552       27.399       17.661      344.193      750.716      311.900        0.272        0.070       28.871       16.035        0.308      338.285       10.832      860.813
04/11/2014  07:58:00        8.735      -38.095       17.386       30.018       50.099       23.448      901.099     2509.862      549.800        0.289        0.198       39.084       26.039        0.444      338.235       10.748      860.812
04/11/2014  07:59:00       10.605      -25.947       26.979       20.035       38.150       29.813      401.419     1455.461      888.809        0.213        0.137       28.031       17.827        0.404      338.374       10.982      860.813
04/11/2014  08:00:00       24.203      -23.343       14.062       27.767       24.419       23.180      771.026      596.276      537.317        0.162        0.095       33.625       20.294        0.364      338.233       10.744      860.823
04/11/2014  08:01:00       28.751      -32.843        2.928       32.807       42.990       26.911     1076.292     1848.123      724.193        0.278        0.182       43.649       23.712        0.295      338.333       10.914      860.836
04/11/2014  08:02:00       15.971       17.854       52.189       33.816       31.752       19.487     1143.505     1008.209      379.752        0.291        0.127       23.955       15.186        0.402      338.472       11.148      860.842
04/11/2014  08:03:00       -1.825       48.612       63.629       22.381       27.339       22.031      500.901      747.403      485.384        0.407        0.087       48.646       13.734        0.080      338.310       10.873      860.849
04/11/2014  08:04:00       -4.316      -10.509       37.058       27.706       35.874       23.067      767.610     1286.953      532.092        0.204        0.129       11.361       17.221        2.298      338.568       11.308      860.854
04/11/2014  08:05:00      -40.676      -28.089        2.004       29.006       40.640       21.759      841.365     1651.603      473.475        0.271        0.148       49.433       14.329        0.084      338.394       11.016      860.863
04/11/2014  08:06:00      -41.599       -8.166       14.265       17.095       17.562       11.876      292.248      308.438      141.049        0.137        0.037       42.393       10.983        0.067      338.420       11.061      860.874
04/11/2014  08:07:00      -40.521       -6.881        4.266       14.701       15.297       11.992      216.106      233.996      143.803        0.115        0.030       41.101       11.640        0.080      338.445       11.101      860.880
04/11/2014  08:08:00      -44.707      -13.009       -1.645       16.559       18.453       12.634      274.199      340.528      159.619        0.147        0.039       46.561       11.216        0.058      338.520       11.227      860.870
04/11/2014  08:09:00      -20.868       -4.531        5.544       15.906       13.017       13.746      253.007      169.455      188.948        0.055        0.031       21.354        9.055        0.180      338.824       11.737      860.855
04/11/2014  08:10:00      -31.623      -17.635       -7.559       25.623       22.324       11.715      656.540      498.364      137.231        0.133        0.065       36.208        6.417        0.031      338.622       11.398      860.841
04/11/2014  08:11:00      -44.988      -33.551       14.027       49.918       33.034       23.657     2491.829     1091.268      559.648        0.374        0.207       56.121       21.723        0.150      338.670       11.479      860.829
04/11/2014  08:12:00      -91.908      -28.740       10.415       66.978       36.245       30.245     4486.044     1313.680      914.777        0.805        0.336       96.297       29.525        0.094      338.502       11.197      860.818
04/11/2014  08:13:00      -93.404      -71.767       -0.552       52.252       50.807       28.452     2730.236     2581.369      809.535        1.000        0.306      117.791       22.557        0.037      338.441       11.096      860.800
04/11/2014  08:14:00      -75.538      -85.739        1.884       46.051       49.599       29.217     2120.717     2460.027      853.627        0.925        0.272      114.268       32.734        0.082      338.400       11.025      860.779
04/11/2014  08:15:00     -132.079      -81.204       -0.264       48.233       44.399       26.648     2326.467     1971.311      710.112        1.452        0.250      155.045       27.682        0.032      338.278       10.821      860.763
04/11/2014  08:16:00      -96.504      -61.571        2.677       52.152       39.252       25.600     2719.790     1540.701      655.369        0.901        0.246      114.473       22.461        0.039      338.345       10.934      860.740
04/11/2014  08:17:00      -98.031      -64.090        5.389       42.025       33.722       25.112     1766.091     1137.150      630.609        0.864        0.177      117.122       25.076        0.046      338.382       10.995      860.742
04/11/2014  08:18:00      -70.184      -87.709       -3.675       44.792       34.647       30.206     2006.340     1200.413      912.412        0.837        0.206      112.333       31.204        0.077      338.323       10.897      860.750
04/11/2014  08:19:00      -58.149      -81.267       -3.027       46.116       43.559       22.200     2126.669     1897.373      492.823        0.725        0.226       99.928       25.103        0.063      338.391       11.012      860.755
04/11/2014  08:20:00      -44.600     -110.016       -6.159       38.120       43.461       27.584     1453.164     1888.827      760.885        0.912        0.205      118.712       19.403        0.027      338.339       10.923      860.775
04/11/2014  08:21:00      -48.907      -96.412        4.382       38.777       51.968       22.792     1503.662     2700.658      519.460        0.821        0.236      108.108       21.530        0.040      338.323       10.896      860.781
04/11/2014  08:22:00      -82.070     -103.064       -4.602       34.075       32.285       26.851     1161.135     1042.349      720.964        1.015        0.146      131.749       15.314        0.014      338.336       10.918      860.781
04/11/2014  08:23:00      -81.096      -85.998       -8.192       47.121       38.282       22.804     2220.387     1465.542      520.008        0.912        0.210      118.204       24.881        0.044      338.349       10.940      860.782
04/11/2014  08:24:00      -68.600      -76.976        2.619       41.525       66.372       24.063     1724.309     4405.193      579.032        0.867        0.335      103.107       23.702        0.053      338.397       11.020      860.764
04/11/2014  08:25:00      -11.644      -68.789       13.955       35.964       47.179       22.666     1293.391     2225.886      513.731        0.455        0.202       69.767       21.307        0.093      338.451       11.111      860.757
04/11/2014  08:26:00      -27.078      -99.199        2.988       34.180       51.075       28.146     1168.285     2608.614      792.177        0.757        0.228      102.829       26.276        0.065      338.418       11.055      860.739
04/11/2014  08:27:00      -31.138     -110.721        7.610       21.409       35.846       21.034      458.353     1284.935      442.431        0.774        0.109      115.016       20.353        0.031      338.377       10.986      860.730
04/11/2014  08:28:00      -22.819      -86.265        7.479       30.042       48.355       18.736      902.516     2338.214      351.040        0.580        0.180       89.232       17.211        0.037      338.469       11.141      860.713
04/11/2014  08:29:00      -26.549      -71.367      -14.403       55.388       34.240       15.315     3067.780     1172.397      234.552        0.524        0.224       76.145       11.070        0.021      338.502       11.197      860.703
04/11/2014  08:30:00      -13.420      -38.624        2.564       23.169       22.761       14.549      536.813      518.049      211.677        0.147        0.063       40.889        9.221        0.051      338.609       11.378      860.702
04/11/2014  08:31:00      -36.383      -25.080       -2.605       22.032       18.695       14.258      485.420      349.495      203.278        0.150        0.052       44.190        8.403        0.036      338.653       11.451      860.694
04/11/2014  08:32:00      -35.109       -6.580        6.377       17.621       15.534       13.517      310.499      241.307      182.705        0.103        0.037       35.720       12.369        0.120      338.599       11.362      860.701
04/11/2014  08:33:00      -16.977      -41.874       -1.051       18.342       14.661       10.501      336.445      214.943      110.275        0.135        0.033       45.185        7.075        0.025      338.634       11.420      860.697
04/11/2014  08:34:00      -35.330      -44.468        2.457       19.093       32.944       15.594      364.560     1085.284      243.163        0.246        0.085       56.794       18.180        0.102      338.687       11.507      860.703
04/11/2014  08:35:00      -31.350      -27.310       -3.758       15.505       24.187       13.911      240.391      585.005      193.526        0.138        0.051       41.577        5.261        0.016      338.654       11.452      860.704
04/11/2014  08:36:00      -21.925       -8.756       -2.656       16.671       15.870       12.292      277.937      251.846      151.084        0.062        0.034       23.609        9.317        0.156      338.719       11.560      860.704
04/11/2014  08:37:00      -11.917       22.127        9.801       24.954       21.621       19.648      622.727      467.472      386.058        0.110        0.074       25.132       13.538        0.290      338.916       11.892      860.709
04/11/2014  08:38:00      -19.736        4.159        7.187       13.623       12.385       15.288      185.579      153.387      233.737        0.052        0.029       20.170       10.147        0.253      338.907       11.878      860.699
04/11/2014  08:39:00      -33.688        8.990       10.353       16.227       17.731       13.477      263.320      314.395      181.619        0.104        0.038       34.866        8.997        0.067      338.688       11.511      860.700
04/11/2014  08:40:00      -11.831       -1.677        7.347       15.073       14.187        9.864      227.207      201.284       97.305        0.036        0.026       11.949        7.872        0.434      338.952       11.953      860.702
04/11/2014  08:41:00      -41.227        8.702        3.467       24.356       29.479       28.226      593.232      868.983      796.722        0.202        0.113       42.135       19.761        0.220      338.791       11.683      860.693
04/11/2014  08:42:00      -25.543      -17.724       15.828       18.429       19.378       19.048      339.613      375.508      362.819        0.115        0.054       31.090        8.232        0.070      338.906       11.874      860.696
04/11/2014  08:43:00       -9.711        2.423        6.438       14.736       15.582       16.218      217.152      242.787      263.011        0.043        0.036       10.009        9.886        0.976      339.204       12.377      860.686
04/11/2014  08:44:00      -10.174      -11.560       -4.092       22.809       17.117       16.421      520.228      292.995      269.650        0.067        0.054       15.400       14.659        0.906      339.170       12.321      860.691
04/11/2014  08:45:00      -31.585      -19.831       -5.652       23.618       22.686       23.777      557.804      514.659      565.343        0.153        0.082       37.295       18.408        0.244      339.197       12.366      860.689
04/11/2014  08:46:00      -12.416      -63.046      -12.068       33.769       31.842       21.210     1140.373     1013.901      449.848        0.344        0.130       64.257       13.903        0.047      338.924       11.906      860.697
04/11/2014  08:47:00        8.154      -17.667       12.480       13.266       23.269       17.666      175.999      541.458      312.105        0.078        0.051       19.458       14.595        0.563      339.408       12.721      860.685
04/11/2014  08:48:00        2.466       -8.382       20.100       16.853       25.287       18.804      284.026      639.452      353.600        0.088        0.064        8.737       16.991        3.782      339.573       13.000      860.686
04/11/2014  08:49:00       -7.254       -7.516        5.635       19.759       14.587       15.485      390.430      212.773      239.778        0.049        0.042       10.446        6.644        0.405      339.250       12.454      860.681
04/11/2014  08:50:00      -18.947       -0.203       -8.038       24.559       15.973       11.581      603.126      255.127      134.122        0.071        0.050       18.948        8.801        0.216      339.118       12.232      860.668
04/11/2014  08:51:00      -30.468      -21.314        1.423       28.553       21.632       19.703      815.291      467.931      388.218        0.153        0.084       37.183       13.293        0.128      339.212       12.390      860.667
04/11/2014  08:52:00      -76.482      -47.352       -5.282       27.304       22.398       12.488      745.495      501.650      155.952        0.476        0.070       89.954        8.301        0.009      338.935       11.924      860.659
04/11/2014  08:53:00      -61.918      -22.952        4.047       29.656       28.564       18.053      879.462      815.893      325.916        0.320        0.101       66.035       22.737        0.119      339.072       12.155      860.648
04/11/2014  08:54:00      -29.063        5.823        8.105       17.708       22.415       26.355      313.584      502.424      694.599        0.123        0.076       29.641        4.435        0.022      339.256       12.465      860.637
04/11/2014  08:55:00      -21.915       -9.176       -1.627       21.819       19.236       15.010      476.055      370.028      225.286        0.082        0.054       23.759       11.367        0.229      339.307       12.551      860.639
04/11/2014  08:56:00       -6.210      -23.219       20.224       14.820       33.831       24.431      219.640     1144.555      596.887        0.147        0.098       24.035       23.292        0.939      339.679       13.177      860.648
04/11/2014  08:57:00        0.856       27.427       44.631       24.011       37.760       34.034      576.532     1425.847     1158.285        0.295        0.158       27.441       31.623        1.328      339.528       12.923      860.646
04/11/2014  08:58:00      -16.506      -28.485       18.699       27.077       33.097       25.458      733.147     1095.440      648.094        0.195        0.124       32.922       22.730        0.477      339.527       12.922      860.649
04/11/2014  08:59:00      -10.622      -15.083       13.805       36.574       23.068       22.228     1337.650      532.133      494.087        0.145        0.118       18.448       19.173        1.080      339.721       13.248      860.657
04/11/2014  09:00:00        5.578      -73.277       -2.120       56.090       34.735       28.315     3146.033     1206.516      801.727        0.528        0.258       73.489       25.305        0.119      339.378       12.669      860.669
04/11/2014  09:01:00      -29.207      -39.899        5.663       38.176       32.828       21.266     1457.395     1077.709      452.231        0.273        0.149       49.446       21.656        0.192      339.389       12.689      860.678
04/11/2014  09:02:00      -26.887       -7.989        4.085       35.313       23.323       21.516     1246.979      543.979      462.944        0.153        0.113       28.049        9.789        0.122      339.390       12.691      860.695
04/11/2014  09:03:00      -79.646      -25.368      -17.189       45.277       34.637       17.805     2050.007     1199.752      317.009        0.542        0.178       83.589       16.759        0.040      339.133       12.257      860.702
04/11/2014  09:04:00      -26.833       -5.516        4.262       45.133       31.674       24.096     2036.967     1003.219      580.601        0.219        0.181       27.394       11.323        0.171      339.296       12.533      860.703
04/11/2014  09:05:00       -7.485       37.444       15.781       37.821       19.548       38.723     1430.406      382.127     1499.506        0.251        0.166       38.185       32.372        0.719      339.308       12.552      860.702
04/11/2014  09:06:00      -14.672      -28.846       35.484       21.569       40.245       25.959      465.232     1619.630      673.891        0.253        0.138       32.363       25.320        0.612      339.522       12.914      860.701
04/11/2014  09:07:00      -25.463       -0.282       -6.493       19.265       31.861       14.656      371.139     1015.152      214.791        0.115        0.080       25.464       12.463        0.240      339.242       12.440      860.714
04/11/2014  09:08:00      -30.966        9.724       -8.924       19.006       11.171       10.410      361.221      124.783      108.366        0.086        0.030       32.457        7.360        0.051      339.309       12.555      860.713
04/11/2014  09:09:00      -51.190      -19.287       -8.600       24.914       17.489       10.694      620.714      305.855      114.362        0.205        0.052       54.703       10.081        0.034      339.277       12.498      860.723
04/11/2014  09:10:00      -45.418       12.038        0.853       19.418       17.988       13.905      377.067      323.555      193.353        0.155        0.045       46.986       10.409        0.049      339.398       12.704      860.713
04/11/2014  09:11:00      -63.230       -3.073        6.551       40.637       20.993       21.776     1651.366      440.714      474.208        0.331        0.128       63.305       21.329        0.114      339.578       13.007      860.698
04/11/2014  09:12:00      -94.967       -1.522       -1.752       25.202       21.871       14.243      635.117      478.345      202.856        0.517        0.066       94.979        4.562        0.002      339.426       12.752      860.673
04/11/2014  09:13:00     -107.424      -28.599       -8.916       27.338       28.717       15.651      747.340      824.653      244.956        0.713        0.091      111.166       12.503        0.013      339.440       12.775      860.659
04/11/2014  09:14:00      -80.892       18.594        3.071       21.744       19.797       12.067      472.807      391.907      145.601        0.395        0.051       83.002        9.587        0.013      339.461       12.808      860.646
04/11/2014  09:15:00      -64.791      -20.792       -5.411       47.944       44.289       22.188     2298.642     1961.514      492.317        0.470        0.238       68.045       22.400        0.108      339.567       12.989      860.642
04/11/2014  09:16:00      -15.289      -35.465       14.286       24.749       30.182       18.984      612.492      910.955      360.401        0.179        0.094       38.620       17.202        0.198      339.755       13.307      860.627
04/11/2014  09:17:00      -26.302      -49.614        3.648       25.784       27.761       13.918      664.801      770.658      193.697        0.240        0.081       56.155       11.374        0.041      339.682       13.182      860.619
04/11/2014  09:18:00       -1.659       -6.157       19.355       26.653       17.467       16.957      710.367      305.083      287.528        0.086        0.065        6.376       16.550        6.736      340.218       14.086      860.615
04/11/2014  09:19:00      -23.333      -38.072       -8.432       18.167       25.047       22.541      330.033      627.368      508.119        0.176        0.073       44.653       16.531        0.137      339.651       13.130      860.609
04/11/2014  09:20:00      -13.063      -76.010       -2.447       17.906       18.297       11.401      320.608      334.775      129.981        0.337        0.039       77.125        6.553        0.007      339.631       13.095      860.605
04/11/2014  09:21:00        3.456      -48.805       -1.094       10.774       18.216       14.212      116.072      331.817      201.981        0.152        0.032       48.927        6.193        0.016      339.705       13.222      860.594
04/11/2014  09:22:00        0.422      -71.719        1.421       20.073       19.379       18.159      402.944      375.564      329.741        0.313        0.055       71.721        9.790        0.019      339.778       13.345      860.593
04/11/2014  09:23:00       -8.891      -45.481        4.067       16.678       13.288       14.352      278.156      176.560      205.977        0.141        0.033       46.342        9.927        0.046      339.809       13.397      860.593
04/11/2014  09:24:00      -25.120      -46.837       -0.283       26.262       23.965       16.715      689.705      574.316      279.380        0.218        0.077       53.148       15.480        0.085      339.860       13.485      860.594
04/11/2014  09:25:00      -50.823      -50.750        7.548       53.178       39.480       24.610     2827.937     1558.634      605.636        0.510        0.250       71.823       29.933        0.174      339.991       13.704      860.608
04/11/2014  09:26:00     -102.808      -81.119       -1.475       57.260       48.089       31.286     3278.654     2312.586      978.783        1.186        0.329      130.957       32.194        0.060      339.875       13.507      860.608
04/11/2014  09:27:00      -91.299     -106.362        0.334       45.763       43.863       23.547     2094.233     1923.941      554.459        1.211        0.229      140.173       23.844        0.029      339.746       13.290      860.608
04/11/2014  09:28:00     -118.412      -78.850        5.096       69.788       48.984       32.479     4870.429     2399.435     1054.889        1.429        0.416      142.263       35.911        0.064      339.853       13.470      860.609
04/11/2014  09:29:00     -121.943      -95.388        3.711       47.064       44.792       24.719     2215.031     2006.288      611.016        1.441        0.242      154.819       20.748        0.018      339.793       13.370      860.604
04/11/2014  09:30:00     -123.524      -51.425        8.525       65.311       35.884       24.601     4265.469     1287.628      605.203        1.207        0.308      133.801       29.200        0.048      339.870       13.500      860.605
04/11/2014  09:31:00      -93.302      -71.210        9.441       73.322       44.689       31.785     5376.066     1997.109     1010.257        1.112        0.419      117.372       35.720        0.093      340.047       13.797      860.610
04/11/2014  09:32:00      -79.277     -110.645       -1.898       35.570       39.091       25.745     1265.234     1528.112      662.779        1.099        0.173      136.114       16.872        0.015      339.911       13.569      860.622
04/11/2014  09:33:00      -45.017     -106.302       -3.408       38.588       41.834       27.543     1489.017     1750.104      758.615        0.867        0.200      115.441       18.571        0.026      340.051       13.806      860.627
04/11/2014  09:34:00      -10.897      -82.841       16.778       33.282       52.398       28.389     1107.670     2745.599      805.952        0.596        0.233       83.555       15.058        0.032      340.054       13.811      860.634
04/11/2014  09:35:00      -85.993      -62.240       -5.079       41.313       39.015       23.186     1706.778     1522.198      537.606        0.753        0.188      106.154       18.025        0.029      340.079       13.852      860.641
04/11/2014  09:36:00      -26.124      -35.186       13.874       29.925       30.088       18.739      895.500      905.260      351.145        0.213        0.108       43.824       11.237        0.066      340.207       14.068      860.634
04/11/2014  09:37:00      -36.983      -28.599       -6.625       35.231       22.316       18.148     1241.253      497.988      329.339        0.215        0.103       46.751       20.651        0.195      340.131       13.940      860.641
04/11/2014  09:38:00      -18.918      -72.089        3.491       20.370       33.296       20.156      414.924     1108.593      406.255        0.375        0.096       74.530        7.129        0.009      340.093       13.876      860.639
04/11/2014  09:39:00      -53.925      -47.130        2.707       39.400       27.384       20.680     1552.395      749.911      427.668        0.393        0.136       71.618       19.364        0.073      340.124       13.927      860.636
04/11/2014  09:40:00      -32.585      -68.952       -1.689       25.980       22.661       16.555      674.955      513.508      274.069        0.364        0.073       76.263       12.303        0.026      340.089       13.869      860.641
04/11/2014  09:41:00      -40.784      -86.140       -6.458       22.895       31.785       19.383      524.198     1010.261      375.685        0.552        0.096       95.307        9.509        0.010      340.128       13.935      860.635
04/11/2014  09:42:00      -36.404      -62.041       -3.929       27.274       37.150       16.434      743.887     1380.124      270.060        0.379        0.120       71.933        6.938        0.009      340.130       13.938      860.624
04/11/2014  09:43:00      -28.354      -82.780       -9.216       24.448       36.045       16.605      597.697     1299.220      275.720        0.496        0.109       87.501       14.222        0.026      340.146       13.965      860.628
04/11/2014  09:44:00      -42.314      -37.721       -6.919       23.604       19.319       15.428      557.143      373.222      238.026        0.221        0.058       56.686       10.181        0.032      340.251       14.142      860.619
04/11/2014  09:45:00      -56.487      -45.838        0.100       42.047       26.557       15.295     1767.968      705.283      233.939        0.400        0.135       72.745       17.011        0.055      340.302       14.228      860.604
04/11/2014  09:46:00      -43.699      -13.496      -11.940       36.952       14.860       15.802     1365.455      220.810      249.704        0.203        0.092       45.735       19.935        0.190      340.286       14.201      860.609
04/11/2014  09:47:00      -12.060       14.270       20.750       23.266       16.641       23.224      541.327      276.937      539.355        0.107        0.068       18.684        6.997        0.140      340.562       14.668      860.592
04/11/2014  09:48:00       -3.278      -17.312       16.349       24.351       44.118       27.296      592.995     1946.422      745.064        0.193        0.164       17.620       24.643        1.956      340.415       14.420      860.581
04/11/2014  09:49:00       26.098        1.643       15.994       33.516       45.334       33.529     1123.337     2055.179     1124.206        0.262        0.215       26.149       22.872        0.765      340.637       14.794      860.576
04/11/2014  09:50:00       45.244        8.713       28.013       43.039       34.515       28.833     1852.369     1191.270      831.338        0.339        0.194       46.075       24.167        0.275      340.478       14.525      860.562
04/11/2014  09:51:00       -0.331       34.049       48.292       29.979       33.142       32.487      898.757     1098.400     1055.405        0.327        0.153       34.051       25.519        0.562      340.452       14.481      860.559
04/11/2014  09:52:00       18.335      -55.045        2.366       34.635       33.261       25.257     1199.614     1106.266      637.940        0.316        0.147       58.019       24.067        0.172      340.110       13.904      860.544
04/11/2014  09:53:00       -0.896      -13.180       26.993       23.081       42.559       32.441      532.754     1811.247     1052.402        0.215        0.170       13.211       18.290        1.917      340.807       15.083      860.532
04/11/2014  09:54:00       10.825      -14.829       15.497       15.691       29.616       22.177      246.196      877.103      491.830        0.110        0.081       18.360       21.740        1.402      340.943       15.312      860.527
04/11/2014  09:55:00       10.812      -10.533       20.578       17.483       17.719       19.063      305.669      313.978      363.401        0.082        0.049       15.095        9.882        0.429      340.952       15.329      860.524
04/11/2014  09:56:00      -20.042       -2.880       16.809       10.841       16.855       13.437      117.532      284.080      180.548        0.064        0.029       20.248       10.250        0.256      340.845       15.147      860.526
04/11/2014  09:57:00        6.752       11.815       18.041       28.473       13.985       20.772      810.706      195.588      431.457        0.097        0.072       13.608        8.312        0.373      340.834       15.129      860.517
04/11/2014  09:58:00       -7.565       18.508       21.671       21.095       46.928       33.826      444.980     2202.214     1144.181        0.233        0.190       19.994       24.517        1.504      340.805       15.080      860.512
04/11/2014  09:59:00       12.171      -17.258       21.349       32.810       47.472       31.033     1076.506     2253.626      963.046        0.260        0.215       21.118       22.992        1.185      340.556       14.659      860.506
04/11/2014  10:00:00      -26.835      -34.937       39.220       41.137       51.945       31.562     1692.287     2698.291      996.191        0.443        0.269       44.054       26.415        0.360      340.829       15.119      860.491
04/11/2014  10:01:00      -10.023      -41.212       20.112       28.331       41.934       26.313      802.624     1758.465      692.386        0.273        0.163       42.413       16.667        0.154      340.861       15.173      860.488
04/11/2014  10:02:00        2.356      -29.249       34.958       27.736       36.652       31.003      769.283     1343.371      961.156        0.258        0.154       29.343       23.177        0.624      340.923       15.278      860.468
04/11/2014  10:03:00       -6.855      -30.560       30.846       24.836       33.313       18.534      616.828     1109.752      343.518        0.200        0.104       31.319       15.316        0.239      341.083       15.549      860.464
04/11/2014  10:04:00       17.002      -61.319       -9.027       20.619       31.424       14.913      425.130      987.479      222.407        0.288        0.082       63.633       10.784        0.029      340.834       15.128      860.462
04/11/2014  10:05:00       23.159      -74.967        6.730       20.449       31.120       21.104      418.159      968.451      445.358        0.402        0.092       78.463        9.725        0.015      340.872       15.192      860.465
04/11/2014  10:06:00      -13.729     -142.471       -6.745       25.956       30.290       20.050      673.691      917.497      402.009        1.126        0.100      143.131       11.843        0.007      340.644       14.806      860.462
04/11/2014  10:07:00      -45.355      -23.212       -8.138       21.710       45.178       21.187      471.307     2041.061      448.910        0.281        0.148       50.950       21.885        0.185      340.694       14.893      860.466
04/11/2014  10:08:00      -30.518      -16.425       -3.502       39.621       42.928       26.908     1569.850     1842.804      724.014        0.267        0.207       34.658       15.746        0.206      340.734       14.959      860.477
04/11/2014  10:09:00      -37.256        7.111       -6.591       27.971       24.435       18.286      782.351      597.065      334.380        0.160        0.086       37.929       13.299        0.123      340.819       15.102      860.475
04/11/2014  10:10:00      -19.630      -21.756       -4.754       38.456       30.837       21.145     1478.890      950.944      447.115        0.188        0.144       29.303       14.495        0.245      340.873       15.195      860.468
04/11/2014  10:11:00      -30.460      -43.081      -13.047       38.826       34.568       24.844     1507.467     1194.944      617.227        0.314        0.166       52.762       14.078        0.071      340.906       15.248      860.465
04/11/2014  10:12:00      -58.697       -3.814       -1.774       36.744       22.449       21.012     1350.123      503.949      441.520        0.288        0.115       58.821       13.675        0.054      340.757       14.998      860.459
04/11/2014  10:13:00      -25.927       27.380       24.609       18.507       26.272       24.697      342.492      690.194      609.922        0.183        0.082       37.708       16.866        0.200      340.824       15.112      860.449
04/11/2014  10:14:00      -25.629      -14.329        1.130       17.439       17.591       14.193      304.132      309.452      201.438        0.084        0.041       29.363       10.353        0.124      340.620       14.765      860.440
04/11/2014  10:15:00      -13.462       14.086       -5.835       18.329       22.975       16.569      335.943      527.831      274.522        0.078        0.057       19.484       11.332        0.338      340.671       14.854      860.433
04/11/2014  10:16:00       36.819       14.614       27.824       38.279       31.035       22.896     1465.310      963.177      524.219        0.265        0.148       39.613       18.798        0.225      340.854       15.162      860.428
04/11/2014  10:17:00       51.161      -19.595        5.824       34.882       37.457       30.959     1216.751     1403.010      958.467        0.331        0.179       54.785       29.823        0.296      340.574       14.688      860.413
04/11/2014  10:18:00       30.378       -2.666       21.815       45.337       39.425       32.356     2055.421     1554.335     1046.934        0.303        0.233       30.494       27.889        0.836      340.862       15.176      860.414
04/11/2014  10:19:00      -23.472      -16.667        8.866       29.362       25.594       29.700      862.124      655.040      882.091        0.165        0.120       28.787       13.781        0.229      340.629       14.784      860.401
04/11/2014  10:20:00       27.039      -55.731      -13.611       32.732       34.849       23.461     1071.379     1214.458      550.437        0.343        0.142       61.944        8.560        0.019      340.450       14.479      860.396
04/11/2014  10:21:00        9.925       11.036       -5.035       21.081       31.854       26.464      444.419     1014.655      700.358        0.120        0.108       14.842       11.392        0.589      340.730       14.953      860.394
04/11/2014  10:22:00       -5.494       35.741        5.059       13.891       24.807       20.360      192.958      615.374      414.542        0.128        0.061       36.161       17.116        0.224      341.033       15.463      860.381
04/11/2014  10:23:00       -0.672       -3.122        0.417       23.576       35.373       19.596      555.823     1251.265      384.007        0.110        0.110        3.193        9.932        9.674      341.028       15.457      860.381
04/11/2014  10:24:00        9.474      -60.322        3.676       39.863       27.165       29.984     1589.087      737.926      899.054        0.348        0.161       61.062       17.469        0.082      340.478       14.527      860.370
04/11/2014  10:25:00      -30.729      -22.380       -4.607       19.352       27.051       17.060      374.513      731.736      291.057        0.143        0.070       38.015       10.156        0.071      340.564       14.674      860.355
04/11/2014  10:26:00      -16.821        4.936       17.466       15.646       12.624       13.779      244.805      159.374      189.850        0.060        0.030       17.531       12.370        0.498      341.162       15.684      860.358
04/11/2014  10:27:00       -2.875       13.567       18.077        9.866       12.221       14.090       97.341      149.352      198.518        0.048        0.022       13.868        9.159        0.436      341.146       15.657      860.338
04/11/2014  10:28:00      -18.330       -0.713       -2.782       23.760       16.589        8.866      564.549      275.180       78.611        0.063        0.046       18.344       11.221        0.374      340.866       15.182      860.329
04/11/2014  10:29:00      -27.429       11.440        4.752       16.477        8.599        8.923      271.503       73.951       79.614        0.067        0.021       29.719        9.320        0.098      341.032       15.462      860.327
04/11/2014  10:30:00       47.244       40.654        7.010       29.087       19.394       23.175      846.054      376.142      537.077        0.285        0.088       62.328       15.173        0.059      340.823       15.109      860.330
04/11/2014  10:31:00       51.297        2.032        0.634       25.461       28.176       19.452      648.265      793.859      378.374        0.223        0.091       51.337       11.678        0.052      340.864       15.179      860.326
04/11/2014  10:32:00        9.024       13.748       18.495       21.405       22.063       16.053      458.166      486.789      257.697        0.091        0.060       16.445       12.083        0.540      341.342       15.988      860.329
04/11/2014  10:33:00       46.841       33.987        1.988       36.455       21.337       27.549     1328.950      455.284      758.940        0.295        0.127       57.872       16.834        0.085      341.121       15.614      860.337
04/11/2014  10:34:00       86.313       51.596       11.997       36.223       23.426       29.769     1312.092      548.767      886.193        0.650        0.137      100.558       15.325        0.023      341.135       15.638      860.338
04/11/2014  10:35:00       41.772       95.466       -9.886       26.445       39.101       27.398      699.317     1528.855      750.664        0.697        0.149      104.205       21.973        0.044      341.142       15.650      860.331
04/11/2014  10:36:00       38.352       78.728       -6.502       20.747       36.386       24.803      430.419     1323.912      615.180        0.504        0.118       87.573       22.967        0.069      341.112       15.600      860.335
04/11/2014  10:37:00       37.798       42.049        0.022       20.320       21.854       16.428      412.889      477.584      269.890        0.218        0.058       56.540       12.527        0.049      341.149       15.659      860.347
04/11/2014  10:38:00       16.049       28.231       -3.621       28.774       22.102       12.614      827.958      488.518      159.123        0.127        0.074       32.474       11.363        0.122      341.117       15.608      860.353
04/11/2014  10:39:00       13.117       44.559       -2.194       16.737       28.282       19.115      280.143      799.886      365.383        0.180        0.072       46.450       16.648        0.128      341.212       15.768      860.332
04/11/2014  10:40:00        0.197       42.781      -16.738       10.301       15.070       10.058      106.111      227.097      101.165        0.127        0.022       42.782        7.320        0.029      341.141       15.649      860.337
04/11/2014  10:41:00        3.941       18.744       -4.059       14.407       14.418       11.099      207.575      207.870      123.184        0.046        0.027       19.154        8.841        0.213      341.244       15.821      860.345
04/11/2014  10:42:00        9.182       25.077        8.376       13.328       13.297       19.049      177.624      176.814      362.851        0.075        0.036       26.706       12.316        0.213      341.324       15.958      860.352
04/11/2014  10:43:00      -34.883       16.015        2.475       20.202       17.001       12.479      408.131      289.038      155.728        0.117        0.043       38.383        7.015        0.033      341.086       15.554      860.347
04/11/2014  10:44:00       25.099      -20.346       13.000       24.475       26.894       23.867      599.017      723.307      569.621        0.155        0.095       32.309       20.294        0.395      341.189       15.730      860.346
04/11/2014  10:45:00       35.294      -32.099        1.994       25.816       31.942       28.695      666.469     1020.311      823.391        0.239        0.126       47.708       13.954        0.086      340.908       15.254      860.345
04/11/2014  10:46:00       30.010      -12.793       -4.927       10.943       17.078       15.941      119.745      291.651      254.112        0.088        0.033       32.623        8.861        0.074      340.905       15.250      860.344
04/11/2014  10:47:00       -6.560        0.868        7.723       25.769       11.513       17.602      664.034      132.554      309.844        0.060        0.055        6.617        9.817        2.201      341.258       15.847      860.338
04/11/2014  10:48:00       -4.117      -15.566        3.929       19.581       20.276       11.715      383.417      411.109      137.250        0.060        0.047       16.101        8.666        0.290      341.390       16.070      860.345
04/11/2014  10:49:00        1.849       -0.902        5.686       11.617       21.601       16.381      134.962      466.584      268.323        0.045        0.043        2.057       12.764       38.488      341.662       16.530      860.341
04/11/2014  10:50:00      -15.881        0.816       10.076       20.075        9.561       11.885      402.992       91.412      141.250        0.049        0.032       15.902       12.076        0.577      342.012       17.124      860.336
04/11/2014  10:51:00      -49.206       -8.141      -11.277       17.689       17.578       21.456      312.884      308.972      460.355        0.185        0.054       49.875       13.926        0.078      341.410       16.103      860.339
04/11/2014  10:52:00       -8.021        6.376       11.382       17.307       14.948       14.598      299.538      223.454      213.095        0.049        0.037       10.246       10.143        0.980      342.035       17.163      860.332
04/11/2014  10:53:00        0.931       10.739        7.430       15.231       18.273       18.495      231.977      333.895      342.083        0.054        0.045       10.780        4.520        0.176      342.000       17.104      860.316
04/11/2014  10:54:00        9.962        8.011       -2.739       12.244       18.337       15.881      149.921      336.261      252.219        0.045        0.037       12.783        9.297        0.529      341.703       16.601      860.314
04/11/2014  10:55:00        8.988       35.020       -4.515       19.169       35.383       18.005      367.442     1251.956      324.193        0.164        0.097       36.155       22.750        0.396      341.800       16.764      860.302
04/11/2014  10:56:00       54.171       38.423        8.893       16.846       15.279       19.422      283.802      233.453      377.222        0.269        0.045       66.414        5.316        0.006      341.721       16.630      860.300
04/11/2014  10:57:00       -3.282      109.007      -17.656       29.982       28.011       14.353      898.939      784.630      205.996        0.705        0.094      109.057       15.503        0.020      341.575       16.383      860.288
04/11/2014  10:58:00       -3.658       61.000       -3.323       23.439       34.445       21.678      549.392     1186.482      469.954        0.298        0.110       61.110       20.897        0.117      341.949       17.017      860.290
04/11/2014  10:59:00       80.220       61.586        5.276       39.903       31.700       25.129     1592.288     1004.921      631.446        0.674        0.161      101.134       14.919        0.022      341.858       16.862      860.287
04/11/2014  11:00:00       54.888       54.259       60.606       47.305       33.331       25.477     2237.774     1110.929      649.094        0.681        0.200       77.180       17.458        0.051      342.173       17.397      860.285
04/11/2014  11:01:00      110.169       90.123       18.084       37.622       31.518       38.776     1415.408      993.367     1503.556        1.225        0.196      142.335        8.604        0.004      341.887       16.912      860.288
04/11/2014  11:02:00        0.355       42.952      -21.456       25.686       32.683       14.788      659.792     1068.161      218.695        0.213        0.097       42.953       11.174        0.068      341.762       16.699      860.283
04/11/2014  11:03:00       -2.599      -19.284      -13.767       12.754       14.859        9.033      162.662      220.777       81.587        0.052        0.023       19.459        6.383        0.108      341.981       17.071      860.266
04/11/2014  11:04:00       16.110       37.654        5.126       29.580       39.541       27.579      874.989     1563.521      760.603        0.245        0.160       40.956       22.747        0.308      342.399       17.782      860.256
04/11/2014  11:05:00      -28.758      160.374       -9.611       35.504       72.913       31.481     1260.508     5316.340      991.056        1.710        0.378      162.932       39.434        0.059      342.182       17.412      860.243
04/11/2014  11:06:00      -39.623       87.600       -4.076       39.049       50.728       31.933     1524.795     2573.283     1019.715        0.719        0.256       96.144       31.632        0.108      342.354       17.706      860.232
04/11/2014  11:07:00      -14.167       38.126       14.384       21.617       37.076       23.866      467.316     1374.652      569.563        0.214        0.121       40.673       23.015        0.320      342.945       18.710      860.213
04/11/2014  11:08:00        6.935       70.470        3.834       46.863       58.496       26.174     2196.100     3421.823      685.054        0.566        0.315       70.810       17.360        0.060      342.770       18.412      860.195
04/11/2014  11:09:00      142.661       87.937        8.971       69.956       50.302       53.833     4893.819     2530.318     2898.001        1.924        0.516      167.586       35.109        0.044      342.501       17.953      860.187
04/11/2014  11:10:00       83.801       90.463        4.874       68.023       69.658       41.463     4627.121     4852.277     1719.189        1.321        0.560      123.313       27.440        0.050      342.345       17.689      860.170
04/11/2014  11:11:00       65.945      106.124       -1.870       60.749       60.316       46.840     3690.436     3638.054     2193.943        1.257        0.476      124.944       41.899        0.112      342.519       17.985      860.169
04/11/2014  11:12:00       50.790       49.305        7.128       50.439       37.116       38.086     2544.106     1377.596     1450.542        0.522        0.269       70.785       23.627        0.111      342.508       17.967      860.159
04/11/2014  11:13:00        6.470       19.692       33.246       22.144       21.175       14.836      490.376      448.397      220.109        0.135        0.058       20.728        9.445        0.208      343.417       19.516      860.141
04/11/2014  11:14:00       82.674       64.874       29.160       57.623       49.432       33.590     3320.381     2443.567     1128.283        0.939        0.345      105.088       25.188        0.057      342.338       17.679      860.125
04/11/2014  11:15:00       22.753       53.986        5.019       34.331       36.496       35.333     1178.596     1331.994     1248.420        0.361        0.188       58.584       23.372        0.159      342.610       18.141      860.106
04/11/2014  11:16:00      107.900      102.630       45.765       68.595       54.866       51.660     4705.278     3010.241     2668.709        1.732        0.519      148.913       24.861        0.028      342.677       18.254      860.091
04/11/2014  11:17:00       27.814       65.299       -3.324       81.546       72.689       35.368     6649.767     5283.661     1250.866        0.911        0.659       70.976       27.391        0.149      342.922       18.671      860.075
04/11/2014  11:18:00       53.301       60.051       19.113       78.162       52.148       42.303     6109.340     2719.438     1789.550        0.871        0.531       80.294       38.424        0.229      343.138       19.039      860.067
04/11/2014  11:19:00       42.243       47.042        7.374       66.997       42.126       35.625     4488.658     1774.622     1269.156        0.579        0.377       63.225       25.810        0.167      343.170       19.093      860.054
04/11/2014  11:20:00       63.486       67.753       19.059       50.933       45.435       41.963     2594.133     2064.299     1760.899        0.770        0.321       92.848       18.931        0.042      343.055       18.897      860.038
04/11/2014  11:21:00       86.892       68.812        1.485       38.358       35.934       33.914     1471.357     1291.284     1150.178        0.810        0.196      110.839       19.214        0.030      343.128       19.022      860.028
04/11/2014  11:22:00       43.463       50.220       15.594       30.910       34.257       35.749      955.408     1173.562     1278.004        0.403        0.170       66.416       25.060        0.142      343.476       19.614      860.023
04/11/2014  11:23:00      103.942       92.656        9.805       70.876       61.817       44.050     5023.376     3821.372     1940.427        1.513        0.539      139.245       35.936        0.067      342.924       18.673      860.000
04/11/2014  11:24:00      103.937       90.351       21.393       46.364       46.251       43.371     2149.629     2139.148     1881.039        1.280        0.308      137.718       31.671        0.053      342.816       18.490      859.981
04/11/2014  11:25:00       22.157       97.347        2.563       61.709       76.308       39.530     3808.023     5822.956     1562.603        1.058        0.560       99.836       42.903        0.185      343.081       18.941      859.964
04/11/2014  11:26:00      -44.638      104.822        1.559       35.309       46.167       33.254     1246.730     2131.437     1105.840        0.873        0.224      113.931       29.257        0.066      343.377       19.446      859.953
04/11/2014  11:27:00      -25.268       66.726        8.899       47.723       53.933       34.901     2277.486     2908.771     1218.046        0.579        0.320       71.350       34.518        0.234      343.832       20.223      859.930
04/11/2014  11:28:00      -25.824      131.769       -4.150       35.285       47.595       34.156     1244.998     2265.315     1166.600        1.136        0.234      134.276       27.325        0.041      343.254       19.236      859.912
04/11/2014  11:29:00       -7.843       54.464       31.647       46.015       66.653       43.312     2117.423     4442.563     1875.898        0.623        0.422       55.025       43.848        0.635      344.150       20.767      859.892
04/11/2014  11:30:00      113.600       64.773       35.646      106.480       55.974       45.910    11338.085     3133.132     2107.758        1.747        0.829      130.768       43.903        0.113      343.656       19.921      859.872
04/11/2014  11:31:00      154.265       79.406      -29.541       31.158       68.790       23.558      970.832     4732.086      554.971        1.862        0.313      173.502       14.627        0.007      342.689       18.272      859.872
04/11/2014  11:32:00      -10.948       -0.606      -12.280       90.052       38.121       41.342     8109.383     1453.237     1709.168        0.577        0.564       10.965       38.897       12.585      343.122       19.012      859.847
04/11/2014  11:33:00      -22.280        3.871        0.025       49.337       26.401       21.921     2434.170      696.988      480.513        0.206        0.181       22.614       13.179        0.340      343.365       19.425      859.820
04/11/2014  11:34:00       42.394       26.750       46.539       37.622       48.703       34.636     1415.383     2372.016     1199.647        0.483        0.249       50.128       29.868        0.355      343.684       19.969      859.800
04/11/2014  11:35:00      152.912       92.469       34.069       88.299       59.531       67.899     7796.677     3543.962     4610.265        2.452        0.798      178.697       55.824        0.098      342.970       18.751      859.777
04/11/2014  11:36:00       17.141       98.964      129.561       62.215       86.272       58.160     3870.660     7442.842     3382.635        2.078        0.735      100.437       63.477        0.399      343.230       19.193      859.751
04/11/2014  11:37:00       60.014       75.728       97.539       75.928       66.366       52.980     5765.082     4404.452     2806.898        1.591        0.649       96.626       47.141        0.238      343.275       19.272      859.731
04/11/2014  11:38:00       45.339       65.930       94.663       51.143      107.431       58.010     2615.650    11541.367     3365.143        1.644        0.876       80.015       64.750        0.655      343.588       19.806      859.722
04/11/2014  11:39:00       48.245       35.309       70.213       72.635       90.366       60.202     5275.912     8166.064     3624.264        1.278        0.853       59.785       65.292        1.193      343.510       19.672      859.723
04/11/2014  11:40:00       27.281       79.986      100.940       71.468       70.814       57.111     5107.700     5014.618     3261.723        1.535        0.669       84.511       46.376        0.301      343.562       19.761      859.725
04/11/2014  11:41:00       48.042      -37.427       34.835       52.422       72.243       48.201     2748.065     5219.115     2323.355        0.760        0.515       60.900       54.350        0.796      343.178       19.107      859.731
04/11/2014  11:42:00       34.442      -40.082       -0.543       32.197       37.565       34.517     1036.670     1411.137     1191.450        0.322        0.182       52.847       17.649        0.112      342.687       18.271      859.725
04/11/2014  11:43:00       39.109      -58.963       11.714       31.518       38.919       33.190      993.389     1514.715     1101.581        0.438        0.180       70.754       24.981        0.125      342.737       18.358      859.711
04/11/2014  11:44:00       19.674       21.776       42.413       37.319       52.045       32.381     1392.722     2708.635     1048.504        0.390        0.257       29.347       30.867        1.106      343.195       19.137      859.696
04/11/2014  11:45:00       16.573      -42.454       27.543       38.795       71.737       37.982     1505.062     5146.212     1442.664        0.546        0.405       45.574       34.754        0.582      343.721       20.032      859.684
04/11/2014  11:46:00       13.124      -47.742        2.052       35.676       44.183       29.323     1272.791     1952.164      859.838        0.327        0.204       49.514       25.884        0.273      343.689       19.977      859.674
04/11/2014  11:47:00       32.321     -111.972      -21.129       53.839       55.119       42.774     2898.590     3038.092     1829.613        1.090        0.388      116.543       36.853        0.100      343.499       19.653      859.662
04/11/2014  11:48:00       92.749     -117.136      -35.810       43.598       39.137       25.471     1900.744     1531.744      648.764        1.384        0.204      149.409       17.633        0.014      343.241       19.214      859.657
04/11/2014  11:49:00       17.704      -27.485       43.226       36.968       47.533       26.885     1366.618     2259.396      722.814        0.364        0.217       32.693       27.644        0.715      343.625       19.868      859.661
04/11/2014  11:50:00       12.285      -11.363       32.241       24.258       53.705       29.247      588.461     2884.258      855.390        0.282        0.216       16.734       29.302        3.066      343.196       19.137      859.653
04/11/2014  11:51:00       37.294       -3.136       17.554       60.314       41.062       32.176     3637.783     1686.047     1035.325        0.403        0.318       37.426       27.767        0.550      342.953       18.726      859.649
04/11/2014  11:52:00       68.729      -37.036        5.781       39.848       36.904       29.296     1587.889     1361.939      858.232        0.497        0.190       78.072       26.069        0.111      342.922       18.671      859.641
04/11/2014  11:53:00       38.631        7.276       40.628       54.232       42.140       34.863     2941.083     1775.738     1215.453        0.456        0.297       39.311       29.847        0.576      343.148       19.054      859.630
04/11/2014  11:54:00       -4.277       59.022       79.853       28.782       51.629       31.995      828.386     2665.593     1023.682        0.720        0.226       59.177       25.591        0.187      343.272       19.268      859.620
04/11/2014  11:55:00       48.134       -3.440       35.846       38.509       33.079       32.485     1482.975     1094.208     1055.307        0.362        0.182       48.257       30.408        0.397      343.222       19.183      859.630
04/11/2014  11:56:00       31.597      -23.592       30.363       47.868       50.724       38.831     2291.301     2572.910     1507.850        0.442        0.319       39.433       30.120        0.583      343.401       19.486      859.604
04/11/2014  11:57:00       55.237      -24.820       19.624       50.404       56.475       44.444     2540.557     3189.466     1975.274        0.588        0.385       60.557       47.984        0.628      343.452       19.574      859.601
04/11/2014  11:58:00       31.982       14.514       48.046       45.447       42.915       26.454     2065.412     1841.722      699.788        0.407        0.230       35.122       29.093        0.686      343.430       19.536      859.584
04/11/2014  11:59:00       -4.030       10.919       29.115       17.773       19.129       16.908      315.869      365.933      285.876        0.098        0.048       11.639        9.244        0.631      343.811       20.187      859.565
04/11/2014  12:00:00      -63.635      -47.324       -9.181       32.390       38.876       19.348     1049.103     1511.326      374.357        0.465        0.147       79.303       13.880        0.031      343.520       19.689      859.547
04/11/2014  12:01:00      -36.274      -31.411       13.781       51.288       31.548       24.091     2630.436      995.249      580.372        0.335        0.210       47.984       21.951        0.209      343.738       20.062      859.523
04/11/2014  12:02:00        3.215      -23.191       26.654       30.033       37.649       24.522      901.993     1417.436      601.345        0.209        0.146       23.413       14.609        0.389      343.909       20.354      859.505
04/11/2014  12:03:00      -23.404       -5.971       14.087       30.240       48.638       26.188      914.481     2365.649      685.792        0.237        0.198       24.154       13.495        0.312      343.437       19.548      859.491
04/11/2014  12:04:00       19.400      -74.350        9.953       37.164       62.996       29.013     1381.179     3968.475      841.775        0.610        0.310       76.840       18.411        0.057      343.591       19.810      859.479
04/11/2014  12:05:00        1.539        4.689       36.554       20.835       57.612       26.969      434.087     3319.174      727.339        0.292        0.224        4.936       24.168       23.978      343.817       20.195      859.470
04/11/2014  12:06:00       29.387       13.808       46.490       63.434       73.626       45.303     4023.923     5420.856     2052.353        0.735        0.575       32.470       44.309        1.862      343.531       19.707      859.458
04/11/2014  12:07:00       24.925      -20.966       21.779       27.568       53.578       31.386      760.009     2870.634      985.060        0.307        0.231       32.570       37.020        1.292      343.594       19.815      859.449
04/11/2014  12:08:00       24.691       46.845        5.804       29.538       57.350       24.912      872.476     3288.992      620.593        0.381        0.239       52.954       22.520        0.181      343.633       19.882      859.439
04/11/2014  12:09:00       54.151       40.476       15.346       54.486       37.189       27.473     2968.758     1383.014      754.760        0.496        0.255       67.607       23.226        0.118      343.811       20.186      859.420
04/11/2014  12:10:00       55.382       18.413       30.462       59.545       47.758       34.367     3545.605     2280.787     1181.079        0.567        0.350       58.363       31.334        0.288      343.738       20.062      859.406
04/11/2014  12:11:00        0.708       94.290      111.455       43.080       53.530       36.856     1855.928     2865.416     1358.350        1.370        0.304       94.292       28.261        0.090      343.591       19.810      859.400
04/11/2014  12:12:00       36.566       80.660       85.709       58.063       46.709       40.200     3371.308     2181.747     1616.077        1.118        0.358       88.562       32.941        0.138      343.230       19.194      859.404
04/11/2014  12:13:00       80.171      -27.467       16.442       64.066       80.267       53.447     4104.456     6442.785     2856.626        1.043        0.670       84.746       56.212        0.440      343.127       19.018      859.407
04/11/2014  12:14:00       42.030      -35.841        8.698       33.967       50.524       27.091     1153.762     2552.680      733.936        0.378        0.222       55.236       34.856        0.398      343.463       19.593      859.393
04/11/2014  12:15:00        1.406       18.132       30.922       27.250       34.322       25.427      742.582     1178.001      646.520        0.193        0.128       18.186       22.734        1.563      343.760       20.099      859.373
04/11/2014  12:16:00       12.944       44.989       17.142       23.182       18.811       23.711      537.398      353.864      562.226        0.197        0.073       46.814       15.524        0.110      343.683       19.967      859.363
04/11/2014  12:17:00       41.172      -45.799       14.139       65.786       47.425       38.593     4327.770     2249.128     1489.412        0.603        0.403       61.585       36.725        0.356      343.935       20.398      859.356
04/11/2014  12:18:00       31.460      -70.866       15.243       27.082       35.223       29.196      733.429     1240.686      852.420        0.453        0.141       77.536       17.970        0.054      343.211       19.164      859.349
04/11/2014  12:19:00      -20.593       -9.145       -2.066       26.901       10.730        9.376      723.650      115.135       87.910        0.072        0.046       22.532        5.915        0.069      343.529       19.705      859.337
04/11/2014  12:20:00      -81.159      -23.620      -16.198       18.375       31.299       17.597      337.652      979.640      309.670        0.452        0.081       84.526       10.393        0.015      343.475       19.613      859.315
04/11/2014  12:21:00      -76.256      -37.782       -5.036       13.802       19.213       14.341      190.507      369.124      205.666        0.402        0.038       85.103       10.466        0.015      343.459       19.586      859.288
04/11/2014  12:22:00       -3.392       12.873       28.798       20.254       21.087       20.515      410.218      444.644      420.874        0.114        0.064       13.313       14.093        1.121      343.922       20.377      859.270
04/11/2014  12:23:00       44.734       17.600        5.285       29.315       19.075       20.352      859.363      363.855      414.218        0.199        0.082       48.072       12.065        0.063      343.647       19.907      859.258
04/11/2014  12:24:00       27.607       19.377       34.990       25.851       25.516       27.640      668.267      651.046      763.967        0.222        0.104       33.729       17.422        0.267      344.189       20.830      859.243
04/11/2014  12:25:00       14.304       12.620       22.994       40.648       17.166       29.060     1652.244      294.685      844.504        0.184        0.140       19.075       25.664        1.810      344.080       20.645      859.226
04/11/2014  12:26:00        3.560        2.204      -11.583       39.400       45.514       24.552     1552.323     2071.533      602.777        0.219        0.211        4.187       15.599       13.882      343.846       20.245      859.212
04/11/2014  12:27:00       36.363      -73.370        9.888       33.379       31.806       23.700     1114.158     1011.634      561.681        0.474        0.134       81.886       16.433        0.040      343.705       20.005      859.199
04/11/2014  12:28:00       49.260      -60.122       -0.273       46.114       62.031       40.902     2126.457     3847.899     1672.964        0.684        0.382       77.725       40.591        0.273      343.979       20.473      859.179
04/11/2014  12:29:00       85.089      -94.890      -23.809       32.154       42.339       23.491     1033.907     1792.560      551.805        1.009        0.169      127.453       13.702        0.012      343.807       20.179      859.163
04/11/2014  12:30:00       22.340       32.981       32.939       40.675       41.887       27.141     1654.450     1754.515      736.626        0.341        0.207       39.835       22.793        0.327      343.905       20.346      859.151
04/11/2014  12:31:00      -14.151      -10.473       15.984       14.938       26.854       23.762      223.136      721.122      564.617        0.104        0.075       17.605       13.244        0.566      344.219       20.884      859.113
04/11/2014  12:32:00       26.934       71.856       10.715       43.236       44.712       35.612     1869.382     1999.150     1268.200        0.557        0.257       76.739       31.069        0.164      343.989       20.490      859.094
04/11/2014  12:33:00       70.822       60.337       14.325       88.802       61.931       48.536     7885.741     3835.457     2355.724        1.147        0.704       93.039       40.365        0.188      344.237       20.912      859.069
04/11/2014  12:34:00      109.978       77.888       10.618       58.428       56.191       37.158     3413.843     3157.452     1380.704        1.311        0.398      134.766       19.637        0.021      344.153       20.769      859.038
04/11/2014  12:35:00       71.544       81.838       11.458       57.188       42.783       42.204     3270.464     1830.407     1781.161        0.941        0.344      108.702       30.892        0.081      344.142       20.751      859.024
04/11/2014  12:36:00      123.293      104.843       36.317       53.219       34.350       39.131     2832.272     1179.908     1531.257        1.653        0.277      161.843        7.084        0.002      343.929       20.386      858.997
04/11/2014  12:37:00       37.138      -32.160       10.775       44.173       68.644       40.956     1951.230     4712.016     1677.364        0.543        0.417       49.127       39.993        0.663      344.383       21.162      858.977
04/11/2014  12:38:00       68.624     -125.391       -3.828       77.357      106.460       75.484     5984.059    11333.827     5697.880        2.173        1.151      142.941       80.029        0.313      344.511       21.380      858.938
04/11/2014  12:39:00       80.041      -65.427       26.897       67.468       85.725       65.380     4551.870     7348.763     4274.583        1.379        0.809      103.379       62.948        0.371      344.463       21.299      858.953
04/11/2014  12:40:00      -25.701      -51.996        9.463       81.017       67.895       31.642     6563.738     4609.686     1001.211        0.781        0.609       58.001       35.472        0.374      344.268       20.967      858.947
04/11/2014  12:41:00      -41.104      -50.846        8.512       22.328       46.304       20.827      498.559     2144.053      433.759        0.371        0.154       65.383       14.777        0.051      344.027       20.556      858.938
04/11/2014  12:42:00       24.550       33.278       21.154       45.759       31.849       34.771     2093.855     1014.387     1209.004        0.324        0.216       41.354       16.022        0.150      344.460       21.296      858.932
04/11/2014  12:43:00       19.384      -17.265       40.521       32.825       44.399       38.817     1077.464     1971.262     1506.777        0.343        0.228       25.958       33.140        1.630      344.495       21.356      858.916
04/11/2014  12:44:00       16.656       30.118       -5.687       34.068       24.930       32.152     1160.612      621.498     1033.757        0.202        0.141       34.417       16.221        0.222      344.413       21.216      858.914
04/11/2014  12:45:00        6.787       -8.458       15.647       26.550       27.136       21.129      704.918      736.372      446.448        0.112        0.094       10.844       14.123        1.696      344.883       22.018      858.897
04/11/2014  12:46:00       47.165      -23.235       30.175       48.767       44.490       31.619     2378.176     1979.364      999.773        0.452        0.268       52.578       33.607        0.409      344.824       21.917      858.886
04/11/2014  12:47:00       37.509      -15.027       -0.189       45.484       32.807       30.431     2068.765     1076.331      926.049        0.285        0.204       40.407       26.340        0.425      344.837       21.939      858.861
04/11/2014  12:48:00       36.376      -27.683       17.463       48.652       42.741       41.913     2367.000     1826.812     1756.667        0.417        0.298       45.711       40.085        0.769      344.718       21.736      858.855
04/11/2014  12:49:00       24.784       29.576       44.176       23.974       28.404       17.012      574.774      806.793      289.409        0.256        0.084       38.587       11.627        0.091      345.089       22.372      858.849
04/11/2014  12:50:00      -70.552       39.721        9.651       54.610       30.180       29.053     2982.213      910.859      844.083        0.569        0.237       80.965       32.572        0.162      344.918       22.080      858.842
04/11/2014  12:51:00       11.527        5.755       32.131       70.472       38.650       33.788     4966.310     1493.834     1141.618        0.440        0.380       12.884       42.209       10.733      344.710       21.724      858.831
04/11/2014  12:52:00       56.181       23.547       14.324       38.970       36.845       26.794     1518.673     1357.553      717.934        0.375        0.180       60.916       18.426        0.092      344.541       21.432      858.808
04/11/2014  12:53:00      -25.533      -65.857        2.556       73.113       43.237       31.475     5345.525     1869.468      990.663        0.660        0.410       70.634        8.168        0.013      344.396       21.185      858.801
04/11/2014  12:54:00     -118.551      -37.924      -16.727       30.277       54.453       24.977      916.720     2965.109      623.838        1.014        0.225      124.469       18.973        0.023      344.037       20.573      858.779
04/11/2014  12:55:00      -56.524      -55.245       -6.721       85.943       65.532       24.898     7386.210     4294.489      619.928        0.929        0.615       79.038       25.583        0.105      344.275       20.978      858.764
04/11/2014  12:56:00      -20.603     -110.864      -12.096       40.003       62.258       28.740     1600.270     3876.097      825.995        0.958        0.315      112.762       21.555        0.037      344.418       21.223      858.755
04/11/2014  12:57:00      -61.633      -36.284        2.175       48.331       49.605       28.628     2335.927     2460.626      819.575        0.537        0.281       71.520       16.537        0.053      344.780       21.842      858.736
04/11/2014  12:58:00      -52.148       21.844        7.013       36.759       33.613       20.348     1351.239     1129.813      414.046        0.307        0.145       56.538       20.896        0.137      344.510       21.380      858.717
04/11/2014  12:59:00      -17.476       24.361        6.033       20.027       23.430       31.995      401.096      548.946     1023.657        0.145        0.099       29.981       19.172        0.409      344.876       22.007      858.696
04/11/2014  13:00:00      -24.138      -11.018      -23.117       28.772       18.807       12.996      827.814      353.690      168.887        0.129        0.068       26.534       10.352        0.152      344.614       21.557      858.670
04/11/2014  13:01:00       20.509       -1.208       10.247       50.057       36.374       31.329     2505.708     1323.072      981.530        0.267        0.241       20.544       23.995        1.364      345.041       22.290      858.649
04/11/2014  13:02:00      -42.189       52.594       10.093       50.548       48.485       31.322     2555.109     2350.798      981.063        0.527        0.294       67.425       24.100        0.128      345.100       22.389      858.628
04/11/2014  13:03:00     -101.699       48.016      -18.645       58.961       51.787       24.415     3476.428     2681.870      596.070        0.987        0.338      112.464       23.436        0.043      344.651       21.621      858.601
04/11/2014  13:04:00      -47.384      -10.154        8.840       65.235       35.542       24.506     4255.640     1263.260      600.532        0.427        0.306       48.460       24.292        0.251      345.285       22.707      858.590
04/11/2014  13:05:00     -119.998        0.412       -3.762       72.379       52.732       36.888     5238.769     2780.640     1360.754        1.190        0.469      119.999       37.726        0.099      344.733       21.761      858.586
04/11/2014  13:06:00       13.152      -17.223       37.916       48.367       52.241       30.929     2339.408     2729.113      956.575        0.396        0.301       21.671       33.592        2.403      345.287       22.710      858.570
04/11/2014  13:07:00       19.150       17.658       25.799       56.289       36.151       28.225     3168.461     1306.874      796.636        0.331        0.264       26.048       13.355        0.263      345.332       22.787      858.564
04/11/2014  13:08:00      -63.079      -24.569       -9.508       39.390       45.584       21.738     1551.561     2077.908      472.521        0.439        0.205       67.694       15.197        0.050      345.197       22.555      858.539
04/11/2014  13:09:00      -56.665      -82.763      -10.161       49.704       55.845       28.990     2470.509     3118.693      840.417        0.830        0.321      100.303       16.878        0.028      344.939       22.114      858.523
04/11/2014  13:10:00      -42.936      -62.038        4.089       61.043       80.040       35.301     3726.270     6406.388     1246.188        0.854        0.569       75.447       35.171        0.217      345.206       22.571      858.516
04/11/2014  13:11:00       21.020      -77.337        5.650       86.385       85.271       41.960     7462.293     7271.121     1760.683        1.147        0.825       80.143       44.830        0.313      345.201       22.562      858.504
04/11/2014  13:12:00      -16.122      -85.383       14.786       99.529       96.670       62.193     9905.926     9345.010     3868.008        1.544        1.156       86.892       45.304        0.272      345.161       22.492      858.458
04/11/2014  13:13:00      -24.803      -90.369        3.154      106.697       96.693       57.863    11384.311     9349.550     3348.085        1.643        1.204       93.711       33.759        0.130      345.355       22.826      858.447
04/11/2014  13:14:00      -50.184      -86.813        4.957       99.318       68.804       57.967     9864.127     4734.031     3360.148        1.402        0.898      100.274       39.630        0.156      345.415       22.929      858.420
04/11/2014  13:15:00      -94.816      -82.019        5.163       87.890       87.896       39.814     7724.645     7725.629     1585.175        1.639        0.852      125.368       39.190        0.098      345.289       22.712      858.426
04/11/2014  13:16:00      -33.773      -75.117        9.077       64.761       72.220       36.020     4193.933     5215.796     1297.444        0.878        0.535       82.360       34.924        0.180      345.092       22.377      858.429
04/11/2014  13:17:00     -109.267     -161.989      -21.328       73.496       98.117       49.535     5401.615     9626.860     2453.724        2.805        0.874      195.396       25.844        0.017      344.612       21.552      858.437
04/11/2014  13:18:00        3.612       24.124        2.658       58.290       59.296       39.394     3397.743     3516.040     1551.893        0.453        0.423       24.393       45.153        3.426      344.649       21.618      858.430
04/11/2014  13:19:00       13.893      144.455      -12.642       43.988       71.901       40.929     1934.926     5169.792     1675.206        1.500        0.439      145.122       41.308        0.081      344.594       21.523      858.384
04/11/2014  13:20:00      -17.094       40.552       16.678       31.216       73.213       29.411      974.411     5360.204      865.020        0.471        0.360       44.007       33.692        0.586      345.511       23.095      858.359
04/11/2014  13:21:00      -59.864     -101.620        2.180       56.426       46.950       35.475     3183.863     2204.300     1258.464        1.028        0.332      117.941       21.311        0.033      344.825       21.919      858.355
04/11/2014  13:22:00      -30.217      -44.736       13.884       60.660       45.099       32.326     3679.610     2033.962     1044.957        0.493        0.338       53.985       25.840        0.229      345.193       22.549      858.340
04/11/2014  13:23:00      -49.691      -30.373        7.221       59.577       43.431       25.015     3549.361     1886.251      625.725        0.475        0.303       58.238       25.715        0.195      345.113       22.412      858.332
04/11/2014  13:24:00      -50.680      -46.717       -5.319       66.881       47.806       34.793     4473.065     2285.390     1210.540        0.637        0.398       68.927       22.749        0.109      344.974       22.175      858.317
04/11/2014  13:25:00     -128.830      -92.729       12.330       89.616       64.021       40.275     8030.949     4098.740     1622.052        1.955        0.688      158.732       39.682        0.062      344.944       22.120      858.306
04/11/2014  13:26:00     -120.790      -85.377        3.256       76.379       55.072       39.628     5833.800     3032.905     1570.344        1.616        0.522      147.917       40.886        0.076      344.824       21.916      858.301
04/11/2014  13:27:00     -124.650     -121.246      -13.221      115.327       92.423       38.562    13300.344     8541.938     1487.049        2.687        1.166      173.892       52.043        0.090      344.719       21.737      858.292
04/11/2014  13:28:00     -168.812      -89.979        3.770       91.060       71.807       38.072     8291.958     5156.279     1449.470        2.575        0.745      191.295       34.590        0.033      344.699       21.703      858.282
04/11/2014  13:29:00      -88.482        8.717      -10.513       63.882       38.516       23.891     4080.871     1483.512      570.795        0.707        0.307       88.910       22.967        0.067      344.714       21.729      858.266
04/11/2014  13:30:00     -112.877      -42.611       -2.360       77.565       73.209       36.727     6016.317     5359.485     1348.865        1.364        0.636      120.652       44.703        0.137      344.996       22.212      858.240
04/11/2014  13:31:00     -204.265      -86.668       -8.170      114.620       74.246       46.821    13137.735     5512.498     2192.166        3.507        1.042      221.890       53.567        0.058      345.004       22.222      858.206
04/11/2014  13:32:00     -124.437      -91.603        8.003      110.904       82.457       44.461    12299.589     6799.178     1976.816        2.250        1.054      154.518       49.530        0.103      345.294       22.719      858.206
04/11/2014  13:33:00     -139.930     -161.450        1.436      109.963       87.779       57.377    12091.856     7705.152     3292.113        3.436        1.154      213.650       53.753        0.063      344.868       21.988      858.223
04/11/2014  13:34:00      -66.557     -210.373       -4.440       72.224      123.722       38.262     5216.301    15307.027     1463.963        3.534        1.099      220.651       25.760        0.014      344.830       21.924      858.227
04/11/2014  13:35:00      -75.498      -65.910        4.190       99.676       73.495       47.261     9935.258     5401.477     2233.649        1.381        0.879      100.221       41.643        0.173      344.967       22.160      858.232
04/11/2014  13:36:00      -60.170      -12.482       21.721       77.934       50.029       30.764     6073.723     2502.866      946.430        0.688        0.476       61.451       40.598        0.436      345.107       22.402      858.178
04/11/2014  13:37:00     -126.595      -53.055       -2.041       63.413       43.136       27.622     4021.166     1860.733      762.984        1.274        0.332      137.263       19.713        0.021      344.950       22.132      858.130
04/11/2014  13:38:00      -66.185      -21.616        4.138       38.437       32.389       24.303     1477.368     1049.020      590.647        0.399        0.156       69.625       12.951        0.035      345.168       22.506      858.117
04/11/2014  13:39:00      -73.439      -25.494       -6.954       18.732       19.078       14.084      350.878      363.985      198.354        0.350        0.046       77.738        7.979        0.011      344.865       21.990      858.098
04/11/2014  13:40:00      -83.136      -33.507       -9.172       33.632       22.344       20.926     1131.078      499.233      437.887        0.509        0.103       89.634        8.978        0.010      345.211       22.580      858.083
04/11/2014  13:41:00      -26.931      -71.442       -4.131       98.571       58.703       37.763     9716.338     3445.988     1426.045        1.021        0.729       76.350       32.674        0.183      345.468       23.019      858.087
04/11/2014  13:42:00      -56.659      -25.632      -21.264       44.898       57.790       27.820     2015.860     3339.661      773.954        0.522        0.306       62.187       30.496        0.240      344.829       21.926      858.086
04/11/2014  13:43:00       10.669       11.835       51.328       38.529       37.503       35.072     1484.460     1406.444     1230.012        0.350        0.206       15.934       20.918        1.723      345.865       23.702      858.048
04/11/2014  13:44:00       -6.923      -44.563       72.141       54.310       57.104       40.878     2949.602     3260.851     1671.040        0.756        0.394       45.098       19.050        0.178      345.579       23.210      858.024
04/11/2014  13:45:00       18.723       13.036       38.505       38.438       49.226       34.816     1477.461     2423.246     1212.175        0.356        0.256       22.814       25.533        1.253      345.355       22.827      858.019
04/11/2014  13:46:00        5.406      -13.980       -6.258       42.539       47.150       28.195     1809.527     2223.164      794.932        0.254        0.241       14.989       14.921        0.991      345.533       23.130      857.999
04/11/2014  13:47:00      -84.784      -61.559      -13.950       54.890       57.215       26.119     3012.915     3273.503      682.208        0.907        0.348      104.775       21.913        0.044      345.138       22.454      858.003
04/11/2014  13:48:00      -71.079      -34.674        3.794       50.426       53.585       27.875     2542.802     2871.402      776.988        0.623        0.310       79.085       26.094        0.109      345.084       22.363      857.982
04/11/2014  13:49:00       -7.575      -36.112       -9.727       33.504       40.412       28.404     1122.506     1633.156      806.781        0.251        0.178       36.898       12.475        0.114      345.163       22.498      857.971
04/11/2014  13:50:00      -67.436      -70.278      -18.873       39.872       39.660       27.570     1589.806     1572.905      760.109        0.688        0.196       97.399       20.039        0.042      345.019       22.250      857.954
04/11/2014  13:51:00      -46.520      -22.076      -17.498       24.304       36.036       24.404      590.686     1298.580      595.548        0.272        0.124       51.492       19.785        0.148      344.729       21.755      857.937
04/11/2014  13:52:00      -71.557        4.720      -23.923       20.333       25.963       12.904      413.414      674.076      166.520        0.348        0.063       71.712        9.826        0.019      344.666       21.648      857.920
04/11/2014  13:53:00      -80.916       73.193      -24.295       26.990       36.615       27.068      728.476     1340.672      732.668        0.765        0.140      109.108       20.184        0.034      344.965       22.159      857.891
04/11/2014  13:54:00      -44.384       26.034       11.215       43.184       20.800       25.324     1864.851      432.628      641.319        0.286        0.147       51.456       15.382        0.089      345.328       22.779      857.882
04/11/2014  13:55:00      -22.347       20.493       11.974       38.423       24.574       28.038     1476.326      603.902      786.107        0.196        0.143       30.320       12.599        0.173      345.942       23.833      857.851
04/11/2014  13:56:00       77.570       47.707       23.159       64.092       43.608       31.175     4107.739     1901.650      971.896        0.790        0.349       91.066       18.606        0.042      345.697       23.414      857.831
04/11/2014  13:57:00      -23.869       67.534        2.581       33.390       42.626       36.309     1114.919     1817.012     1318.358        0.469        0.213       71.628       27.852        0.151      345.905       23.769      857.812
04/11/2014  13:58:00       40.621       58.282       15.411      101.494       90.400       57.968    10301.112     8172.085     3360.280        1.355        1.092       71.041       35.217        0.246      345.634       23.303      857.784
04/11/2014  13:59:00       73.907      136.641       39.421       80.223       96.436       73.804     6435.807     9299.827     5446.973        2.343        1.059      155.348       42.453        0.075      345.681       23.383      857.742
04/11/2014  14:00:00      141.473      105.621       -9.774       71.178       42.541       39.741     5066.255     1809.720     1579.325        1.986        0.423      176.551       27.388        0.024      345.081       22.355      857.757
04/11/2014  14:01:00      149.573       97.162       21.560      100.930       64.285       49.201    10186.903     4132.619     2420.758        2.451        0.837      178.361       43.103        0.058      345.424       22.942      857.717
04/11/2014  14:02:00      159.342      146.761        6.641       89.254       61.807       51.629     7966.306     3820.145     2665.605        3.071        0.723      216.630       40.192        0.034      345.172       22.510      857.696
04/11/2014  14:03:00      113.910       90.671       12.010       73.255       52.400       48.445     5366.254     2745.806     2346.886        1.590        0.523      145.591       35.554        0.060      345.153       22.479      857.681
04/11/2014  14:04:00       16.658       41.744       52.365       52.775       47.076       41.217     2785.238     2216.147     1698.818        0.573        0.335       44.944       20.927        0.217      345.674       23.373      857.659
04/11/2014  14:05:00       74.367       94.648       68.689       64.641       57.220       64.664     4178.446     3274.132     4181.441        1.542        0.582      120.369       47.375        0.155      345.551       23.161      857.640
04/11/2014  14:06:00       75.133       61.737       71.639       89.367       57.128       65.615     7986.489     3263.576     4305.332        1.507        0.778       97.244       49.019        0.254      345.653       23.336      857.631
04/11/2014  14:07:00      136.590       78.104       35.409       83.096       84.359       49.517     6905.021     7116.478     2451.921        2.124        0.824      157.344       41.368        0.069      345.275       22.688      857.628
04/11/2014  14:08:00       50.176       89.098      106.792       94.225       83.865       59.878     8878.418     7033.287     3585.325        2.067        0.975      102.255       47.033        0.212      345.822       23.626      857.600
04/11/2014  14:09:00       55.690       21.388       86.291       74.215      144.266       67.917     5507.907    20812.601     4612.748        2.096        1.547       59.656       80.008        1.799      345.950       23.845      857.602
04/11/2014  14:10:00       18.294       27.749       97.468       57.569      105.126       76.858     3314.148    11051.492     5907.164        1.543        1.014       33.236       81.838        6.063      346.029       23.983      857.575
04/11/2014  14:11:00      200.362     -219.578      -45.906      138.039      186.404       93.141    19054.827    34746.425     8675.229        7.646        3.124      297.253      123.708        0.173      345.157       22.485      857.546
04/11/2014  14:12:00       70.997      -97.013      -33.906       86.204       82.146       53.965     7431.054     6747.886     2912.198        1.634        0.855      120.217       54.106        0.203      345.156       22.484      857.562
04/11/2014  14:13:00       69.914      -89.591       58.407       86.013      144.336       99.927     7398.243    20832.956     9985.479        2.726        1.911      113.642      104.100        0.839      345.571       23.195      857.526
04/11/2014  14:14:00      137.970     -198.441      -57.329       63.911       88.590       46.106     4084.640     7848.119     2125.756        3.788        0.703      241.691       30.374        0.016      344.962       22.149      857.539
04/11/2014  14:15:00        4.849      -92.732      -24.239       89.441       82.518       55.854     7999.670     6809.248     3119.622        1.357        0.896       92.858       43.573        0.220      345.474       23.029      857.489
04/11/2014  14:16:00      159.870     -168.439       20.337      107.473      135.542       86.120    11550.423    18371.599     7416.623        4.583        1.867      232.229       93.840        0.163      345.357       22.826      857.457
04/11/2014  14:17:00      166.303     -114.757       11.737      123.072      161.865      121.115    15146.609    26200.394    14668.789        4.848        2.801      202.054      112.903        0.312      345.245       22.636      857.452
04/11/2014  14:18:00       66.172       81.991      135.442       73.556      101.568       67.892     5410.470    10316.037     4609.291        2.489        1.017      105.362       69.810        0.439      345.348       22.813      857.471
04/11/2014  14:19:00      143.449      149.329       99.326       85.883       55.857       59.695     7375.963     3120.029     3563.469        3.340        0.703      207.067       54.566        0.069      345.071       22.338      857.452
04/11/2014  14:20:00      100.675       44.742       21.915       72.713       51.519       47.920     5287.163     2654.239     2296.297        1.143        0.512      110.170       43.276        0.154      345.155       22.483      857.414
04/11/2014  14:21:00       72.648       82.187       62.170       52.672       59.290       70.298     2774.292     3515.356     4941.747        1.356        0.562      109.692       56.574        0.266      345.260       22.664      857.384
04/11/2014  14:22:00      118.347      100.619      112.633      108.114       92.158       80.435    11688.722     8493.181     6469.711        3.173        1.333      155.339       68.178        0.193      345.674       23.371      857.351
04/11/2014  14:23:00       26.069       44.033       75.314       89.671       69.402       53.643     8040.839     4816.658     2877.557        1.201        0.787       51.171       37.830        0.547      346.060       24.037      857.328
04/11/2014  14:24:00      184.114       18.848      112.593      216.681      182.204      117.798    46950.845    33198.479    13876.417        7.046        4.701      185.076      126.070        0.464      345.741       23.485      857.298
04/11/2014  14:25:00       52.933      -18.781       64.860      119.940      106.202       72.478    14385.611    11278.918     5253.032        1.913        1.546       56.166       69.998        1.553      345.929       23.810      857.316
04/11/2014  14:26:00       50.608      113.785      137.019       87.064       79.229       60.269     7580.087     6277.300     3632.334        2.588        0.874      124.532       53.178        0.182      345.711       23.435      857.336
04/11/2014  14:27:00      149.064      -47.070       38.371       90.542      128.152       71.432     8197.896    16422.807     5102.587        2.781        1.486      156.319       68.210        0.190      345.408       22.914      857.330
04/11/2014  14:28:00       90.676     -138.842       -6.803       97.274      153.818       53.328     9462.281    23659.856     2843.922        3.175        1.798      165.829       68.096        0.169      345.614       23.269      857.294
04/11/2014  14:29:00      178.017     -180.283      -36.035       81.449       84.080       55.528     6633.929     7069.518     3083.400        4.114        0.839      253.362       52.966        0.044      345.134       22.443      857.289
04/11/2014  14:30:00       80.973      -20.968       71.811       99.648      150.041      101.921     9929.647    22512.206    10387.962        2.748        2.141       83.643      117.806        1.984      345.441       22.972      857.268
04/11/2014  14:31:00      118.688      -69.419       37.558      100.170      103.246       80.520    10033.955    10659.792     6483.546        2.374        1.359      137.499       66.535        0.234      345.653       23.336      857.243
04/11/2014  14:32:00       82.494      -69.749        8.655       71.522      122.555       51.130     5115.340    15019.614     2614.248        1.724        1.137      108.029       38.723        0.128      345.682       23.385      857.236
04/11/2014  14:33:00       67.111       74.710      104.975       76.973       80.392       85.140     5924.911     6462.866     7248.857        2.037        0.982      100.426       59.249        0.348      345.821       23.625      857.213
04/11/2014  14:34:00      108.569      101.910      122.496      108.429       97.880      108.635    11756.872     9580.458    11801.641        3.515        1.657      148.906       90.496        0.369      345.367       22.844      857.234
04/11/2014  14:35:00       54.058       67.181       58.331      110.999       72.376       79.012    12320.825     5238.351     6242.916        1.732        1.190       86.230       79.544        0.851      345.178       22.522      857.197
04/11/2014  14:36:00      111.714       91.636       45.385       93.988       68.328       53.253     8833.663     4668.718     2835.859        1.963        0.817      144.490       38.205        0.070      345.483       23.043      857.181
04/11/2014  14:37:00       30.794       10.001       26.687       33.881       26.884       24.899     1147.920      722.755      619.980        0.213        0.125       32.377       14.871        0.211      345.957       23.859      857.162
04/11/2014  14:38:00       64.423      -77.677        7.891      110.626      133.118       82.288    12238.172    17720.503     6771.283        2.348        1.836      100.916       82.375        0.666      345.615       23.269      857.110
04/11/2014  14:39:00      138.437     -173.978      -12.285       76.847      127.658       56.915     5905.504    16296.515     3239.332        3.751        1.272      222.335       72.510        0.106      345.581       23.210      857.084
04/11/2014  14:40:00       56.522      -86.708       12.548      103.287       76.344       45.393    10668.229     5828.462     2060.530        1.471        0.928      103.504       47.369        0.209      345.779       23.552      857.053
04/11/2014  14:41:00       50.151       47.049       47.118       64.256       55.898       39.504     4128.812     3124.541     1560.574        0.788        0.441       68.766       36.012        0.274      346.247       24.357      857.013
04/11/2014  14:42:00       49.845        1.469       49.012       97.184      123.931       86.066     9444.658    15358.850     7407.406        1.854        1.611       49.867       88.587        3.156      346.186       24.251      856.984
04/11/2014  14:43:00      101.973      -69.859       67.726       93.189      112.675       67.739     8684.214    12695.748     4588.572        2.291        1.298      123.608       69.814        0.319      345.721       23.452      856.954
04/11/2014  14:44:00      112.554       12.193       96.144      131.302      141.324       76.985    17240.314    19972.356     5926.742        3.259        2.157      113.213       88.430        0.610      345.966       23.873      856.907
04/11/2014  14:45:00       29.098     -205.632        2.432      109.288      198.591      116.562    11943.874    39438.333    13586.659        5.404        3.248      207.680      108.929        0.275      345.735       23.477      856.828
04/11/2014  14:46:00      109.219     -211.297       38.917      117.301      187.012      112.209    13759.637    34973.624    12590.952        5.969        3.066      237.855      108.990        0.210      345.509       23.088      856.842
04/11/2014  14:47:00      238.868     -296.342      -66.471      125.717      167.059       91.561    15804.784    27908.553     8383.474       10.069        2.605      380.627       97.393        0.065      345.228       22.604      856.855
04/11/2014  14:48:00       44.115       80.464      201.385      100.050      153.278      123.857    10009.930    23494.199    15340.653        4.890        2.442       91.764      115.751        1.591      345.562       23.179      856.836
04/11/2014  14:49:00      106.521       57.603       87.994      108.217      126.945       83.084    11710.913    16114.980     6902.985        2.856        1.736      121.098       75.128        0.385      345.581       23.211      856.895
04/11/2014  14:50:00      110.970      105.135       38.326       62.023       31.161       58.544     3846.850      970.994     3427.351        1.654        0.412      152.865       36.208        0.056      345.207       22.572      856.892
04/11/2014  14:51:00       67.391       75.203        7.513       52.259       51.701       46.026     2731.044     2673.018     2118.409        0.889        0.376      100.981       32.681        0.105      345.329       22.781      856.865
04/11/2014  14:52:00      151.572     -111.551        3.957      105.915      119.125       59.103    11218.051    14190.766     3493.135        3.216        1.445      188.196       76.578        0.166      345.439       22.967      856.833
04/11/2014  14:53:00       81.453      -83.500       -2.295       96.202      111.383       51.471     9254.885    12406.135     2649.222        1.896        1.216      116.648       54.467        0.218      345.759       23.518      856.802
04/11/2014  14:54:00      107.622     -164.264       -8.896       93.034      140.030       65.612     8655.397    19608.305     4304.988        3.560        1.628      196.380       87.823        0.200      345.770       23.535      856.767
04/11/2014  14:55:00      187.124     -197.172       -7.354      116.610      201.376      100.599    13597.837    40552.396    10120.253        6.910        3.214      271.831      121.432        0.200      345.632       23.299      856.740
04/11/2014  14:56:00      117.489       -8.343       49.482       98.357      129.964       80.217     9674.106    16890.699     6434.737        2.465        1.650      117.785       77.631        0.434      345.775       23.544      856.740
04/11/2014  14:57:00       78.683     -130.594       44.413      104.458      186.471      106.216    10911.448    34771.451    11281.920        4.108        2.848      152.466      127.465        0.699      345.800       23.586      856.721
04/11/2014  14:58:00      103.739     -145.333       28.755      111.640      167.865       83.427    12463.493    28178.696     6960.068        4.015        2.380      178.559      105.089        0.346      345.690       23.398      856.726
04/11/2014  14:59:00      140.774     -157.456      -19.088      128.708      178.206      117.115    16565.670    31757.237    13715.936        5.349        3.102      211.210      106.865        0.256      345.505       23.080      856.687
04/11/2014  15:00:00       72.168     -194.160      -38.570       91.421       97.440       55.251     8357.785     9494.609     3052.651        3.265        1.045      207.138       49.775        0.058      345.639       23.312      856.736
04/11/2014  15:01:00       96.162     -110.094       32.116      115.053      125.451       93.117    13237.263    15737.921     8670.837        3.002        1.882      146.178       97.997        0.449      345.725       23.459      856.708
04/11/2014  15:02:00       12.713     -197.833       25.530       80.978      124.355       84.610     6557.394    15464.131     7158.911        3.456        1.459      198.241       78.195        0.156      345.796       23.579      856.690
04/11/2014  15:03:00       32.501     -155.619       -9.666       84.747       77.484       67.326     7182.135     6003.798     4532.780        2.154        0.886      158.977       41.005        0.067      345.745       23.494      856.695
04/11/2014  15:04:00       32.592      -25.024       71.557       99.923      164.098      113.685     9984.674    26927.991    12924.213        2.831        2.492       41.090      127.879        9.685      345.836       23.649      856.668
04/11/2014  15:05:00       46.939     -183.288      -11.271      105.070      117.152       62.036    11039.744    13724.682     3848.459        3.226        1.431      189.203       72.358        0.146      345.742       23.487      856.649
04/11/2014  15:06:00       70.663     -123.835      -12.047       92.344      129.886       65.525     8527.404    16870.405     4293.520        2.508        1.485      142.578       65.444        0.211      345.719       23.449      856.667
04/11/2014  15:07:00       98.424     -134.941       13.182      112.040      130.862       90.160    12552.974    17124.868     8128.841        3.293        1.890      167.022       94.328        0.319      345.780       23.552      856.643
04/11/2014  15:08:00        9.831     -109.545      -17.283       83.307      122.689       67.082     6940.067    15052.507     4500.003        1.944        1.325      109.986       73.336        0.445      345.659       23.345      856.660
04/11/2014  15:09:00      -15.505       83.098      138.405       41.338       56.235       46.991     1708.839     3162.400     2208.175        1.669        0.354       84.532       40.049        0.224      345.611       23.263      856.617
04/11/2014  15:10:00       -8.239       83.351      127.519       37.820       55.772       51.065     1430.335     3110.505     2607.669        1.521        0.357       83.757       39.216        0.219      345.437       22.967      856.595
04/11/2014  15:11:00       51.958       32.243       72.703       77.994       52.967       47.974     6083.093     2805.531     2301.505        1.011        0.560       61.149       53.366        0.762      345.585       23.221      856.565
04/11/2014  15:12:00        0.535       99.062      128.813       39.170       59.249       36.551     1534.291     3510.395     1335.942        1.639        0.319       99.063       33.511        0.114      345.594       23.237      856.560
04/11/2014  15:13:00       41.948       33.831       38.116       40.103       41.373       50.127     1608.223     1711.699     2512.727        0.509        0.292       53.890       22.825        0.179      345.626       23.290      856.552
04/11/2014  15:14:00      104.678       38.440       30.247       44.067       39.343       32.815     1941.870     1547.889     1076.821        0.896        0.228      111.513       18.020        0.026      345.524       23.117      856.529
04/11/2014  15:15:00       43.312       59.720       18.558       32.970       30.917       46.975     1087.036      955.873     2206.636        0.502        0.212       73.772       28.697        0.151      345.412       22.923      856.511
04/11/2014  15:16:00       55.128       44.173        9.667       28.199       16.618       23.147      795.172      276.172      535.781        0.335        0.080       70.642       17.909        0.064      345.302       22.734      856.493
04/11/2014  15:17:00       85.943       34.457       27.488       50.135       39.494       42.784     2513.484     1559.808     1830.474        0.762        0.295       92.593       34.814        0.141      345.610       23.264      856.477
04/11/2014  15:18:00       90.970       68.066       16.086       52.340       36.094       33.344     2739.473     1302.745     1111.828        0.916        0.258      113.616       16.698        0.022      345.774       23.544      856.461
04/11/2014  15:19:00       94.878       16.825       15.420       59.528       72.016       41.758     3543.612     5186.258     1743.762        1.000        0.524       96.358       35.503        0.136      345.884       23.734      856.442
04/11/2014  15:20:00       17.428      -98.431        2.097       62.044       96.020       51.993     3849.419     9219.885     2703.280        1.288        0.789       99.962       47.192        0.223      346.308       24.461      856.424
04/11/2014  15:21:00      116.626     -149.200        1.066       70.972      122.931       69.548     5037.054    15112.041     4836.941        3.042        1.249      189.373       64.444        0.116      345.965       23.870      856.398
04/11/2014  15:22:00       83.239      -67.077       65.838       93.210      141.871       98.995     8688.120    20127.405     9800.038        2.718        1.931      106.902      106.582        0.994      345.924       23.799      856.391
04/11/2014  15:23:00      149.574     -207.976      -40.541       77.453       84.305       55.141     5999.021     7107.411     3040.551        4.171        0.807      256.176       50.496        0.039      345.486       23.046      856.383
04/11/2014  15:24:00      -13.024     -120.784       -3.316       39.025       73.525       50.796     1522.989     5405.890     2580.247        1.214        0.475      121.484       28.910        0.057      345.819       23.622      856.384
04/11/2014  15:25:00      -27.342      -11.466       11.248       41.732       43.152       26.601     1741.586     1862.064      707.633        0.266        0.216       29.649       22.140        0.558      346.229       24.327      856.362
04/11/2014  15:26:00     -144.424       11.435       -9.514       31.514       33.422       20.052      993.139     1117.018      402.072        1.180        0.126      144.876       12.911        0.008      345.546       23.154      856.343
04/11/2014  15:27:00     -138.655      -63.718       -3.977       65.630       54.789       28.217     4307.328     3001.824      796.194        1.570        0.405      152.595       17.679        0.013      345.797       23.583      856.330
04/11/2014  15:28:00     -133.866      -60.757       -4.624       58.839       37.045       26.479     3461.984     1372.341      701.112        1.358        0.277      147.009       20.259        0.019      345.783       23.559      856.312
04/11/2014  15:29:00      -39.669      -37.825       -0.314       59.225       69.724       31.528     3507.565     4861.500      994.008        0.618        0.468       54.812       38.474        0.493      346.039       24.000      856.301
04/11/2014  15:30:00       44.289      -71.687        8.119       60.810       53.301       45.405     3697.842     2841.019     2061.581        0.788        0.430       84.265       37.723        0.200      346.326       24.493      856.282
04/11/2014  15:31:00      -49.980       -5.613       16.672       48.871       28.387       28.919     2388.403      805.838      836.335        0.342        0.202       50.294       27.360        0.296      346.715       25.161      856.275
04/11/2014  15:32:00     -202.882      -72.329       -5.349      133.188       79.835       48.337    17739.158     6373.643     2336.501        3.643        1.322      215.389       60.936        0.080      346.313       24.469      856.280
04/11/2014  15:33:00     -430.441     -130.915      -23.106      155.965      113.983       62.786    24324.965    12992.231     3942.038       12.210        2.063      449.909       71.283        0.025      345.874       23.712      856.269
04/11/2014  15:34:00     -326.929     -111.856       -8.590      107.532       97.574       50.922    11563.160     9520.743     2593.071        7.157        1.184      345.534       54.801        0.025      345.707       23.427      856.280
04/11/2014  15:35:00     -149.999      -64.886       -5.825      106.700       78.957       54.157    11384.897     6234.178     2932.990        2.364        1.028      163.431       46.931        0.082      345.908       23.773      856.261
04/11/2014  15:36:00     -139.703      -27.282       -6.711       72.689       66.984       38.251     5283.713     4486.789     1463.173        1.577        0.562      142.342       33.925        0.057      345.862       23.694      856.228
04/11/2014  15:37:00      -88.600      -12.728        8.669       90.404       73.337       36.530     8172.798     5378.346     1334.458        1.148        0.744       89.509       25.430        0.081      346.309       24.464      856.188
04/11/2014  15:38:00     -143.170      -25.993       15.631      156.271       96.036       53.751    24420.772     9222.941     2889.199        2.897        1.827      145.511       73.319        0.254      346.308       24.459      856.182
04/11/2014  15:39:00     -166.262     -108.470       26.561      162.645      152.881       72.737    26453.306    23372.560     5290.710        4.760        2.756      198.517       87.924        0.196      346.255       24.369      856.172
04/11/2014  15:40:00     -264.214      -48.384      -12.570      107.942       92.343       66.963    11651.381     8527.291     4483.991        4.848        1.233      268.607       70.460        0.069      346.135       24.160      856.158
04/11/2014  15:41:00     -349.445      -25.925      -23.837      108.381      103.265       58.392    11746.433    10663.716     3409.665        7.458        1.291      350.406       63.632        0.033      345.912       23.778      856.148
04/11/2014  15:42:00     -254.577     -173.589       -9.731      175.432      102.782       60.826    30776.267    10564.233     3699.845        7.003        2.252      308.128       58.338        0.036      346.111       24.121      856.118
04/11/2014  15:43:00     -324.226     -211.822        5.290      160.627      141.080       76.470    25800.881    19903.580     5847.651       10.078        2.578      387.287       75.094        0.038      345.851       23.673      856.099
04/11/2014  15:44:00     -372.287     -255.953       -7.776      153.391      103.540       69.975    23528.796    10720.553     4896.510       12.165        1.957      451.785       78.959        0.031      345.714       23.438      856.090
04/11/2014  15:45:00     -195.966     -216.626        1.784      133.673       98.104       63.693    17868.490     9624.353     4056.801        5.844        1.577      292.112       77.059        0.070      345.632       23.297      856.092
04/11/2014  15:46:00     -199.371     -109.141        2.768      110.900       79.878       65.252    12298.870     6380.531     4257.818        3.730        1.147      227.290       71.084        0.098      345.870       23.706      856.064
04/11/2014  15:47:00     -264.134     -129.402       -7.759      164.064      121.418       64.751    26916.849    14742.323     4192.633        6.620        2.293      294.128       80.673        0.075      346.002       23.934      856.053
04/11/2014  15:48:00     -278.729     -220.004       -4.977      130.583       95.178       62.785    17051.935     9058.836     3941.975        7.808        1.503      355.094       60.167        0.029      345.705       23.422      856.052
04/11/2014  15:49:00     -211.806     -181.937       11.624      170.479       95.118       70.867    29063.049     9047.403     5022.171        6.061        2.157      279.218       68.070        0.059      345.919       23.792      856.008
04/11/2014  15:50:00     -190.690     -112.844       12.574      115.812       81.083       45.995    13412.354     6574.426     2115.517        3.567        1.105      221.577       46.742        0.045      345.962       23.864      856.020
04/11/2014  15:51:00     -248.965     -180.943        9.151      156.718      111.697       72.456    24560.498    12476.268     5249.815        6.854        2.114      307.772       87.125        0.080      345.856       23.681      855.989
04/11/2014  15:52:00     -210.675     -164.435       -0.540      117.764       80.913       46.906    13868.258     6546.937     2200.136        4.701        1.131      267.251       40.788        0.023      345.968       23.875      855.994
04/11/2014  15:53:00     -162.799     -123.923       10.319      110.190       90.003       51.718    12141.817     8100.566     2674.746        3.244        1.146      204.598       58.283        0.081      346.014       23.955      855.994
04/11/2014  15:54:00     -153.617      -89.158       -4.796      156.250       79.620       44.319    24414.188     6339.305     1964.155        3.214        1.636      177.616       55.176        0.097      345.889       23.742      855.979
04/11/2014  15:55:00     -167.342     -148.344        2.483      115.861      151.408       55.762    13423.834    22924.303     3109.436        4.473        1.973      223.627       55.025        0.061      345.933       23.815      855.977
04/11/2014  15:56:00     -160.448     -283.832       -0.115      123.833       95.216       60.251    15334.695     9066.112     3630.218        6.716        1.402      326.043       58.533        0.032      345.800       23.586      855.971
04/11/2014  15:57:00      -95.764     -153.063        5.614       88.341       84.079       52.612     7804.105     7069.355     2768.053        2.513        0.882      180.552       39.389        0.048      345.878       23.722      855.975
04/11/2014  15:58:00      -36.039     -165.273        1.277       57.625       61.870       32.727     3320.627     3827.948     1071.037        1.842        0.411      169.157       22.815        0.018      345.719       23.450      855.960
04/11/2014  15:59:00     -110.517      -67.438        8.230       90.235       47.087       43.529     8142.267     2217.229     1894.777        1.454        0.613      129.468       42.511        0.108      345.829       23.639      855.931
04/11/2014  16:00:00      -75.259      -45.260       -6.033       42.431       18.182       19.580     1800.353      330.572      383.362        0.513        0.126       87.820       11.616        0.017      345.659       23.347      855.911
04/11/2014  16:01:00      -50.980      -26.917       -3.125       30.592       19.813       22.291      935.901      392.556      496.887        0.258        0.091       57.650       16.635        0.083      345.693       23.405      855.888
04/11/2014  16:02:00      -58.229       15.668       -2.458       23.732       16.814       11.313      563.217      282.700      127.982        0.231        0.049       60.301        7.236        0.014      345.748       23.500      855.875
04/11/2014  16:03:00      -11.823      -13.284       25.261       63.450       91.477       46.632     4025.957     8368.043     2174.557        0.776        0.728       17.783       48.334        7.388      346.187       24.253      855.867
04/11/2014  16:04:00       76.369     -142.109       18.959       91.306      117.944       76.785     8336.812    13910.806     5895.937        2.726        1.407      161.330       79.478        0.243      346.094       24.092      855.856
04/11/2014  16:05:00       74.393     -106.671        9.782       80.361      100.883       76.463     6457.823    10177.426     5846.521        1.974        1.124      130.050       71.395        0.301      346.148       24.186      855.840
04/11/2014  16:06:00       75.401      -40.026       44.618       64.556      105.509       79.109     4167.489    11132.063     6258.254        1.541        1.078       85.366       84.186        0.973      346.025       23.974      855.830
04/11/2014  16:07:00      -10.617      -88.345      -22.053       70.540       62.496       47.870     4975.850     3905.761     2291.524        0.979        0.559       88.981       33.993        0.146      346.309       24.463      855.852
04/11/2014  16:08:00     -123.324      -62.630       -5.749       74.657       52.738       39.347     5573.710     2781.327     1548.192        1.453        0.495      138.316       40.651        0.086      346.241       24.346      855.861
04/11/2014  16:09:00     -187.623      -76.594        1.225      106.291       80.577       43.506    11297.768     6492.614     1892.815        3.037        0.984      202.655       30.749        0.023      346.169       24.221      855.843
04/11/2014  16:10:00     -231.479      -42.194        1.300      112.163       78.957       47.174    12580.539     6234.163     2225.356        3.820        1.052      235.293       54.351        0.053      346.158       24.200      855.829
04/11/2014  16:11:00     -148.181      -62.223       10.224       56.655       46.969       38.071     3209.767     2206.098     1449.396        1.640        0.343      160.715       27.604        0.030      346.362       24.553      855.837
04/11/2014  16:12:00     -190.511     -121.210       -3.733      124.081       91.324       67.508    15396.115     8340.147     4557.358        3.964        1.415      225.801       71.166        0.099      346.172       24.226      855.840
04/11/2014  16:13:00     -161.929     -102.389        2.553      100.451       96.988       52.465    10090.457     9406.754     2752.593        2.948        1.112      191.584       43.952        0.053      346.105       24.110      855.829
04/11/2014  16:14:00     -196.032      -86.549       12.267      177.808       98.859       67.459    31615.525     9773.138     4550.686        4.600        2.297      214.287       88.657        0.171      346.177       24.235      855.832
04/11/2014  16:15:00     -352.832       -4.286      -28.997      118.164      115.107       60.794    13962.708    13249.574     3695.898        7.812        1.545      352.858       57.563        0.027      346.003       23.932      855.843
04/11/2014  16:16:00     -238.617      -89.768      -19.446       89.486       62.862       40.787     8007.807     3951.646     1663.606        3.950        0.681      254.944       37.217        0.021      345.736       23.475      855.848
04/11/2014  16:17:00     -171.022      -38.482        8.040      104.770       74.979       46.093    10976.723     5621.848     2124.534        2.475        0.936      175.298       48.392        0.076      346.050       24.016      855.839
04/11/2014  16:18:00     -202.597      -68.316       -6.965       53.130       45.506       28.702     2822.850     2070.763      823.830        2.574        0.286      213.806       23.578        0.012      345.834       23.644      855.817
04/11/2014  16:19:00     -185.911        4.556      -17.993      108.315       62.871       49.647    11732.142     3952.792     2464.780        2.653        0.907      185.967       34.722        0.035      346.022       23.968      855.796
04/11/2014  16:20:00     -299.004      -86.052      -26.628      130.488       81.013       45.221    17027.041     6563.043     2044.939        6.157        1.282      311.141       47.797        0.024      345.720       23.447      855.787
04/11/2014  16:21:00      -51.473     -145.621      -12.322       98.720       41.730       36.866     9745.644     1741.418     1359.127        1.842        0.642      154.450       30.190        0.038      345.721       23.452      855.790
04/11/2014  16:22:00       35.975      -80.782        6.245       82.504      107.319       79.398     6806.856    11517.322     6304.009        1.624        1.231       88.430       88.744        1.007      345.938       23.825      855.738
04/11/2014  16:23:00      145.681     -120.288       10.808       76.774      110.884       72.403     5894.256    12295.262     5242.185        2.962        1.172      188.924       71.376        0.143      345.785       23.560      855.714
04/11/2014  16:24:00      120.058     -101.811       10.687       50.823       59.807       44.658     2582.971     3576.837     1994.374        1.652        0.408      157.414       47.314        0.090      345.658       23.343      855.701
04/11/2014  16:25:00       95.231     -199.946      -15.240       58.844       67.063       36.874     3462.621     4497.472     1359.719        2.930        0.466      221.466       25.845        0.014      345.628       23.289      855.694
04/11/2014  16:26:00       33.296      -43.573       19.958       75.467       64.168       38.071     5695.238     4117.543     1449.375        0.733        0.563       54.838       41.903        0.584      345.926       23.806      855.700
04/11/2014  16:27:00     -102.796      -13.539       -2.956       46.056       50.617       31.956     2121.162     2562.090     1021.208        0.823        0.285      103.684       21.093        0.041      346.274       24.404      855.721
04/11/2014  16:28:00     -158.781       24.423       -6.321       54.279       64.104       32.336     2946.235     4109.322     1045.594        1.697        0.405      160.649       27.875        0.030      346.159       24.204      855.721
04/11/2014  16:29:00      -43.205      -67.972       -1.540       55.325       51.734       31.748     3060.839     2676.366     1007.960        0.662        0.337       80.541       23.230        0.083      346.083       24.075      855.717
04/11/2014  16:30:00      -59.696      125.111       -4.864       73.296       80.005       41.939     5372.313     6400.819     1758.887        1.638        0.677      138.623       39.478        0.081      346.234       24.332      855.729
04/11/2014  16:31:00     -236.365      123.904      -30.673      148.874       89.796       63.015    22163.374     8063.253     3970.875        5.317        1.710      266.871       51.150        0.037      345.967       23.873      855.729
04/11/2014  16:32:00     -233.207      -93.920        7.465      128.506      117.733       65.464    16513.739    13861.161     4285.473        4.895        1.733      251.409       63.193        0.063      346.080       24.067      855.690
04/11/2014  16:33:00     -286.024      -17.301      -15.654      136.062       90.294       52.314    18512.928     8153.035     2736.753        5.587        1.470      286.547       63.480        0.049      345.965       23.871      855.713
04/11/2014  16:34:00     -321.804      -38.337      -42.870      113.043      130.277       55.142    12778.832    16972.147     3040.665        6.982        1.640      324.080       40.162        0.015      345.828       23.635      855.678
04/11/2014  16:35:00     -234.651      -78.058       -5.674      140.493      128.563       65.356    19738.238    16528.532     4271.424        5.085        2.027      247.293       57.772        0.055      346.011       23.948      855.674
04/11/2014  16:36:00     -275.423      -92.280       -7.431      158.041      132.367       74.877    24977.002    17521.026     5606.608        6.626        2.405      290.471       73.800        0.065      345.817       23.615      855.667
04/11/2014  16:37:00      -41.569       52.196        9.934      103.554      100.791       59.886    10723.471    10158.737     3586.300        1.450        1.223       66.726       58.556        0.770      345.982       23.901      855.658
04/11/2014  16:38:00     -147.042       84.713      -17.330      150.294       93.951       62.789    22588.219     8826.805     3942.424        3.222        1.768      169.698       66.669        0.154      345.912       23.778      855.703
04/11/2014  16:39:00     -142.419       88.159      -22.944       99.385      102.382       63.510     9877.304    10482.134     4033.557        2.648        1.220      167.497       39.622        0.056      345.937       23.822      855.701
04/11/2014  16:40:00     -119.701       42.957      -22.273       53.512      101.942       45.158     2863.564    10392.142     2039.279        1.598        0.765      127.175       19.467        0.023      345.875       23.718      855.697
04/11/2014  16:41:00     -190.179        3.781      -17.281      126.157      126.767       57.406    15915.689    16069.965     3295.434        3.587        1.764      190.217       61.381        0.104      345.757       23.514      855.691
04/11/2014  16:42:00     -252.458       36.246      -27.935      153.312      112.500       56.290    23504.460    12656.356     3168.610        5.257        1.966      255.047       52.619        0.043      345.784       23.559      855.658
04/11/2014  16:43:00     -248.151      -13.212      -14.223      118.955      122.301       71.583    14150.185    14957.413     5124.166        4.809        1.712      248.503       64.107        0.067      345.804       23.595      855.656
04/11/2014  16:44:00     -261.359       61.960      -49.272      148.166      124.118       57.595    21953.120    15405.233     3317.222        5.762        2.034      268.603       68.361        0.065      345.710       23.430      855.679
04/11/2014  16:45:00     -195.979      121.911      -26.010       88.724       87.117       51.242     7872.026     7589.317     2625.713        3.601        0.904      230.803       37.859        0.027      345.729       23.466      855.690
04/11/2014  16:46:00     -219.677      -52.156      -18.944      104.999      106.707       55.773    11024.762    11386.297     3110.677        3.842        1.276      225.783       33.922        0.023      345.820       23.621      855.656
04/11/2014  16:47:00      -33.548       55.216       -0.651       46.992       48.185       42.083     2208.206     2321.806     1771.016        0.524        0.315       64.609       29.529        0.209      345.872       23.712      855.662
04/11/2014  16:48:00     -117.811      144.790      -20.983       69.124       66.779       47.078     4778.178     4459.393     2216.346        2.337        0.573      186.664       45.467        0.059      345.865       23.698      855.659
04/11/2014  16:49:00     -124.602      196.573      -20.526       69.311       80.967       44.769     4804.048     6555.594     2004.222        3.397        0.668      232.737       34.326        0.022      345.688       23.392      855.665
04/11/2014  16:50:00     -149.779      123.807      -13.211       67.338       95.247       49.724     4534.446     9072.023     2472.444        2.700        0.804      194.324       42.560        0.048      345.802       23.591      855.663
04/11/2014  16:51:00     -155.520      169.092      -38.667       62.655       87.628       43.905     3925.603     7678.668     1927.660        3.390        0.677      229.735       39.288        0.029      345.787       23.565      855.689
04/11/2014  16:52:00     -152.355       75.862      -25.901      108.344      147.272       42.457    11738.524    21689.118     1802.616        3.243        1.762      170.197       37.982        0.050      345.740       23.484      855.683
04/11/2014  16:53:00     -106.588       27.724       -6.802       98.616       64.419       42.665     9725.126     4149.821     1820.261        1.393        0.785      110.134       45.121        0.168      345.745       23.492      855.665
04/11/2014  16:54:00     -202.056      -29.550      -33.175      145.961      122.205       65.590    21304.608    14933.998     4301.988        4.166        2.027      204.205       58.742        0.083      345.767       23.530      855.651
04/11/2014  16:55:00     -241.193      132.933      -45.147      118.713      169.672       68.289    14092.822    28788.701     4663.370        6.270        2.377      275.400       84.376        0.094      345.690       23.400      855.694
04/11/2014  16:56:00     -120.859      142.316      -26.611       87.811       91.556       52.423     7710.710     8382.440     2748.155        2.720        0.942      186.710       51.225        0.075      345.723       23.455      855.703
04/11/2014  16:57:00      -73.886      140.981       -9.111       85.372      134.434       57.654     7288.315    18072.524     3324.023        2.705        1.434      159.169       49.627        0.097      345.727       23.462      855.700
04/11/2014  16:58:00     -172.748       96.166      -22.801      102.242      131.318       62.029    10453.446    17244.356     3847.590        3.557        1.577      197.712       37.678        0.036      345.739       23.484      855.684
04/11/2014  16:59:00     -169.010       -9.197      -23.826      122.737      102.929       52.292    15064.491    10594.467     2734.465        2.880        1.420      169.260       55.242        0.107      345.560       23.175      855.696
04/11/2014  17:00:00     -160.292      -18.357      -26.016       78.535       76.677       45.066     6167.823     5879.305     2030.963        2.039        0.704      161.339       35.748        0.049      345.624       23.284      855.695
04/11/2014  17:01:00     -131.447       90.007      -40.895       67.532      105.413       41.050     4560.563    11111.916     1685.083        2.220        0.868      159.310       25.223        0.025      345.631       23.296      855.709
04/11/2014  17:02:00      -96.843       54.737       25.572       98.604       92.361       69.931     9722.770     8530.551     4890.331        1.808        1.157      111.242       63.518        0.326      345.723       23.456      855.675
04/11/2014  17:03:00     -104.999      110.166      -10.051       79.276       76.795       49.801     6284.667     5897.504     2480.117        1.896        0.733      152.188       49.678        0.107      345.710       23.432      855.694
04/11/2014  17:04:00     -193.281      156.697      -29.033       83.240      144.522       59.329     6928.815    20886.518     3519.977        4.704        1.567      248.820       52.781        0.045      345.647       23.322      855.692
04/11/2014  17:05:00      -65.114      279.425      -42.424       75.004      104.526       44.667     5625.656    10925.782     1995.147        5.133        0.927      286.912       38.976        0.018      345.662       23.349      855.702
04/11/2014  17:06:00      -74.726      200.353      -28.247       75.194       65.648       44.702     5654.130     4309.723     1998.224        2.924        0.598      213.835       41.237        0.037      345.555       23.166      855.684
04/11/2014  17:07:00      -82.358      178.349      -26.675       67.775       83.781       39.078     4593.508     7019.234     1527.103        2.622        0.657      196.446       32.172        0.027      345.626       23.288      855.681
04/11/2014  17:08:00      -86.487       23.936       -6.590       53.162       67.579       23.940     2826.165     4566.965      573.111        0.803        0.398       89.738       30.203        0.113      345.816       23.618      855.680
04/11/2014  17:09:00      -85.557       29.587      -15.995       47.461       28.362       36.386     2252.561      804.401     1323.962        0.642        0.219       90.529       31.253        0.119      345.806       23.600      855.694
04/11/2014  17:10:00     -184.459      -55.070       -5.336      118.239       86.566       55.927    13980.570     7493.665     3127.837        3.084        1.230      192.504       59.477        0.095      345.820       23.623      855.670
04/11/2014  17:11:00     -149.455      -29.685       14.019      147.255      126.206       59.615    21684.133    15927.902     3553.912        3.228        2.058      152.374       63.726        0.175      345.748       23.498      855.651
04/11/2014  17:12:00     -128.931       30.026      -29.839       82.673       77.842       43.511     6834.846     6059.432     1893.242        1.660        0.739      132.381       27.439        0.043      345.767       23.533      855.675
04/11/2014  17:13:00     -220.050       45.555      -21.296      133.999       91.075       56.412    17955.619     8294.611     3182.259        4.019        1.472      224.716       65.629        0.085      345.666       23.356      855.684
04/11/2014  17:14:00     -158.928       86.298      -24.071      117.987       92.636       53.171    13920.888     8581.500     2827.121        2.930        1.266      180.846       39.239        0.047      345.685       23.390      855.686
04/11/2014  17:15:00     -197.535        6.339      -35.134      156.634      101.474       62.413    24534.365    10296.993     3895.330        3.950        1.936      197.636       51.598        0.068      345.626       23.289      855.695
04/11/2014  17:16:00     -191.230        6.335      -31.600      111.207      135.777       59.762    12366.981    18435.453     3571.490        3.598        1.719      191.335       58.703        0.094      345.596       23.236      855.672
04/11/2014  17:17:00     -155.761       54.450      -14.849       86.741       97.041       62.546     7524.000     9416.859     3911.943        2.415        1.043      165.004       58.273        0.125      345.620       23.279      855.665
04/11/2014  17:18:00     -115.689      286.456      -26.079       91.498      142.491       62.740     8371.813    20303.722     3936.259        6.436        1.631      308.935       68.404        0.049      345.621       23.279      855.667
04/11/2014  17:19:00     -150.991      202.268      -33.487       80.822       95.504       45.526     6532.222     9120.987     2072.592        4.128        0.886      252.410       50.693        0.040      345.629       23.291      855.661
04/11/2014  17:20:00     -128.144       35.673      -16.775       62.624       83.829       47.572     3921.789     7027.332     2263.060        1.559        0.661      133.017       29.978        0.051      345.735       23.477      855.659
04/11/2014  17:21:00     -139.184      203.784      -34.013      126.120      125.198       59.557    15906.287    15674.462     3546.999        4.859        1.756      246.780       65.165        0.070      345.606       23.253      855.672
04/11/2014  17:22:00     -211.408       50.835      -14.598      122.765      198.124       53.688    15071.157    39253.211     2882.421        5.234        2.860      217.434       41.453        0.036      345.624       23.286      855.653
04/11/2014  17:23:00     -242.858      151.346      -53.718      143.686      122.174       76.842    20645.773    14926.577     5904.752        6.312        2.074      286.157       69.157        0.058      345.544       23.146      855.676
04/11/2014  17:24:00     -160.769       62.119      -40.174      102.414      133.400       58.712    10488.648    17795.444     3447.153        3.152        1.587      172.353       49.858        0.084      345.628       23.291      855.669
04/11/2014  17:25:00     -167.580        5.162      -32.072       96.994      114.709       54.749     9407.784    13158.158     2997.490        2.735        1.278      167.659       41.438        0.061      345.585       23.219      855.670
04/11/2014  17:26:00     -172.763       23.764      -16.980      106.659       91.800       48.503    11376.074     8427.172     2352.541        2.642        1.108      174.390       33.946        0.038      345.571       23.194      855.669
04/11/2014  17:27:00     -188.021        6.927      -20.769       69.169       83.250       35.956     4784.354     6930.516     1292.867        2.442        0.650      188.149       31.289        0.028      345.505       23.081      855.674
04/11/2014  17:28:00     -274.802      -82.169      -21.844      118.542      103.682       55.711    14052.228    10749.943     3103.684        5.532        1.395      286.824       38.245        0.018      345.575       23.199      855.657
04/11/2014  17:29:00     -174.122        2.481      -15.528       82.709       65.396       33.531     6840.719     4276.663     1124.340        2.140        0.612      174.140       28.375        0.027      345.593       23.234      855.665
04/11/2014  17:30:00      -76.115       26.523       -3.247       53.732       52.249       29.296     2887.136     2729.921      858.271        0.649        0.324       80.604       19.206        0.057      345.612       23.266      855.651
04/11/2014  17:31:00     -122.684       16.758      -25.458       67.260       74.844       36.858     4523.932     5601.636     1358.517        1.373        0.574      123.823       32.692        0.070      345.685       23.391      855.654
04/11/2014  17:32:00      -92.401       -0.523       -1.911       66.794       63.154       35.705     4461.489     3988.412     1274.853        0.913        0.486       92.402       30.614        0.110      345.741       23.488      855.651
04/11/2014  17:33:00     -175.192      -68.952        7.173      164.663       77.590       62.026    27113.910     6020.266     3847.180        3.623        1.849      188.273       69.759        0.137      345.546       23.151      855.642
04/11/2014  17:34:00     -181.993      -30.526       -5.901      129.290       70.269       53.986    16715.981     4937.780     2914.496        2.932        1.228      184.535       59.933        0.105      345.486       23.049      855.646
04/11/2014  17:35:00     -113.884       57.303        1.812      128.039       91.086       60.866    16394.012     8296.630     3704.678        2.232        1.420      127.488       72.167        0.320      345.521       23.109      855.666
04/11/2014  17:36:00     -242.732      -19.868       -9.081      147.948       76.510       52.952    21888.728     5853.816     2803.941        4.497        1.527      243.544       46.664        0.037      345.520       23.107      855.663
04/11/2014  17:37:00     -226.737      -13.745      -19.101      120.124       82.760       58.766    14429.752     6849.263     3453.433        3.834        1.237      227.153       35.002        0.024      345.479       23.036      855.668
04/11/2014  17:38:00     -277.938      -42.861      -33.062       89.569       93.495       51.818     8022.531     8741.354     2685.122        4.981        0.972      281.223       42.332        0.023      345.518       23.101      855.674
04/11/2014  17:39:00     -251.526       81.375      -19.277       82.537       79.020       45.035     6812.365     6244.184     2028.165        4.267        0.754      264.361       28.856        0.012      345.538       23.134      855.694
04/11/2014  17:40:00     -173.768      -24.715       -7.527       86.066       85.583       41.217     7407.321     7324.533     1698.830        2.364        0.822      175.517       34.207        0.038      345.592       23.229      855.682
04/11/2014  17:41:00     -185.335       26.745      -28.269       78.274       56.109       49.310     6126.786     3148.165     2431.469        2.378        0.585      187.255       44.119        0.056      345.517       23.103      855.690
04/11/2014  17:42:00     -228.499      -63.944       -4.761       59.470       63.456       37.854     3536.710     4026.680     1432.891        3.266        0.450      237.278       21.974        0.009      345.577       23.202      855.682
04/11/2014  17:43:00     -127.979      -64.042       -5.905       71.680       53.463       28.298     5138.008     2858.332      800.802        1.465        0.440      143.109       35.572        0.062      345.665       23.357      855.687
04/11/2014  17:44:00     -161.268       -3.971      -14.915       74.683       69.415       35.887     5577.481     4818.460     1287.883        1.896        0.584      161.317       31.049        0.037      345.688       23.394      855.684
04/11/2014  17:45:00     -188.863      -22.970       -4.333      114.690       71.254       56.286    13153.799     5077.186     3168.118        2.880        1.070      190.254       58.398        0.094      345.663       23.352      855.698
04/11/2014  17:46:00     -150.145       20.984      -15.571       85.224      106.402       46.819     7263.088    11321.465     2191.977        2.200        1.039      151.604       52.399        0.119      345.590       23.228      855.712
04/11/2014  17:47:00     -233.844       46.845      -33.605      118.025      116.167       49.300    13929.966    13494.843     2430.471        4.393        1.493      238.490       52.972        0.049      345.591       23.226      855.710
04/11/2014  17:48:00     -105.272       12.002       -5.696      111.459       57.933       51.901    12423.172     3356.220     2693.740        1.486        0.924      105.954       49.737        0.220      345.638       23.309      855.709
04/11/2014  17:49:00      -71.858      -23.045       -9.474       59.027       45.270       29.535     3484.187     2049.381      872.319        0.609        0.320       75.462       14.998        0.040      345.729       23.467      855.708
04/11/2014  17:50:00      -73.279      -14.285        8.875       56.940       58.342       34.394     3242.203     3403.840     1182.957        0.674        0.391       74.658       18.173        0.059      345.746       23.498      855.708
04/11/2014  17:51:00     -167.474      -12.843       -9.693       76.806       58.085       41.464     5899.143     3373.911     1719.233        1.965        0.550      167.965       38.770        0.053      345.693       23.404      855.721
04/11/2014  17:52:00     -268.303      -12.586      -26.766       99.015      113.198       57.616     9804.014    12813.847     3319.576        4.939        1.297      268.598       45.325        0.028      345.611       23.261      855.727
04/11/2014  17:53:00     -162.293       49.965      -19.657      110.601       99.899       61.290    12232.558     9979.712     3756.518        2.759        1.298      169.811       65.533        0.149      345.533       23.130      855.737
04/11/2014  17:54:00     -223.079       78.989      -19.915      171.836      110.373       60.031    29527.520    12182.229     3603.729        5.085        2.266      236.651       61.242        0.067      345.542       23.143      855.725
04/11/2014  17:55:00     -305.285       17.813      -38.145      132.924      160.131       64.773    17668.761    25641.797     4195.483        7.123        2.375      305.804       71.044        0.054      345.401       22.900      855.739
04/11/2014  17:56:00     -303.148       20.762      -41.717      138.681      134.250       65.116    19232.362    18023.029     4240.095        6.777        2.075      303.858       67.942        0.050      345.398       22.895      855.739
04/11/2014  17:57:00     -194.166       68.233      -19.757      136.142       60.968       58.743    18534.768     3717.098     3450.766        3.422        1.285      205.806       56.132        0.074      345.430       22.953      855.734
04/11/2014  17:58:00     -178.875       68.645      -41.560       91.189      123.857       56.156     8315.443    15340.501     3153.539        3.262        1.340      191.595       53.291        0.077      345.444       22.977      855.732
04/11/2014  17:59:00     -165.278       94.814      -24.434       82.218       77.467       48.023     6759.752     6001.199     2306.227        2.598        0.753      190.543       40.829        0.046      345.480       23.036      855.725
04/11/2014  18:00:00      -53.404        3.351        6.503       56.935       56.292       44.124     3241.561     3168.775     1946.910        0.563        0.418       53.509       36.720        0.471      345.544       23.150      855.729
04/11/2014  18:01:00     -291.301      115.933      -34.781      124.694       71.597       59.005    15548.525     5126.089     3481.549        6.183        1.208      313.523       65.830        0.044      345.401       22.901      855.746
04/11/2014  18:02:00     -242.959       50.363      -40.004      111.834      127.462       78.151    12506.874    16246.482     6107.646        4.901        1.743      248.124       61.111        0.061      345.368       22.844      855.723
04/11/2014  18:03:00     -211.141       76.653      -20.916      149.270       94.673       78.227    22281.504     8962.884     6119.438        4.412        1.868      224.624       71.392        0.101      345.321       22.765      855.724
04/11/2014  18:04:00     -170.243       37.980      -13.469      105.141      101.834       60.147    11054.543    10370.228     3617.708        2.782        1.252      174.428       48.017        0.076      345.384       22.873      855.719
04/11/2014  18:05:00     -206.237       94.467      -12.099      148.606      121.734       84.252    22083.839    14819.204     7098.469        4.779        2.200      226.843       86.693        0.146      345.248       22.642      855.722
04/11/2014  18:06:00     -274.780      143.174      -44.627      139.385      134.745       71.214    19428.149    18156.277     5071.481        7.032        2.133      309.843       81.945        0.070      345.261       22.663      855.721
04/11/2014  18:07:00     -305.850      134.676      -55.936      124.159      105.127       60.255    15415.519    11051.781     3630.619        7.245        1.505      334.188       48.110        0.021      345.219       22.590      855.734
04/11/2014  18:08:00     -136.208       50.006       -6.395       91.103       82.729       42.841     8299.842     6844.116     1835.322        1.903        0.849      145.097       35.225        0.059      345.351       22.817      855.737
04/11/2014  18:09:00     -227.119       -6.663      -29.773       69.018      139.352       59.952     4763.536    19419.016     3594.196        4.014        1.389      227.217       48.406        0.045      345.311       22.746      855.735
04/11/2014  18:10:00     -267.674      -25.507      -18.406      164.261      117.359       53.336    26981.716    13773.113     2844.744        5.811        2.180      268.887       55.186        0.042      345.309       22.744      855.721
04/11/2014  18:11:00     -110.327      -53.557      -10.077      106.082       67.682       37.539    11253.337     4580.814     1409.167        1.619        0.862      122.639       40.094        0.107      345.369       22.848      855.723
04/11/2014  18:12:00     -110.982      -16.110        5.690       90.960       73.389       43.936     8273.777     5385.977     1930.333        1.410        0.780      112.145       43.476        0.150      345.378       22.864      855.731
04/11/2014  18:13:00     -219.321       12.875      -21.490       85.947       88.145       33.208     7386.931     7769.462     1102.768        3.249        0.813      219.699       33.397        0.023      345.325       22.770      855.735
04/11/2014  18:14:00     -172.472       76.929      -21.447      120.724      104.417       58.830    14574.309    10902.936     3460.997        3.253        1.447      188.851       57.735        0.093      345.308       22.743      855.734
04/11/2014  18:15:00     -185.314       -0.448       -7.534      112.392      112.669       58.099    12631.990    12694.260     3375.506        3.154        1.435      185.314       49.818        0.072      345.319       22.762      855.729
04/11/2014  18:16:00     -223.411       93.192      -21.436      147.673      150.776       73.197    21807.215    22733.305     5357.752        5.447        2.495      242.069       63.641        0.069      345.220       22.590      855.747
04/11/2014  18:17:00     -203.003       88.327      -43.440      118.923      121.204       72.676    14142.717    14690.376     5281.869        4.250        1.706      221.386       58.348        0.069      345.219       22.590      855.746
04/11/2014  18:18:00     -212.257      138.689      -18.023      139.018      109.423       81.243    19326.050    11973.357     6600.435        5.125        1.895      253.550       71.255        0.079      345.172       22.509      855.745
04/11/2014  18:19:00     -262.367      110.081      -49.434      103.288      134.868       65.353    10668.315    18189.464     4270.960        5.826        1.656      284.525       46.637        0.027      345.184       22.530      855.763
04/11/2014  18:20:00     -251.204       23.812      -40.032      101.285       99.162       67.634    10258.582     9833.094     4574.415        4.496        1.233      252.330       45.104        0.032      345.154       22.478      855.776
04/11/2014  18:21:00     -324.279      109.382      -37.092      185.325      138.428       74.322    34345.203    19162.396     5523.773        8.875        2.952      342.230       87.586        0.065      345.055       22.309      855.791
04/11/2014  18:22:00     -219.841       54.956      -31.072      139.489      144.875       73.742    19457.227    20988.854     5437.925        4.909        2.294      226.606       73.736        0.106      345.062       22.321      855.779
04/11/2014  18:23:00     -208.103       90.305      -19.567      119.674      166.482       63.896    14321.980    27716.349     4082.665        4.897        2.306      226.852       77.202        0.116      345.047       22.296      855.779
04/11/2014  18:24:00     -190.710       58.483       -3.808      152.788      107.932       88.306    23344.224    11649.270     7797.918        4.129        2.140      199.476       90.519        0.206      345.060       22.319      855.792
04/11/2014  18:25:00     -290.304      123.597      -53.063      176.131       88.285       63.133    31022.078     7794.204     3985.835        7.258        2.140      315.519       80.737        0.065      345.011       22.235      855.791
04/11/2014  18:26:00     -204.191       85.418      -29.104      119.806      101.605       60.582    14353.428    10323.509     3670.223        3.909        1.417      221.337       55.278        0.062      345.055       22.309      855.799
04/11/2014  18:27:00     -141.538       82.736      -25.626       91.169      119.857       58.869     8311.808    14365.762     3465.574        2.683        1.307      163.946       55.644        0.115      345.093       22.375      855.807
04/11/2014  18:28:00     -134.703       54.313      -14.860      107.632      121.441       69.435    11584.592    14748.013     4821.256        2.623        1.558      145.240       64.206        0.195      345.098       22.386      855.803
04/11/2014  18:29:00     -171.461      109.257      -28.212      128.271      110.674       63.536    16453.426    12248.695     4036.775        3.743        1.637      203.313       61.735        0.092      345.045       22.292      855.822
04/11/2014  18:30:00     -295.205      148.729      -51.366      143.156      137.887       78.498    20493.767    19012.892     6161.900        7.878        2.283      330.555       79.433        0.058      344.968       22.160      855.837
04/11/2014  18:31:00     -230.090        3.683      -27.810       87.804       92.853       53.598     7709.489     8621.752     2872.739        3.646        0.960      230.119       37.916        0.027      345.036       22.277      855.836
04/11/2014  18:32:00     -184.647       54.190      -27.027       98.749       74.746       53.237     9751.282     5586.965     2834.141        2.796        0.909      192.434       50.607        0.069      345.005       22.224      855.846
04/11/2014  18:33:00     -165.612      -28.594       -8.562       93.884       69.448       40.643     8814.259     4823.041     1651.873        2.180        0.764      168.062       36.052        0.046      345.046       22.295      855.847
04/11/2014  18:34:00     -174.513       -5.211       10.127      166.183       88.684       55.340    27616.775     7864.804     3062.495        3.456        1.927      174.591       63.659        0.133      345.032       22.272      855.842
04/11/2014  18:35:00     -276.640      -90.714       -6.653      147.271       89.097       59.488    21688.642     7938.326     3538.778        5.898        1.658      291.133       67.153        0.053      344.921       22.079      855.849
04/11/2014  18:36:00     -314.473     -101.310      -24.954      128.275       93.822       55.274    16454.365     8802.570     3055.209        6.904        1.416      330.389       44.091        0.018      344.919       22.075      855.862
04/11/2014  18:37:00     -264.614      -14.518      -27.037      102.983      103.389       48.034    10605.504    10689.233     2307.235        4.728        1.180      265.012       47.203        0.032      344.886       22.018      855.868
04/11/2014  18:38:00     -340.777      -49.595      -34.310      112.759      129.179       57.092    12714.603    16687.260     3259.503        7.621        1.633      344.367       55.206        0.026      344.847       21.952      855.871
04/11/2014  18:39:00     -234.788      -77.616      -12.719      162.026      108.013       63.460    26252.382    11666.899     4027.228        5.162        2.097      247.285       62.914        0.065      344.821       21.910      855.848
04/11/2014  18:40:00     -255.378      -77.492      -18.113      140.167      136.634       65.760    19646.797    18668.856     4324.404        5.709        2.132      266.876       53.843        0.041      344.805       21.881      855.864
04/11/2014  18:41:00     -194.150      -15.855      -28.992      102.431       98.302       61.789    10492.097     9663.258     3817.871        3.137        1.199      194.797       56.031        0.083      344.826       21.917      855.862
04/11/2014  18:42:00     -299.239     -111.996      -15.327      139.137       93.723       59.575    19359.241     8784.028     3549.211        6.700        1.585      319.511       67.873        0.045      344.797       21.868      855.853
04/11/2014  18:43:00     -397.652       29.467      -42.826      112.365      108.800       59.419    12625.822    11837.372     3530.609        9.441        1.400      398.743       53.220        0.018      344.771       21.822      855.854
04/11/2014  18:44:00     -354.916      -70.546      -36.073      142.881      125.728       70.830    20414.981    15807.562     5016.931        8.673        2.062      361.859       74.250        0.042      344.811       21.890      855.850
04/11/2014  18:45:00     -321.004     -145.718      -12.103      145.729      145.414       73.230    21236.829    21145.157     5362.662        8.607        2.387      352.530       60.383        0.029      344.799       21.872      855.841
04/11/2014  18:46:00     -379.707      -22.274      -26.281      145.538      104.616       63.554    21181.322    10944.467     4039.076        9.076        1.808      380.360       66.919        0.031      344.785       21.845      855.842
04/11/2014  18:47:00     -403.067     -110.437      -11.641      182.311      126.894       70.217    33237.152    16102.079     4930.366       11.452        2.713      417.923       79.845        0.037      344.766       21.815      855.814
04/11/2014  18:48:00     -326.832     -148.476      -16.757      151.268      119.307       69.063    22882.129    14234.097     4769.643        8.551        2.094      358.977       75.277        0.044      344.759       21.801      855.817
04/11/2014  18:49:00     -296.907      -70.711      -13.360      125.531      117.967       64.706    15757.985    13916.178     4186.862        6.359        1.693      305.211       64.590        0.045      344.750       21.788      855.820
04/11/2014  18:50:00     -266.207     -109.182      -13.802      169.081       99.857       70.128    28588.353     9971.475     4917.871        6.322        2.174      287.727       74.790        0.068      344.745       21.779      855.822
04/11/2014  18:51:00     -219.533      -30.327        0.006      132.407       93.277       54.882    17531.605     8700.513     3011.993        3.917        1.462      221.618       61.014        0.076      344.764       21.812      855.814
04/11/2014  18:52:00     -439.353       61.458      -28.781      163.645      128.762       63.604    26779.569    16579.645     4045.427       12.251        2.370      443.631       60.295        0.018      344.752       21.790      855.814
04/11/2014  18:53:00     -379.975      -42.211      -28.121      150.313      120.247       68.517    22593.967    14459.279     4694.563        9.434        2.087      382.313       75.135        0.039      344.741       21.771      855.810
04/11/2014  18:54:00     -359.481     -158.133      -14.712      148.651       96.871       58.851    22097.151     9383.938     3463.477        9.469        1.747      392.724       62.348        0.025      344.714       21.725      855.796
04/11/2014  18:55:00     -317.399      -15.647      -19.229      114.085      136.782       52.807    13015.491    18709.220     2788.583        6.793        1.726      317.784       50.509        0.025      344.732       21.756      855.796
04/11/2014  18:56:00     -301.861      -31.216      -21.664      107.773      119.572       67.904    11615.081    14297.539     4610.955        6.154        1.526      303.471       61.121        0.041      344.751       21.789      855.808
04/11/2014  18:57:00     -412.447      -70.783       -8.630      165.395      130.731       75.429    27355.389    17090.688     5689.517       11.266        2.507      418.477       87.409        0.044      344.689       21.682      855.799
04/11/2014  18:58:00     -369.080      -93.561        0.260      158.505      158.373       72.681    25123.693    25082.089     5282.574       10.022        2.774      380.754       80.832        0.045      344.671       21.650      855.790
04/11/2014  18:59:00     -366.279     -117.812      -17.986      118.475       87.925       51.727    14036.254     7730.845     2675.637        8.640        1.222      384.760       49.101        0.016      344.670       21.648      855.793
04/11/2014  19:00:00     -295.434     -105.845       -7.309      144.629      111.025       65.576    20917.592    12326.532     4300.214        6.803        1.877      313.822       67.781        0.047      344.667       21.644      855.779
04/11/2014  19:01:00     -367.785      -54.092      -32.408      139.263      118.920       63.230    19394.166    14141.878     3998.059        8.838        1.877      371.742       67.272        0.033      344.642       21.602      855.806
04/11/2014  19:02:00     -359.027       10.686       -9.020      168.334      138.847       63.317    28336.386    19278.457     4009.072        9.035        2.581      359.186       66.475        0.034      344.600       21.530      855.795
04/11/2014  19:03:00     -286.279      -48.165       -1.858      151.534      109.884       68.184    22962.608    12074.603     4649.003        6.197        1.984      290.303       78.054        0.072      344.576       21.489      855.796
04/11/2014  19:04:00     -283.143     -153.320      -14.241      125.670      136.038       66.237    15792.983    18506.437     4387.393        7.128        1.934      321.989       70.196        0.048      344.594       21.520      855.800
04/11/2014  19:05:00     -211.629      -70.365       12.626      175.370      128.460       76.150    30754.589    16501.869     5798.864        5.147        2.653      223.020       88.799        0.159      344.531       21.413      855.796
04/11/2014  19:06:00     -190.653      -90.399        7.711      139.301      101.992       61.971    19404.727    10402.408     3840.411        3.911        1.682      210.999       70.861        0.113      344.582       21.500      855.818
04/11/2014  19:07:00     -282.830     -142.603      -11.576      123.184      121.358       69.786    15174.274    14727.707     4870.113        6.761        1.739      316.747       71.613        0.051      344.593       21.518      855.807
04/11/2014  19:08:00     -189.458      -80.409       10.813      148.111      148.648       79.721    21936.729    22096.106     6355.435        4.642        2.519      205.815       76.365        0.138      344.545       21.437      855.817
04/11/2014  19:09:00     -293.119     -100.127        5.641      218.373      152.039       97.643    47686.879    23115.972     9534.138        8.814        4.017      309.748      111.831        0.130      344.502       21.363      855.812
04/11/2014  19:10:00     -420.188     -105.223      -31.338      209.707      139.341       87.463    43977.213    19416.017     7649.855       12.981        3.552      433.163       98.487        0.052      344.472       21.312      855.801
04/11/2014  19:11:00     -376.851     -242.865        6.125      226.060      173.366       86.847    51102.927    30055.794     7542.335       14.485        4.435      448.330      107.771        0.058      344.426       21.235      855.803
04/11/2014  19:12:00     -334.814     -160.589      -17.843      139.629      105.167       69.478    19496.240    11060.102     4827.259        8.679        1.769      371.334       69.318        0.035      344.436       21.250      855.803
04/11/2014  19:13:00     -247.297     -107.766       18.607      164.102      129.386       64.715    26929.436    16740.776     4188.055        6.048        2.393      269.758       70.703        0.069      344.411       21.208      855.810
04/11/2014  19:14:00     -436.484     -136.537      -25.194      170.310      119.727       74.136    29005.418    14334.566     5496.144       12.931        2.442      457.341       79.495        0.030      344.385       21.163      855.807
04/11/2014  19:15:00     -473.608     -120.261      -40.746      206.520      165.563       87.600    42650.716    27411.027     7673.718       15.907        3.887      488.639       95.366        0.038      344.350       21.103      855.795
04/11/2014  19:16:00     -391.871     -115.316       -9.350      191.932      140.493       87.370    36837.854    19738.333     7633.510       11.557        3.210      408.486       95.526        0.055      344.340       21.085      855.796
04/11/2014  19:17:00     -215.144     -115.634        9.967      185.708      125.250       87.807    34487.497    15687.630     7710.099        5.881        2.894      244.250       96.173        0.155      344.312       21.040      855.800
04/11/2014  19:18:00     -260.658      -77.707        1.035      138.648      100.756       59.028    19223.348    10151.761     3484.329        5.341        1.643      271.994       57.545        0.045      344.297       21.013      855.811
04/11/2014  19:19:00     -420.390     -277.750       -9.646      190.209      173.357      104.384    36179.463    30052.509    10896.026       16.553        3.856      503.858      110.787        0.048      344.202       20.850      855.815
04/11/2014  19:20:00     -407.579     -239.151       -6.375      188.944      152.814       74.661    35699.747    23352.181     5574.277       14.398        3.231      472.561       88.054        0.035      344.180       20.813      855.809
04/11/2014  19:21:00     -328.840     -185.352      -13.219      156.351      165.645       74.440    24445.599    27438.363     5541.332       10.003        2.871      377.480       58.285        0.024      344.155       20.769      855.810
04/11/2014  19:22:00     -297.406     -203.082        0.780      170.743      128.140       70.373    29153.152    16419.965     4952.398        9.010        2.526      360.128       74.426        0.043      344.134       20.733      855.818
04/11/2014  19:23:00     -285.678     -229.584       -1.604      179.425      152.614       91.996    32193.368    23290.969     8463.216        9.912        3.197      366.498       99.094        0.073      344.124       20.717      855.821
04/11/2014  19:24:00     -290.544      -84.386       -6.761      173.614      122.043       64.656    30141.680    14894.570     4180.447        7.039        2.461      302.551       71.537        0.056      344.092       20.662      855.835
04/11/2014  19:25:00     -199.885      -33.335       10.192      203.040      126.848       87.538    41225.298    16090.404     7662.818        5.306        3.249      202.646       95.017        0.220      344.067       20.621      855.839
04/11/2014  19:26:00     -407.703     -135.351      -16.969      199.024      134.883       85.561    39610.497    18193.465     7320.693       12.496        3.256      429.583       94.829        0.049      344.030       20.557      855.855
04/11/2014  19:27:00     -433.374     -128.662      -10.422      196.151      167.719       73.445    38475.097    28129.607     5394.159       13.822        3.600      452.070       70.124        0.024      344.036       20.567      855.862
04/11/2014  19:28:00     -245.344      -75.252        4.489      189.155      126.958       73.932    35779.581    16118.211     5465.910        6.161        2.868      256.625       94.539        0.136      344.009       20.522      855.880
04/11/2014  19:29:00     -284.334     -107.490       -3.687      168.852      147.305       89.161    28511.027    21698.894     7949.647        7.527        2.908      303.974       86.939        0.082      343.989       20.486      855.870
04/11/2014  19:30:00     -458.968     -192.884      -11.322      199.438      130.120       87.503    39775.615    16931.296     7656.794       15.616        3.218      497.852      105.339        0.045      343.958       20.432      855.869
04/11/2014  19:31:00     -372.250     -189.793       -3.089      186.578      109.916       85.815    34811.395    12081.562     7364.273       11.442        2.713      417.842       92.758        0.049      343.920       20.368      855.868
04/11/2014  19:32:00     -271.505     -100.412       12.809      148.592      107.240       63.656    22079.487    11500.312     4052.117        6.079        1.882      289.478       78.464        0.073      343.893       20.323      855.901
04/11/2014  19:33:00     -216.979     -127.801        7.441      170.969      183.530       78.399    29230.261    33683.432     6146.334        6.625        3.453      251.819       98.045        0.152      343.872       20.287      855.904
04/11/2014  19:34:00     -483.937     -240.371      -23.841      216.790      188.538      105.406    46997.958    35546.575    11110.439       19.308        4.683      540.346      113.003        0.044      343.851       20.251      855.868
04/11/2014  19:35:00     -322.796      -20.076      -17.257      184.066      120.190       82.361    33880.453    14445.564     6783.382        7.999        2.755      323.420       93.006        0.083      343.833       20.220      855.910
04/11/2014  19:36:00     -408.654     -240.060      -13.424      151.662      129.936       73.880    23001.442    16883.466     5458.191       13.507        2.267      473.948       74.444        0.025      343.837       20.228      855.904
04/11/2014  19:37:00     -240.335      -84.357        2.848      158.308      133.044       64.644    25061.533    17700.630     4178.824        5.590        2.347      254.709       76.098        0.089      343.814       20.189      855.922
04/11/2014  19:38:00     -212.456      -97.849       -4.338      198.747      117.171       73.519    39500.191    13729.105     5405.003        5.667        2.932      233.906       86.652        0.137      343.799       20.163      855.924
04/11/2014  19:39:00     -247.346     -121.314       -0.853      151.940      147.671       70.966    23085.685    21806.798     5036.119        6.290        2.496      275.494       78.355        0.081      343.771       20.115      855.942
04/11/2014  19:40:00     -319.778     -137.901      -22.458       97.524       75.273       44.687     9510.865     5666.068     1996.956        6.947        0.859      348.245       40.529        0.014      343.757       20.090      855.959
04/11/2014  19:41:00     -188.999      -88.324       -0.556      130.586       95.768       46.402    17052.660     9171.600     2153.186        3.594        1.419      208.618       61.068        0.086      343.747       20.073      855.953
04/11/2014  19:42:00     -198.017     -131.669        1.097      129.706      107.588       60.940    16823.765    11575.096     3713.715        4.432        1.606      237.797       68.578        0.083      343.714       20.016      855.957
04/11/2014  19:43:00     -246.957     -130.356      -11.817      126.382       79.727       67.911    15972.286     6356.401     4611.873        5.252        1.347      279.250       76.469        0.075      343.715       20.016      855.956
04/11/2014  19:44:00     -225.727     -158.836      -12.371      120.695      101.322       65.876    14567.364    10266.172     4339.607        5.275        1.459      276.010       64.836        0.055      343.703       19.996      855.952
04/11/2014  19:45:00     -255.137     -165.668       -9.010      116.582       75.678       61.133    13591.410     5727.193     3737.200        5.783        1.153      304.205       49.800        0.027      343.691       19.976      855.964
04/11/2014  19:46:00     -212.302     -120.695       14.938      177.368      122.617       84.086    31459.250    15034.945     7070.523        5.670        2.678      244.212       85.722        0.123      343.649       19.906      855.961
04/11/2014  19:47:00     -334.202     -198.293       -9.615      242.809      169.866       99.356    58956.113    28854.376     9871.628       12.437        4.884      388.601       99.592        0.066      343.681       19.960      855.943
04/11/2014  19:48:00     -342.790     -141.694      -13.830      156.437      125.995       72.976    24472.379    15874.761     5325.503        9.171        2.284      370.921       74.113        0.040      343.667       19.935      855.977
04/11/2014  19:49:00     -180.616      -18.257        7.043      166.730      116.722       67.688    27798.848    13623.933     4581.619        3.950        2.300      181.536       81.177        0.200      343.638       19.888      855.983
04/11/2014  19:50:00     -301.859      -66.553       -2.606      183.982      122.652       76.384    33849.465    15043.492     5834.538        7.513        2.736      309.109       86.258        0.078      343.606       19.832      855.991
04/11/2014  19:51:00     -350.369      -60.845      -13.127      202.878      152.465       81.909    41159.527    23245.447     6709.026        9.886        3.556      355.613       93.214        0.069      343.605       19.832      855.992
04/11/2014  19:52:00     -240.858     -171.672       14.077      164.200      153.326       95.441    26961.629    23509.013     9109.016        7.362        2.979      295.776      104.512        0.125      343.613       19.845      855.999
04/11/2014  19:53:00     -379.831     -136.750      -25.784      148.988      144.614       77.249    22197.292    20913.123     5967.358       10.635        2.454      403.698       71.333        0.031      343.596       19.815      856.003
04/11/2014  19:54:00     -271.991      -61.455       11.156      152.926      114.171       68.346    23386.446    13034.985     4671.200        5.948        2.055      278.847       77.937        0.078      343.541       19.722      856.019
04/11/2014  19:55:00     -149.330      -97.037       -2.756      140.170      108.616       69.930    19647.512    11797.374     4890.150        3.402        1.817      178.089       61.120        0.118      343.549       19.735      856.029
04/11/2014  19:56:00     -291.476     -137.208      -19.377      123.777      133.175       69.999    15320.666    17735.470     4899.814        7.105        1.898      322.155       62.185        0.037      343.555       19.747      856.028
04/11/2014  19:57:00     -243.221       -5.621       10.372      151.278      119.458       71.050    22885.009    14270.250     5048.112        5.074        2.110      243.286       78.508        0.104      343.510       19.669      856.035
04/11/2014  19:58:00     -306.921      -79.154      -25.119      123.149      101.015       61.904    15165.606    10203.977     3832.115        6.514        1.460      316.963       60.133        0.036      343.496       19.644      856.052
04/11/2014  19:59:00     -149.282      -43.576        4.458      165.802      109.082       67.524    27490.196    11898.965     4559.460        3.407        2.197      155.512       59.257        0.145      343.484       19.625      856.041
04/11/2014  20:00:00     -392.603        9.095      -20.021      193.407      122.211       67.537    37406.457    14935.613     4561.300       10.575        2.845      392.709       66.774        0.029      343.453       19.573      856.049
04/11/2014  20:01:00     -229.112      -83.927      -15.830      151.261      105.103       60.403    22879.777    11046.671     3648.575        4.867        1.879      244.000       70.580        0.084      343.455       19.577      856.043
04/11/2014  20:02:00     -394.314      -87.934      -15.751      215.925      102.981       71.044    46623.436    10605.013     5047.277       11.286        3.114      404.000       99.895        0.061      343.425       19.525      856.031
04/11/2014  20:03:00     -337.658      -79.792       -3.680      233.709      139.303       77.611    54620.087    19405.303     6023.484       10.021        4.002      346.958      103.184        0.088      343.433       19.537      856.035
04/11/2014  20:04:00     -395.551     -126.965      -22.771      152.217      157.999       76.881    23170.058    24963.536     5910.631       11.356        2.702      415.428       61.689        0.022      343.417       19.511      856.022
04/11/2014  20:05:00     -445.691     -177.896      -26.551      162.248      138.588       75.146    26324.541    19206.634     5646.973       14.107        2.559      479.883       81.931        0.029      343.392       19.468      856.023
04/11/2014  20:06:00     -442.440      -67.553      -31.647      212.818      147.203       85.142    45291.451    21668.850     7249.120       13.775        3.710      447.568       98.540        0.048      343.379       19.445      856.042
04/11/2014  20:07:00     -252.285     -117.578        6.472      162.061      152.025       81.457    26263.705    23111.533     6635.255        6.675        2.801      278.339       88.609        0.101      343.368       19.428      856.051
04/11/2014  20:08:00     -325.028        9.226      -16.436      122.512      128.822       67.963    15009.169    16595.226     4618.941        7.110        1.811      325.159       48.510        0.022      343.368       19.427      856.053
04/11/2014  20:09:00     -240.510      -76.479       -8.050      163.118      102.388       70.197    26607.528    10483.319     4927.614        5.288        2.101      252.377       70.858        0.079      343.354       19.405      856.067
04/11/2014  20:10:00     -263.268      -13.757      -11.174      223.579      120.094       59.504    49987.464    14422.675     3540.746        6.877        3.398      263.627       84.307        0.102      343.318       19.344      856.078
04/11/2014  20:11:00     -333.136      -14.603      -11.219      182.073      143.142       80.293    33150.595    20489.773     6446.991        8.569        3.004      333.456       82.194        0.061      343.318       19.341      856.087
04/11/2014  20:12:00     -199.265       22.627        7.508      174.358      122.905       75.071    30400.833    15105.665     5635.662        4.570        2.557      200.545       71.352        0.127      343.268       19.257      856.104
04/11/2014  20:13:00     -264.250      -89.021      -11.655      162.701      108.803       60.152    26471.714    11838.139     3618.257        5.990        2.096      278.842       57.070        0.042      343.286       19.288      856.124
04/11/2014  20:14:00     -335.404     -100.412      -18.039      177.420      180.279       72.423    31477.939    32500.613     5245.093        9.605        3.461      350.112       80.446        0.053      343.244       19.214      856.118
04/11/2014  20:15:00     -277.553      -62.390       -0.763      154.762      126.710       59.807    23951.195    16055.433     3576.859        6.225        2.179      284.479       71.503        0.063      343.239       19.207      856.126
04/11/2014  20:16:00     -181.014      -32.476        2.272       95.500       84.161       47.289     9120.294     7083.133     2236.240        2.613        0.922      183.904       39.442        0.046      343.189       19.124      856.137
04/11/2014  20:17:00     -315.838      -62.941      -13.349      167.304       99.276       64.090    27990.517     9855.762     4107.530        7.292        2.098      322.048       73.968        0.053      343.196       19.134      856.140
04/11/2014  20:18:00     -345.565      -78.534      -37.581      216.666      112.531       79.804    46943.954    12663.168     6368.716        9.647        3.299      354.377       93.255        0.069      343.161       19.073      856.137
04/11/2014  20:19:00     -309.749      -40.630       -0.127      204.226      139.934       73.760    41708.218    19581.595     5440.505        8.215        3.337      312.402       85.289        0.075      343.160       19.073      856.150
04/11/2014  20:20:00     -166.186      -91.701        4.243      143.131       96.416       77.543    20486.526     9295.955     6012.868        3.591        1.790      189.807       69.972        0.136      343.159       19.072      856.139
04/11/2014  20:21:00     -390.375      -76.557      -12.865      151.241      110.280       57.929    22873.954    12161.576     3355.723        9.840        1.920      397.810       58.105        0.021      343.135       19.030      856.157
04/11/2014  20:22:00     -271.456     -127.261        7.000      177.240      171.095       91.979    31413.973    29273.643     8460.128        7.953        3.457      299.806      112.377        0.141      343.121       19.008      856.152
04/11/2014  20:23:00     -212.287      -76.671        3.035      130.630      109.332       68.966    17064.224    11953.391     4756.252        4.236        1.689      225.708       67.794        0.090      343.096       18.963      856.168
04/11/2014  20:24:00     -253.953      -68.304       -1.587      136.605       87.917       60.060    18660.964     7729.470     3607.169        4.957        1.500      262.978       53.072        0.041      343.054       18.892      856.188
04/11/2014  20:25:00     -274.261      -17.967       -4.082      129.134       88.574       57.328    16675.634     7845.370     3286.496        5.168        1.390      274.849       64.342        0.055      343.027       18.846      856.209
04/11/2014  20:26:00     -382.332      -50.951      -11.686      185.786      121.609       68.468    34516.547    14788.793     4687.808       10.144        2.700      385.712       81.885        0.045      343.049       18.883      856.216
04/11/2014  20:27:00     -314.541        5.400      -20.389      123.551      121.136       59.660    15264.868    14673.847     3559.295        6.643        1.675      314.588       52.445        0.028      342.994       18.791      856.239
04/11/2014  20:28:00     -255.171      -54.742       -4.601      117.028       91.082       63.353    13695.610     8295.891     4013.638        4.706        1.300      260.977       52.803        0.041      342.968       18.747      856.243
04/11/2014  20:29:00     -350.863     -130.065       -8.011      168.102       97.300       61.436    28258.362     9467.265     3774.343        9.078        2.075      374.195       50.627        0.018      342.964       18.739      856.259
04/11/2014  20:30:00     -311.380      -50.574       -9.530      106.987      129.439       60.936    11446.273    16754.501     3713.180        6.575        1.596      315.460       49.125        0.024      342.950       18.715      856.280
04/11/2014  20:31:00     -318.765      -69.296       -4.136      202.115      132.210       85.728    40850.354    17479.536     7349.207        8.604        3.284      326.210      101.732        0.097      342.952       18.718      856.287
04/11/2014  20:32:00     -460.397       -0.446      -48.566      144.248      130.547       66.966    20807.384    17042.540     4484.448       12.832        2.117      460.397       70.802        0.024      342.954       18.723      856.301
04/11/2014  20:33:00     -305.140       -6.378      -21.732      207.451       98.833       63.569    43035.864     9768.039     4041.035        7.522        2.842      305.207       84.743        0.077      342.928       18.679      856.298
04/11/2014  20:34:00     -247.576      -37.980      -10.833      160.392      121.293       53.400    25725.714    14712.068     2851.608        5.306        2.164      250.472       62.693        0.063      342.922       18.667      856.306
04/11/2014  20:35:00     -351.481      -74.552      -24.681      111.849      112.910       63.742    12510.176    12748.749     4063.095        7.951        1.466      359.301       51.023        0.020      342.907       18.643      856.314
04/11/2014  20:36:00     -254.940      -84.764       -4.098      139.384      113.840       66.491    19427.909    12959.468     4421.054        5.450        1.840      268.663       60.091        0.050      342.891       18.615      856.331
04/11/2014  20:37:00     -240.547      -36.240        5.993      182.476      112.029       58.962    33297.356    12550.514     3476.501        5.426        2.466      243.261       71.624        0.087      342.863       18.568      856.344
04/11/2014  20:38:00     -240.740      -42.796      -12.080      125.220      100.676       59.741    15680.042    10135.613     3569.008        4.465        1.469      244.515       55.374        0.051      342.859       18.560      856.370
04/11/2014  20:39:00     -335.668      -33.707      -11.646      125.565      129.210       68.020    15766.687    16695.201     4626.748        7.551        1.854      337.356       66.919        0.039      342.870       18.580      856.385
04/11/2014  20:40:00     -258.141      -71.089       -6.530      127.166      116.863       55.212    16171.157    13657.062     3048.355        5.230        1.644      267.750       65.466        0.060      342.831       18.511      856.393
04/11/2014  20:41:00     -210.744      -36.071      -17.008      147.727       92.300       69.067    21823.340     8519.351     4770.278        4.055        1.756      213.809       78.581        0.135      342.864       18.569      856.399
04/11/2014  20:42:00     -283.190      -41.080      -23.847      136.383      102.317       55.515    18600.344    10468.731     3081.928        5.730        1.608      286.154       52.001        0.033      342.845       18.536      856.415
04/11/2014  20:43:00     -424.799      -21.275      -39.860      188.810      113.809       79.741    35649.271    12952.403     6358.681       11.872        2.748      425.331       85.014        0.040      342.830       18.511      856.422
04/11/2014  20:44:00     -412.263      -39.827      -15.770      163.877      127.130       71.390    26855.584    16162.164     5096.585       10.995        2.406      414.182       84.861        0.042      342.798       18.456      856.429
04/11/2014  20:45:00     -340.968      -37.647      -10.051      153.458      117.879       66.635    23549.461    13895.530     4440.288        7.982        2.094      343.040       73.703        0.046      342.766       18.401      856.443
04/11/2014  20:46:00     -302.144      -73.906      -18.559      124.677      110.640       65.945    15544.388    12241.139     4348.790        6.461        1.607      311.052       62.972        0.041      342.767       18.403      856.451
04/11/2014  20:47:00     -356.808     -113.346      -15.613      118.672      137.654       70.496    14083.021    18948.563     4969.635        8.919        1.900      374.379       65.226        0.030      342.795       18.452      856.462
04/11/2014  20:48:00     -348.370      -72.593      -13.552      139.621      130.086       68.683    19494.132    16922.432     4717.332        8.397        2.057      355.853       58.628        0.027      342.769       18.408      856.463
04/11/2014  20:49:00     -488.459     -164.870      -12.486      203.244      133.325       79.064    41308.220    17775.542     6251.157       16.562        3.267      515.533       89.077        0.030      342.797       18.455      856.478
04/11/2014  20:50:00     -495.673     -116.656      -22.303      172.978      136.932       76.992    29921.370    18750.384     5927.692       15.719        2.730      509.215       79.872        0.025      342.797       18.455      856.464
04/11/2014  20:51:00     -431.026     -117.415      -15.025      165.127      126.011       73.630    27266.860    15878.840     5421.408       12.417        2.428      446.733       78.179        0.031      342.763       18.396      856.485
04/11/2014  20:52:00     -510.322     -126.454      -30.847      157.938      123.210       74.485    24944.555    15180.617     5547.944       16.151        2.284      525.755       65.207        0.015      342.789       18.441      856.502
04/11/2014  20:53:00     -335.149     -102.587      -17.320      161.994      129.267       78.262    26242.182    16709.916     6124.885        8.610        2.454      350.499       77.408        0.049      342.748       18.370      856.518
04/11/2014  20:54:00     -252.085      -55.446       -8.349      153.292       97.019       56.812    23498.336     9412.747     3227.621        5.141        1.807      258.110       50.611        0.038      342.720       18.324      856.537
04/11/2014  20:55:00     -154.406      -49.490       24.277      158.932       97.769       68.582    25259.322     9558.763     4703.544        3.319        1.976      162.144       87.619        0.292      342.698       18.286      856.548
04/11/2014  20:56:00     -166.604      -63.330        4.036      147.614      107.079       67.889    21789.748    11465.882     4608.962        3.482        1.893      178.235       74.129        0.173      342.708       18.303      856.559
04/11/2014  20:57:00     -179.906      -48.348       14.025       91.903       83.618       60.140     8446.140     6991.959     3616.772        2.697        0.953      186.289       58.267        0.098      342.707       18.301      856.581
04/11/2014  20:58:00     -287.209      -63.896       -9.400      168.416      184.050       76.080    28363.915    33874.552     5788.240        7.733        3.401      294.230       73.081        0.062      342.754       18.382      856.599
04/11/2014  20:59:00     -212.737      -67.080        0.909      170.596      119.990       71.130    29103.068    14397.503     5059.406        4.915        2.428      223.062       71.962        0.104      342.746       18.368      856.599
04/11/2014  21:00:00     -355.596      -60.587      -17.035      202.146      142.857       76.874    40862.808    20408.160     5909.548        9.878        3.359      360.721       88.498        0.060      342.763       18.396      856.613
04/11/2014  21:01:00     -311.731      -51.257      -12.465      185.230      143.506       67.461    34310.020    20594.069     4550.954        7.969        2.973      315.917       75.494        0.057      342.723       18.328      856.630
04/11/2014  21:02:00     -285.831      -47.938       -7.585      174.205      112.451       67.588    30347.356    12645.334     4568.187        6.580        2.378      289.823       82.331        0.081      342.705       18.301      856.627
04/11/2014  21:03:00     -257.855       -9.200      -12.434      147.560      109.323       70.085    21774.065    11951.447     4911.916        5.268        1.932      258.020       73.135        0.080      342.703       18.295      856.638
04/11/2014  21:04:00     -264.998      -14.509       -7.024      173.899      104.218       71.850    30240.747    10861.493     5162.372        5.837        2.313      265.395       82.996        0.098      342.681       18.257      856.641
04/11/2014  21:05:00     -369.966     -103.272       -8.164      196.299      110.955       65.713    38533.233    12310.957     4318.186       10.137        2.758      384.110       63.229        0.027      342.668       18.235      856.637
04/11/2014  21:06:00     -291.914      -70.843      -13.600      148.724      136.877       61.443    22118.730    18735.415     3775.271        6.751        2.231      300.388       65.825        0.048      342.662       18.226      856.648
04/11/2014  21:07:00     -312.183      -38.963       -7.789      229.964      111.682       82.940    52883.571    12472.807     6879.111        8.562        3.612      314.605      111.304        0.125      342.615       18.146      856.645
04/11/2014  21:08:00     -388.646     -172.649      -13.349      195.144      124.337       75.326    38081.022    15459.739     5674.062       12.011        2.961      425.269       82.766        0.038      342.646       18.197      856.645
04/11/2014  21:09:00     -279.111      -62.388        0.178      143.489      121.116       75.611    20589.047    14669.029     5717.053        6.138        2.049      285.998       78.305        0.075      342.618       18.151      856.664
04/11/2014  21:10:00     -291.231      -46.343      -10.286      136.332      131.047       68.737    18586.354    17173.421     4724.788        6.377        2.024      294.895       64.395        0.048      342.599       18.119      856.669
04/11/2014  21:11:00     -216.731     -112.396       -3.990      121.776      103.984       60.533    14829.418    10812.680     3664.253        4.446        1.465      244.142       57.373        0.055      342.624       18.161      856.680
04/11/2014  21:12:00     -228.116      -67.604       -0.088      140.871      134.175       73.601    19844.631    18002.995     5417.167        4.993        2.163      237.923       50.837        0.046      342.609       18.136      856.680
04/11/2014  21:13:00     -234.162     -118.521       -1.407      141.816      154.674       70.401    20111.876    23924.157     4956.252        5.893        2.450      262.449       53.119        0.041      342.604       18.128      856.696
04/11/2014  21:14:00     -177.106      -61.753        5.366      133.633      111.890       63.702    17857.765    12519.376     4058.007        3.482        1.722      187.563       72.896        0.151      342.580       18.088      856.704
04/11/2014  21:15:00     -231.750      -72.666       -6.517      117.666      132.776       87.102    13845.230    17629.562     7586.696        4.904        1.953      242.876       78.681        0.105      342.560       18.053      856.727
04/11/2014  21:16:00     -153.331     -125.467       17.674      171.919      127.167       82.016    29556.225    16171.449     6726.629        4.600        2.623      198.122       97.529        0.242      342.541       18.021      856.721
04/11/2014  21:17:00     -126.582      -77.916       20.725      141.531      123.698       82.083    20030.966    15301.256     6737.613        3.229        2.103      148.640       85.729        0.333      342.556       18.047      856.720
04/11/2014  21:18:00     -315.833      -90.189      -12.710      129.182       96.133       52.634    16688.058     9241.646     2770.310        6.837        1.435      328.458       50.547        0.024      342.557       18.046      856.746
04/11/2014  21:19:00     -147.734      -57.225       12.757      163.403      135.031       65.912    26700.557    18233.258     4344.383        3.726        2.464      158.430       75.011        0.224      342.524       17.992      856.750
04/11/2014  21:20:00     -163.281      -80.069       12.694      139.410      129.969       58.726    19435.201    16892.061     3448.792        3.650        1.989      181.856       64.688        0.127      342.546       18.030      856.770
04/11/2014  21:21:00     -139.183      -12.843        1.250      147.199       96.015       58.634    21667.408     9218.843     3437.944        2.692        1.716      139.774       50.742        0.132      342.523       17.990      856.772
04/11/2014  21:22:00     -292.475        6.347      -24.460      123.186      104.555       49.010    15174.891    10931.699     2402.010        5.734        1.425      292.544       45.217        0.024      342.514       17.973      856.790
04/11/2014  21:23:00     -156.471      -80.742       -7.720      115.437       77.100       56.399    13325.729     5944.455     3180.798        2.675        1.123      176.075       61.507        0.122      342.512       17.973      856.796
04/11/2014  21:24:00     -220.858      -48.342        9.392      132.886      112.992       62.763    17658.801    12767.115     3939.134        4.278        1.718      226.087       62.717        0.077      342.480       17.917      856.799
04/11/2014  21:25:00     -241.605     -100.974       -4.189      172.309      119.342       68.378    29690.343    14242.449     4675.548        5.859        2.430      261.856       72.739        0.077      342.518       17.980      856.791
04/11/2014  21:26:00     -261.216     -137.541       -5.276      154.412      130.884       79.784    23843.027    17130.745     6365.477        6.725        2.367      295.214       82.570        0.078      342.529       17.998      856.784
04/11/2014  21:27:00     -230.230     -126.268        5.174      140.898      118.603       72.180    19852.334    14066.557     5209.955        5.404        1.956      262.583       79.550        0.092      342.518       17.979      856.795
04/11/2014  21:28:00     -192.945      -84.887        8.321      107.062      142.386       59.108    11462.181    20273.688     3493.760        3.986        1.761      210.793       53.958        0.066      342.519       17.983      856.798
04/11/2014  21:29:00     -292.232     -196.244      -17.271      110.483      110.481       69.374    12206.588    12205.968     4812.812        7.671        1.461      352.011       63.858        0.033      342.508       17.964      856.801
04/11/2014  21:30:00     -305.691     -184.059       -8.000      142.401      137.473       63.054    20278.036    18898.716     3975.843        8.526        2.158      356.826       66.331        0.035      342.505       17.960      856.808
04/11/2014  21:31:00     -250.054     -197.890        8.002      142.477      147.834       82.662    20299.825    21854.999     6833.061        7.536        2.449      318.885       83.421        0.068      342.517       17.977      856.811
04/11/2014  21:32:00     -186.427     -158.788       -6.373      158.540      114.624       77.626    25134.901    13138.551     6025.851        5.215        2.215      244.885       73.363        0.090      342.523       17.990      856.820
04/11/2014  21:33:00     -198.574      -95.666        0.925      126.805      107.867       56.392    16079.422    11635.336     3180.096        3.973        1.545      220.417       51.886        0.055      342.498       17.948      856.820
04/11/2014  21:34:00     -265.243      -73.996       -5.780      134.086      111.610       58.161    17978.979    12456.898     3382.750        5.483        1.691      275.371       48.005        0.030      342.512       17.971      856.836
04/11/2014  21:35:00     -211.109     -140.805       11.328      154.985      148.903       83.092    24020.346    22172.208     6904.232        5.880        2.655      253.758       95.910        0.143      342.520       17.984      856.833
04/11/2014  21:36:00     -212.402     -155.974        5.181      144.297      143.829       69.884    20821.757    20686.778     4883.789        5.792        2.320      263.520       69.073        0.069      342.505       17.958      856.824
04/11/2014  21:37:00     -124.462      -77.620        1.725      102.548       85.234       51.240    10516.022     7264.818     2625.518        2.096        1.020      146.682       55.421        0.143      342.465       17.893      856.842
04/11/2014  21:38:00     -294.833     -115.114      -16.274      131.318       79.952       46.485    17244.290     6392.285     2160.891        6.311        1.290      316.508       55.953        0.031      342.468       17.895      856.843
04/11/2014  21:39:00     -208.366     -191.070       -3.904      129.817      101.694       66.104    16852.395    10341.705     4369.791        5.575        1.578      282.709       62.855        0.049      342.444       17.855      856.849
04/11/2014  21:40:00     -242.943     -192.004       -3.208      132.787      105.190       70.225    17632.279    11065.019     4931.549        6.476        1.681      309.656       79.925        0.067      342.440       17.848      856.851
04/11/2014  21:41:00     -207.986     -111.927      -20.081      124.468       82.803       54.488    15492.169     6856.389     2968.930        4.075        1.266      236.191       50.689        0.046      342.434       17.838      856.843
04/11/2014  21:42:00     -258.320      -36.298        3.019      138.572       89.920       55.315    19202.118     8085.593     3059.754        4.920        1.517      260.858       62.379        0.057      342.438       17.845      856.851
04/11/2014  21:43:00     -215.386     -108.710       -7.183      131.505       83.168       52.586    17293.616     6916.989     2765.323        4.261        1.349      241.265       58.934        0.060      342.438       17.844      856.870
04/11/2014  21:44:00     -262.759     -101.124       -2.290      127.973      116.460       60.215    16377.011    13562.957     3625.873        5.641        1.678      281.546       61.499        0.048      342.438       17.845      856.868
04/11/2014  21:45:00     -167.458      -26.233        3.450       88.192       77.078       44.254     7777.777     5941.061     1958.418        2.221        0.784      169.500       32.176        0.036      342.395       17.771      856.862
04/11/2014  21:46:00     -168.911      -13.758      -21.166       83.313       54.454       40.807     6941.117     2965.245     1665.183        2.037        0.579      169.470       35.772        0.045      342.402       17.783      856.850
04/11/2014  21:47:00     -227.641     -118.678       -0.039      136.213      111.394       53.990    18554.080    12408.554     2914.910        4.988        1.694      256.720       51.778        0.041      342.419       17.813      856.824
04/11/2014  21:48:00     -184.716      -66.474      -12.253      110.360       72.702       48.685    12179.290     5285.509     2370.243        2.926        0.992      196.313       54.813        0.078      342.357       17.707      856.846
04/11/2014  21:49:00     -210.470      -24.107       -3.531       96.398       78.194       53.112     9292.575     6114.333     2820.841        3.156        0.911      211.846       51.344        0.059      342.335       17.670      856.852
04/11/2014  21:50:00     -293.242      -64.036      -14.583      106.150       85.667       58.459    11267.752     7338.839     3417.462        5.616        1.101      300.152       55.210        0.034      342.377       17.741      856.835
04/11/2014  21:51:00     -234.986      -25.661       -5.256      104.170       86.800       59.552    10851.493     7534.171     3546.417        3.891        1.097      236.383       64.155        0.074      342.363       17.717      856.823
04/11/2014  21:52:00     -274.814     -109.924      -10.854       87.076      109.544       56.372     7582.155    11999.975     3177.827        5.524        1.138      295.983       46.529        0.025      342.369       17.726      856.836
04/11/2014  21:53:00     -291.875      -64.061       -0.712      117.807       78.752       52.141    13878.457     6201.938     2718.687        5.604        1.140      298.823       53.983        0.033      342.365       17.721      856.851
04/11/2014  21:54:00     -149.995       32.284       14.518      145.022       77.454       51.447    21031.479     5999.146     2646.754        2.671        1.484      153.430       66.715        0.189      342.284       17.585      856.842
04/11/2014  21:55:00      -97.510      -13.108        0.324       93.990       80.907       37.613     8834.077     6545.872     1414.710        1.323        0.840       98.387       39.815        0.164      342.303       17.616      856.842
04/11/2014  21:56:00     -242.825     -118.381       -7.885      112.100       95.420       51.245    12566.320     9104.936     2626.024        4.866        1.215      270.144       46.739        0.030      342.388       17.761      856.827
04/11/2014  21:57:00     -392.081      -68.066      -28.031      163.261      114.215       52.586    26654.207    13045.071     2765.304       10.080        2.123      397.946       66.866        0.028      342.383       17.752      856.810
04/11/2014  21:58:00     -253.595     -102.426       -7.161      144.206      119.535       72.252    20795.280    14288.532     5220.385        5.757        2.015      273.499       74.243        0.074      342.334       17.669      856.828
04/11/2014  21:59:00     -108.721     -111.757       -5.713      130.175      119.539       56.195    16945.563    14289.610     3157.831        2.936        1.720      155.916       68.182        0.191      342.359       17.711      856.824
04/11/2014  22:00:00     -230.578      -68.130       -0.231      102.183       77.765       44.849    10441.329     6047.408     2011.459        3.815        0.925      240.433       34.305        0.020      342.327       17.656      856.838
04/11/2014  22:01:00     -288.925     -106.169      -13.366      116.329       82.559       45.514    13532.517     6816.007     2071.480        5.867        1.121      307.814       42.648        0.019      342.305       17.619      856.822
04/11/2014  22:02:00     -179.350      -64.993        4.718      101.002       85.817       48.278    10201.503     7364.476     2330.771        2.815        0.995      190.763       48.796        0.065      342.273       17.565      856.808
04/11/2014  22:03:00     -193.087      -45.126       -7.938      106.423       85.394       49.774    11325.770     7292.187     2477.425        3.023        1.055      198.290       51.257        0.067      342.302       17.615      856.809
04/11/2014  22:04:00     -287.031     -114.892        0.200      158.609       70.852       52.967    25156.743     5019.936     2805.516        6.428        1.649      309.171       60.734        0.039      342.315       17.636      856.801
04/11/2014  22:05:00     -304.238     -114.588       -6.305      115.106       94.596       47.251    13249.361     8948.418     2232.669        6.508        1.222      325.102       42.879        0.017      342.300       17.610      856.796
04/11/2014  22:06:00     -271.390      -34.181      -16.986      122.963       83.288       63.619    15119.782     6936.855     4047.348        5.060        1.305      273.534       67.053        0.060      342.270       17.559      856.791
04/11/2014  22:07:00     -215.097      -95.962        0.090      138.641       80.906       55.610    19221.249     6545.827     3092.519        4.216        1.443      235.532       66.959        0.081      342.213       17.464      856.792
04/11/2014  22:08:00     -237.936      -86.342      -14.484      123.072      108.633       63.830    15146.759    11801.063     4074.277        4.764        1.551      253.118       55.600        0.048      342.213       17.464      856.785
04/11/2014  22:09:00     -288.100      -65.140       -9.185       92.506       68.868       37.489     8557.419     4742.796     1405.460        5.101        0.735      295.372       42.150        0.020      342.203       17.446      856.783
04/11/2014  22:10:00     -189.197      -60.270       -6.628      103.561       65.202       36.736    10724.918     4251.301     1349.503        2.790        0.816      198.565       39.023        0.039      342.195       17.432      856.778
04/11/2014  22:11:00     -162.544      -23.615      -18.661       75.891       70.978       37.604     5759.413     5037.831     1414.080        1.977        0.611      164.250       33.308        0.041      342.207       17.455      856.772
04/11/2014  22:12:00     -346.587       -7.917      -19.475      110.730      103.316       53.471    12261.094    10674.121     2859.191        7.317        1.290      346.677       47.715        0.019      342.226       17.483      856.778
04/11/2014  22:13:00     -244.775      -41.797       -9.377      128.858       88.675       54.319    16604.339     7863.323     2950.517        4.458        1.371      248.318       62.626        0.064      342.201       17.442      856.772
04/11/2014  22:14:00     -216.650      -31.531       -7.945      127.705      104.004       46.981    16308.647    10816.914     2207.172        3.866        1.467      218.933       42.830        0.038      342.160       17.373      856.776
04/11/2014  22:15:00     -200.620      -10.227       -9.136       67.099       72.027       40.817     4502.209     5187.892     1666.055        2.589        0.568      200.881       35.476        0.031      342.164       17.379      856.764
04/11/2014  22:16:00     -281.618      -47.797      -14.373      106.864       90.819       55.339    11419.938     8248.104     3062.405        5.226        1.137      285.645       57.063        0.040      342.152       17.358      856.753
04/11/2014  22:17:00     -332.014     -139.018       -9.428      150.265      124.355       66.467    22579.434    15464.203     4417.810        8.605        2.123      359.943       70.200        0.038      342.145       17.347      856.743
04/11/2014  22:18:00     -380.035      -35.930      -30.994      126.631       93.553       57.693    16035.498     8752.162     3328.433        8.739        1.406      381.730       54.378        0.020      342.188       17.419      856.738
04/11/2014  22:19:00     -274.203     -130.890       -4.990      167.011      136.495       64.233    27892.831    18630.765     4125.871        7.149        2.532      303.841       71.500        0.055      342.180       17.407      856.729
04/11/2014  22:20:00     -310.760      -48.027        2.513      149.594      142.441       61.950    22378.483    20289.564     3837.861        7.269        2.325      314.449       64.712        0.042      342.146       17.349      856.725
04/11/2014  22:21:00     -298.239      -87.683      -18.593      128.651      103.446       56.921    16550.960    10701.116     3239.957        6.373        1.525      310.861       53.555        0.030      342.170       17.389      856.724
04/11/2014  22:22:00     -283.036      -13.821      -16.100       86.903       85.778       46.282     7552.107     7357.923     2142.047        4.880        0.853      283.373       39.554        0.019      342.151       17.356      856.733
04/11/2014  22:23:00     -277.042       -7.114      -10.459      113.533      110.119       53.014    12889.803    12126.198     2810.492        5.236        1.391      277.133       55.790        0.041      342.150       17.356      856.739
04/11/2014  22:24:00     -337.708      -72.567       -9.846      137.551      109.900       58.285    18920.282    12077.941     3397.087        7.690        1.720      345.417       61.172        0.031      342.123       17.311      856.730
04/11/2014  22:25:00     -324.266     -116.852      -17.599       82.007       81.338       46.968     6725.096     6615.875     2206.012        6.733        0.777      344.677       40.093        0.014      342.110       17.287      856.725
04/11/2014  22:26:00     -193.183      -45.333      -15.027       72.558       64.500       43.805     5264.592     4160.224     1918.849        2.547        0.567      198.431       46.205        0.054      342.152       17.361      856.722
04/11/2014  22:27:00     -306.944      -85.615      -20.515      103.733      123.748       52.447    10760.572    15313.642     2750.668        6.539        1.441      318.661       48.728        0.023      342.105       17.280      856.735
04/11/2014  22:28:00     -177.890      -21.859        0.046      104.362       89.256       53.055    10891.417     7966.667     2814.882        2.689        1.084      179.228       54.580        0.093      342.054       17.193      856.754
04/11/2014  22:29:00     -182.584      -29.315       12.293      106.008      105.742       57.049    11237.646    11181.332     3254.572        3.001        1.284      184.922       60.262        0.106      342.033       17.158      856.755
04/11/2014  22:30:00     -191.151      -53.903        7.364       97.414       93.018       51.567     9489.407     8652.274     2659.121        3.015        1.040      198.606       43.412        0.048      342.064       17.209      856.764
04/11/2014  22:31:00     -256.807      -50.565       -7.678      187.119      100.047       48.840    35013.508    10009.476     2385.330        5.798        2.370      261.738       69.827        0.071      342.053       17.191      856.754
04/11/2014  22:32:00     -170.929      -14.956      -12.071       91.147       66.855       43.360     8307.819     4469.648     1880.073        2.212        0.733      171.582       32.910        0.037      342.035       17.162      856.776
04/11/2014  22:33:00     -182.013      -32.710        0.077       80.472       91.705       46.374     6475.801     8409.873     2150.580        2.561        0.852      184.929       40.655        0.048      342.010       17.118      856.772
04/11/2014  22:34:00     -235.965      -38.674       -7.924       89.778       96.547       41.908     8060.042     9321.380     1756.276        3.818        0.957      239.113       41.014        0.029      342.061       17.203      856.776
04/11/2014  22:35:00     -426.516     -146.408       -8.387      123.375      120.001       72.066    15221.335    14400.223     5193.471       11.911        1.741      450.945       69.401        0.024      342.095       17.261      856.775
04/11/2014  22:36:00     -233.600       16.410       -9.733      126.783       77.007       53.189    16074.050     5930.114     2829.051        3.988        1.242      234.175       53.304        0.052      342.050       17.186      856.806
04/11/2014  22:37:00     -273.928      -46.226      -10.820       96.409       78.180       49.603     9294.656     6112.069     2460.485        4.758        0.893      277.801       47.015        0.029      342.020       17.135      856.820
04/11/2014  22:38:00     -221.203      -71.873        0.465      117.961       72.648       50.987    13914.781     5277.683     2599.657        3.794        1.090      232.587       59.279        0.065      342.013       17.122      856.832
04/11/2014  22:39:00     -270.787     -123.229       -8.257      126.149       82.845       60.547    15913.619     6863.356     3665.891        5.751        1.322      297.508       64.976        0.048      342.013       17.123      856.845
04/11/2014  22:40:00     -313.526      -30.901      -14.174      139.304      114.840       69.175    19405.693    13188.277     4785.196        6.841        1.869      315.046       79.450        0.064      342.000       17.099      856.857
04/11/2014  22:41:00     -316.156      -10.648      -24.284      123.588      109.732       61.380    15273.947    12041.162     3767.501        6.586        1.554      316.335       73.038        0.053      342.040       17.167      856.866
04/11/2014  22:42:00     -275.356      -22.849      -11.412      114.899       78.193       47.014    13201.724     6114.211     2210.276        4.900        1.076      276.302       51.657        0.035      342.010       17.118      856.869
04/11/2014  22:43:00     -260.997      -68.365       -7.335      112.524       68.196       48.906    12661.626     4650.638     2391.776        4.627        0.985      269.802       52.551        0.038      342.019       17.132      856.868
04/11/2014  22:44:00     -172.795      -34.019       -8.689       63.499       62.275       35.026     4032.149     3878.204     1226.854        2.011        0.457      176.112       25.622        0.021      341.958       17.031      856.873
04/11/2014  22:45:00     -255.732      -44.749      -14.812       68.439       89.683       44.128     4683.837     8043.059     1947.277        4.114        0.734      259.618       40.613        0.024      341.973       17.053      856.882
04/11/2014  22:46:00     -187.136      -23.152      -20.335       95.016       52.966       27.539     9028.090     2805.377      758.370        2.428        0.630      188.563       29.338        0.024      341.962       17.038      856.899
04/11/2014  22:47:00      -89.284      -11.464       17.115      114.140       81.028       43.694    13027.890     6565.536     1909.180        1.494        1.075       90.017       62.598        0.484      341.906       16.943      856.906
04/11/2014  22:48:00     -100.606      -21.940        3.819       48.438       84.784       38.810     2346.233     7188.383     1506.179        1.083        0.552      102.971       27.563        0.072      341.893       16.922      856.943
04/11/2014  22:49:00      -83.823       94.305       -6.757       59.329       92.769       35.834     3519.954     8606.067     1284.096        1.469        0.671      126.173       38.828        0.095      341.910       16.949      856.969
04/11/2014  22:50:00      -98.617       75.804       -1.962       69.043       76.611       38.507     4766.907     5869.217     1482.763        1.379        0.606      124.385       33.938        0.074      341.931       16.984      857.011
04/11/2014  22:51:00     -120.534       39.110        1.386       67.317      101.111       54.085     4531.572    10223.464     2925.166        1.687        0.884      126.721       58.969        0.217      341.918       16.964      857.049
04/11/2014  22:52:00     -171.818       66.829      -27.024      113.782      100.315       63.695    12946.309    10063.065     4057.030        3.089        1.353      184.357       74.089        0.162      341.941       17.000      857.084
04/11/2014  22:53:00     -156.194       86.346      -17.037       67.901       68.318       47.442     4610.502     4667.340     2250.715        2.183        0.576      178.472       28.301        0.025      341.938       16.995      857.107
04/11/2014  22:54:00     -123.540      189.911      -20.754       90.112      145.325       45.222     8120.149    21119.492     2045.011        4.152        1.564      226.558       55.476        0.060      342.021       17.137      857.145
04/11/2014  22:55:00     -162.649      176.006      -39.061       52.305       59.473       36.354     2735.784     3537.068     1321.648        3.327        0.380      239.651       27.795        0.013      342.133       17.325      857.173
04/11/2014  22:56:00      -69.132       99.092      -12.649       53.262       59.394       34.193     2836.811     3527.662     1169.129        1.114        0.377      120.824       18.884        0.024      342.213       17.464      857.161
04/11/2014  22:57:00     -158.019       91.740      -24.067       47.958       61.708       37.202     2299.942     3807.830     1384.014        2.073        0.375      182.719       38.470        0.044      342.311       17.631      857.170
04/11/2014  22:58:00      -96.697       93.057      -21.558       32.014       64.845       24.454     1024.870     4204.849      597.992        1.215        0.291      134.201       20.562        0.023      342.298       17.608      857.172
04/11/2014  22:59:00      -85.393       17.717       -8.889       17.303       31.678       13.461      299.391     1003.494      181.199        0.458        0.074       87.211        8.593        0.010      342.302       17.616      857.167
04/11/2014  23:00:00      -43.532      -10.675        1.023       44.366       19.632       16.070     1968.384      385.405      258.237        0.231        0.131       44.822       18.723        0.174      342.100       17.274      857.164
04/11/2014  23:01:00      -23.425       29.403       -4.497       13.145       16.062       11.932      172.784      257.986      142.380        0.100        0.029       37.594       12.679        0.114      342.169       17.391      857.151
04/11/2014  23:02:00      -71.974       27.427       -7.870       20.340       12.616       11.526      413.697      159.153      132.839        0.335        0.035       77.023        4.950        0.004      342.138       17.340      857.149
04/11/2014  23:03:00       -4.133       29.315       10.807       38.729       13.892       20.348     1499.949      192.982      414.026        0.155        0.105       29.605       20.072        0.460      342.124       17.312      857.136
04/11/2014  23:04:00       48.388       39.180        8.965       28.578       36.509       25.515      816.722     1332.895      650.991        0.338        0.140       62.262       22.993        0.136      341.853       16.855      857.099
04/11/2014  23:05:00       32.070       30.315        3.124       15.328       25.025       15.641      234.946      626.266      244.655        0.153        0.055       44.131       14.521        0.108      341.932       16.988      857.094
04/11/2014  23:06:00      -41.239       -3.648       -1.079       38.978       23.073       16.899     1519.280      532.373      285.576        0.203        0.117       41.400       10.411        0.063      341.947       17.014      857.087
04/11/2014  23:07:00     -110.067      -59.003       -6.946       36.218       52.146       19.745     1311.764     2719.188      389.854        1.003        0.221      124.884       24.484        0.038      342.046       17.179      857.095
04/11/2014  23:08:00      -57.504      -22.612       -0.219       51.241       36.056       19.956     2625.646     1300.065      398.243        0.407        0.216       61.790       23.814        0.149      342.058       17.201      857.090
04/11/2014  23:09:00      -78.402       -7.556        7.730       73.377       49.276       30.230     5384.242     2428.156      913.843        0.749        0.436       78.766       35.864        0.207      342.007       17.115      857.080
04/11/2014  23:10:00      -29.780       -6.121       -7.557       50.919       48.068       28.920     2592.786     2310.530      836.392        0.336        0.287       30.403       24.790        0.665      341.890       16.916      857.070
04/11/2014  23:11:00     -113.021      -47.272        3.722       75.950       51.578       32.542     5768.417     2660.339     1059.014        1.225        0.474      122.509       43.501        0.126      342.103       17.277      857.072
04/11/2014  23:12:00     -133.164      -47.815        3.364       74.946       63.382       46.876     5616.950     4017.252     2197.368        1.593        0.592      141.488       46.862        0.110      342.109       17.286      857.066
04/11/2014  23:13:00     -148.028      -17.020        2.936       76.671       48.036       36.826     5878.472     2307.459     1356.156        1.587        0.477      149.003       39.041        0.069      342.074       17.229      857.065
04/11/2014  23:14:00     -170.577      -31.036       -3.237       72.882       46.751       30.411     5311.736     2185.623      924.816        1.924        0.421      173.377       33.068        0.036      341.990       17.084      857.079
04/11/2014  23:15:00     -187.460      -13.050       -4.668       66.479       72.050       37.586     4419.403     5191.219     1412.717        2.318        0.551      187.914       37.916        0.041      341.982       17.070      857.097
04/11/2014  23:16:00     -184.251       -5.959       -8.367      104.286       55.203       37.165    10875.522     3047.344     1381.239        2.468        0.765      184.348       47.452        0.066      341.908       16.946      857.115
04/11/2014  23:17:00     -198.281      -10.538      -20.595       60.637       57.884       26.793     3676.807     3350.544      717.874        2.380        0.387      198.561       28.352        0.020      341.930       16.983      857.129
04/11/2014  23:18:00     -127.465      -38.288       -5.024       40.304       49.321       27.460     1624.385     2432.523      754.050        1.127        0.241      133.092       21.281        0.026      341.918       16.964      857.130
04/11/2014  23:19:00     -126.214       -1.797      -17.653       40.109       39.486       25.895     1608.705     1559.182      670.532        1.004        0.192      126.227       23.347        0.034      341.961       17.036      857.134
04/11/2014  23:20:00      -89.179      -31.714       -9.663       56.098       37.988       30.394     3146.965     1443.083      923.783        0.728        0.276       94.651       32.634        0.119      341.914       16.958      857.149
04/11/2014  23:21:00      -96.836       -6.907      -10.157       40.796       27.352       27.335     1664.323      748.107      747.201        0.634        0.158       97.082       23.138        0.057      341.912       16.952      857.151
04/11/2014  23:22:00      -35.478       41.565       -2.917       51.545       38.793       30.950     2656.919     1504.887      957.918        0.406        0.256       54.647       33.736        0.381      341.837       16.827      857.152
04/11/2014  23:23:00      -75.403      -37.467       -1.378       51.741       36.025       30.119     2677.181     1297.814      907.151        0.599        0.244       84.198       29.114        0.120      341.840       16.833      857.149
04/11/2014  23:24:00     -154.822       40.455      -13.516       42.980       20.440       19.127     1847.245      417.790      365.830        1.421        0.132      160.020       15.787        0.010      341.937       16.995      857.154
04/11/2014  23:25:00      -16.190       74.327       -8.721       28.395       35.649       17.691      806.278     1270.864      312.979        0.413        0.120       76.070        8.329        0.012      341.826       16.808      857.148
04/11/2014  23:26:00      -90.108       16.190      -14.067       40.748       28.171       16.481     1660.365      793.580      271.609        0.565        0.136       91.551       13.944        0.023      341.851       16.853      857.150
04/11/2014  23:27:00      -91.357       13.548       -5.191       37.829       32.551       19.758     1431.008     1059.540      390.395        0.572        0.144       92.356       12.870        0.019      341.812       16.783      857.133
04/11/2014  23:28:00     -115.257      -14.627      -12.896       46.735       46.965       26.470     2184.203     2205.711      700.673        0.938        0.255      116.182       24.753        0.045      341.770       16.714      857.129
04/11/2014  23:29:00     -137.865       -8.754      -26.331       43.767       27.546       21.868     1915.532      758.758      478.214        1.146        0.158      138.142       16.342        0.014      341.704       16.602      857.130
04/11/2014  23:30:00     -100.462      -43.399       -8.780       65.599       86.521       34.819     4303.272     7485.925     1212.339        1.252        0.650      109.435       44.401        0.165      341.632       16.478      857.124
04/11/2014  23:31:00     -102.900      -37.908      -11.853       30.053       23.737       17.061      903.200      563.423      291.062        0.696        0.088      109.660       13.009        0.014      341.656       16.521      857.089
04/11/2014  23:32:00      -98.911      -70.720      -13.067       63.359       41.081       23.295     4014.412     1687.644      542.680        1.060        0.312      121.592       21.406        0.031      341.694       16.586      857.094
04/11/2014  23:33:00     -164.788      -28.974      -16.053       59.736       62.498       36.590     3568.438     3905.966     1338.862        1.853        0.441      167.316       37.011        0.049      341.611       16.441      857.100
04/11/2014  23:34:00     -172.541      -55.357       -5.285       72.600       64.266       32.625     5270.714     4130.096     1064.391        2.166        0.523      181.204       37.021        0.042      341.748       16.675      857.080
04/11/2014  23:35:00     -165.383      -63.383       -3.074       58.863       79.571       36.442     3464.837     6331.610     1327.986        2.125        0.556      177.113       34.936        0.039      341.687       16.572      857.072
04/11/2014  23:36:00     -152.051      -78.414       -5.703       75.933       51.013       32.672     5765.774     2602.276     1067.465        1.937        0.472      171.079       31.084        0.033      341.630       16.475      857.082
04/11/2014  23:37:00     -234.585     -101.138      -11.253       69.855       68.472       42.374     4879.683     4688.461     1795.574        3.837        0.568      255.459       37.668        0.022      341.709       16.604      857.081
04/11/2014  23:38:00     -124.526      -58.304        5.722       70.026       53.127       33.410     4903.690     2822.440     1116.259        1.389        0.442      137.499       33.680        0.060      341.696       16.587      857.069
04/11/2014  23:39:00     -157.196      -94.988       -4.077       75.774       76.243       36.632     5741.656     5813.014     1341.892        2.332        0.645      183.667       35.377        0.037      341.721       16.628      857.058
04/11/2014  23:40:00     -191.295      -79.169      -15.838       63.649       62.986       37.170     4051.244     3967.248     1381.591        2.625        0.470      207.030       34.468        0.028      341.745       16.669      857.049
04/11/2014  23:41:00     -211.149      -67.840       -1.462       68.081       70.217       42.745     4635.058     4930.422     1827.146        3.029        0.570      221.780       36.640        0.027      341.713       16.614      857.056
04/11/2014  23:42:00     -190.086      -43.451       -6.705       74.807       68.282       39.171     5596.116     4662.447     1534.370        2.493        0.590      194.989       41.992        0.046      341.699       16.590      857.078
04/11/2014  23:43:00     -228.344       26.990      -16.397       40.184       56.336       26.004     1614.724     3173.759      676.196        2.930        0.273      229.933       26.297        0.013      341.673       16.545      857.095
04/11/2014  23:44:00     -196.547      -35.645      -18.035       44.538       49.229       28.500     1983.602     2423.516      812.238        2.272        0.261      199.754       20.628        0.011      341.505       16.262      857.109
04/11/2014  23:45:00     -166.411      -24.182      -24.525       62.915       52.557       30.119     3958.240     2762.230      907.166        1.825        0.381      168.159       34.759        0.043      341.482       16.224      857.079
04/11/2014  23:46:00     -185.316       10.210      -17.556       48.277       48.588       22.536     2330.696     2360.827      507.858        1.998        0.260      185.597       29.070        0.025      341.571       16.374      857.051
04/11/2014  23:47:00     -227.652     -113.106      -10.828       63.492       92.629       33.564     4031.267     8580.137     1126.525        3.923        0.687      254.202       30.041        0.014      341.635       16.482      857.041
04/11/2014  23:48:00     -140.245     -168.001        6.641      116.669      116.082       58.465    13611.734    13475.029     3418.117        3.921        1.525      218.845       65.451        0.089      341.666       16.535      857.010
04/11/2014  23:49:00     -117.264      -66.953       22.201      112.082       97.828       53.008    12562.379     9570.413     2809.826        2.183        1.247      135.031       45.434        0.113      341.652       16.511      857.016
04/11/2014  23:50:00      -92.405      -49.059       -6.109       80.814       55.261       34.598     6530.834     3053.824     1196.993        1.088        0.539      104.621       20.952        0.040      341.715       16.620      857.016
04/11/2014  23:51:00     -132.654      -13.716       -3.332       83.229       44.663       37.150     6927.086     1994.804     1380.110        1.405        0.515      133.362       40.771        0.093      341.705       16.601      856.988
04/11/2014  23:52:00     -163.690      -24.088       -9.738       66.267       57.947       35.690     4391.267     3357.816     1273.802        1.824        0.451      165.453       37.361        0.051      341.679       16.557      857.003
04/11/2014  23:53:00     -172.236      -39.900      -16.965       52.995       43.700       27.387     2808.439     1909.651      750.040        1.851        0.273      176.797       24.137        0.019      341.625       16.466      857.009
04/11/2014  23:54:00      -92.720      -19.453       -4.375       44.940       38.325       26.233     2019.590     1468.839      688.172        0.658        0.209       94.739       19.380        0.042      341.607       16.438      857.017
04/11/2014  23:55:00     -118.282        3.506      -13.297       53.142       31.974       22.520     2824.026     1022.351      507.136        0.927        0.218      118.334       18.430        0.024      341.569       16.371      857.003
04/11/2014  23:56:00     -119.344      -13.324      -11.473       66.725       35.796       25.715     4452.253     1281.329      661.268        1.047        0.320      120.086       23.300        0.038      341.588       16.404      856.989
04/11/2014  23:57:00     -155.780      -52.724       -9.563       50.892       41.241       29.505     2589.975     1700.783      870.516        1.615        0.258      164.460       18.520        0.013      341.516       16.282      856.991
04/11/2014  23:58:00     -133.456      -61.978       -8.374       30.561       35.868       20.590      933.947     1286.498      423.933        1.218        0.132      147.146       12.057        0.007      341.514       16.278      856.985
04/11/2014  23:59:00     -108.990      -22.739       -2.802       35.871       30.788       19.943     1286.698      947.879      397.729        0.752        0.132      111.336       19.168        0.030      341.548       16.337      856.985
